[[{"header":{"parameterUnit":"m.s-1","parameterCategory":1,"la1":31.0,"la2":29.5877,"lo1":-88.7671,"lo2":-86.6584,"dy":0.0162,"dx":0.0185,"nx":115,"ny":88,"refTime":"2024-03-24T18:00:00:Z","depth":0,"parameterNumber":2,"parameterNumberName":"U-component_of_WINDS"},"data":[0.0,0.0,0.0,0.0,0.0,0.0,0.0,0.0,0.0,0.0,0.0,0.0,0.0,0.0,0.0,0.0,0.0,0.0,0.0,0.0,0.0,0.0,0.0,0.0,0.0,0.0,0.0,0.0,0.0,0.0,0.0,0.0,0.0,0.0,0.0,0.0,0.0,0.0,0.0,0.0,0.0,0.0,0.0,0.0,0.0,0.0,0.0,0.0,0.0,0.0,0.0,0.0,0.0,0.0,0.0,0.0,0.0,0.0,0.0,0.0,0.0,0.0,0.0,0.0,0.0,0.0,0.0,0.0,0.0,0.0,0.0,0.0,0.0,0.0,0.0,0.0,0.0,0.0,0.0,0.0,0.0,0.0,0.0,0.0,0.0,0.0,0.0,0.0,0.0,0.0,0.0,0.0,0.0,0.0,0.0,0.0,0.0,0.0,0.0,0.0,0.0,0.0,0.0,0.0,0.0,0.0,0.0,0.0,0.0,0.0,0.0,0.0,0.0,0.0,0.0,0.0,0.0,0.0,0.0,0.0,0.0,0.0,0.0,0.0,0.0,0.0,0.0,0.0,0.0,0.0,0.0,0.0,0.0,0.0,0.0,0.0,0.0,0.0,0.0,0.0,0.0,0.0,0.0,0.0,0.0,0.0,0.0,0.0,0.0,0.0,0.0,0.0,0.0,0.0,0.0,0.0,0.0,0.0,0.0,0.0,0.0,0.0,0.0,0.0,0.0,0.0,0.0,0.0,0.0,0.0,0.0,0.0,0.0,0.0,0.0,0.0,0.0,0.0,0.0,0.0,0.0,0.0,0.0,0.0,0.0,0.0,0.0,0.0,0.0,0.0,0.0,0.0,0.0,0.0,0.0,0.0,0.0,0.0,0.0,0.0,0.0,0.0,0.0,0.0,0.0,0.0,0.0,0.0,0.0,0.0,0.0,0.0,0.0,0.0,0.0,0.0,0.0,0.0,0.0,0.0,0.0,0.0,0.0,0.0,0.0,0.0,0.0,0.0,0.0,0.0,0.0,0.0,0.0,0.0,0.0,0.0,0.0,0.0,0.0,0.0,0.0,0.0,0.0,0.0,0.0,0.0,0.0,0.0,0.0,0.0,0.0,0.0,0.0,0.0,0.0,0.0,0.0,0.0,0.0,0.0,0.0,0.0,0.0,0.0,0.0,0.0,0.0,0.0,0.0,0.0,0.0,0.0,0.0,0.0,0.0,0.0,0.0,0.0,0.0,0.0,0.0,0.0,0.0,0.0,0.0,0.0,0.0,0.0,0.0,0.0,0.0,0.0,0.0,0.0,0.0,0.0,0.0,0.0,0.0,0.0,0.0,0.0,0.0,0.0,0.0,0.0,0.0,0.0,0.0,0.0,0.0,0.0,0.0,0.0,0.0,0.0,0.0,0.0,0.0,0.0,0.0,0.0,0.0,0.0,0.0,0.0,0.0,0.0,0.0,0.0,0.0,0.0,0.0,0.0,0.0,0.0,0.0,0.0,0.0,0.0,0.0,0.0,0.0,0.0,0.0,0.0,0.0,0.0,0.0,0.0,0.0,0.0,0.0,0.0,0.0,0.0,0.0,0.0,0.0,0.0,0.0,0.0,0.0,0.0,0.0,0.0,0.0,0.0,0.0,0.0,0.0,0.0,0.0,0.0,0.0,0.0,0.0,0.0,0.0,0.0,0.0,0.0,0.0,0.0,0.0,0.0,0.0,0.0,0.0,0.0,0.0,0.0,0.0,0.0,0.0,0.0,0.0,0.0,0.0,0.0,0.0,0.0,0.0,0.0,0.0,0.0,0.0,0.0,0.0,0.0,0.0,0.0,0.0,0.0,0.0,0.0,0.0,0.0,0.0,0.0,0.0,0.0,0.0,0.0,0.0,0.0,0.0,0.0,0.0,0.0,0.0,0.0,0.0,0.0,0.0,0.0,0.0,0.0,0.0,0.0,0.0,0.0,0.0,0.0,0.0,0.0,0.0,0.0,0.0,0.0,0.0,0.0,0.0,0.0,0.0,0.0,0.0,0.0,0.0,0.0,0.0,0.0,0.0,0.0,0.0,0.0,0.0,0.0,0.0,0.0,0.0,0.0,0.0,0.0,0.0,0.0,0.0,0.0,0.0,0.0,0.0,0.0,0.0,0.0,0.0,0.0,0.0,0.0,0.0,0.0,0.0,0.0,0.0,0.0,0.0,0.0,0.0,0.0,0.0,0.0,0.0,0.0,0.0,0.0,0.0,0.0,0.0,0.0,0.0,0.0,0.0,0.0,0.0,0.0,0.0,0.0,0.0,0.0,0.0,0.0,0.0,0.0,0.0,0.0,0.0,0.0,0.0,0.0,0.0,0.0,0.0,0.0,0.0,0.0,0.0,0.0,0.0,0.0,0.0,0.0,0.0,0.0,0.0,0.0,0.0,0.0,0.0,0.0,0.0,0.0,0.0,0.0,0.0,0.0,0.0,0.0,0.0,0.0,0.0,0.0,0.0,0.0,0.0,0.0,0.0,0.0,0.0,0.0,0.0,0.0,0.0,0.0,0.0,0.0,0.0,0.0,0.0,0.0,0.0,0.0,0.0,0.0,0.0,0.0,0.0,0.0,0.0,0.0,0.0,0.0,0.0,0.0,0.0,0.0,0.0,0.0,0.0,0.0,0.0,0.0,0.0,0.0,0.0,0.0,0.0,0.0,0.0,0.0,0.0,0.0,0.0,0.0,0.0,0.0,0.0,0.0,0.0,0.0,0.0,0.0,0.0,0.0,0.0,0.0,0.0,0.0,0.0,0.0,0.0,0.0,0.0,0.0,0.0,0.0,0.0,0.0,0.0,0.0,0.0,0.0,0.0,0.0,0.0,0.0,0.0,0.0,0.0,0.0,0.0,0.0,0.0,0.0,0.0,0.0,0.0,0.0,0.0,0.0,0.0,0.0,0.0,0.0,0.0,0.0,0.0,0.0,0.0,0.0,0.0,0.0,0.0,0.0,0.0,0.0,0.0,0.0,0.0,0.0,0.0,0.0,0.0,0.0,0.0,0.0,0.0,0.0,0.0,0.0,0.0,0.0,0.0,0.0,0.0,0.0,0.0,0.0,0.0,0.0,0.0,0.0,0.0,0.0,0.0,0.0,0.0,0.0,0.0,0.0,0.0,0.0,0.0,0.0,0.0,0.0,0.0,0.0,0.0,0.0,0.0,0.0,0.0,0.0,0.0,0.0,0.0,0.0,0.0,0.0,0.0,0.0,0.0,0.0,0.0,0.0,0.0,0.0,0.0,0.0,0.0,0.0,0.0,0.0,0.0,0.0,0.0,0.0,0.0,0.0,0.0,0.0,0.0,0.0,0.0,0.0,0.0,0.0,0.0,0.0,0.0,0.0,0.0,0.0,0.0,0.0,0.0,0.0,0.0,0.0,0.0,0.0,0.0,0.0,0.0,0.0,0.0,0.0,0.0,0.0,0.0,0.0,0.0,0.0,0.0,0.0,0.0,0.0,0.0,0.0,0.0,0.0,0.0,0.0,0.0,0.0,0.0,0.0,0.0,0.0,0.0,0.0,0.0,0.0,0.0,0.0,0.0,0.0,0.0,0.0,0.0,0.0,0.0,0.0,0.0,0.0,0.0,0.0,0.0,0.0,0.0,0.0,0.0,0.0,0.0,0.0,0.0,0.0,0.0,0.0,0.0,0.0,0.0,0.0,0.0,0.0,0.0,0.0,0.0,0.0,0.0,0.0,0.0,0.0,0.0,0.0,0.0,0.0,0.0,0.0,0.0,0.0,0.0,0.0,0.0,0.0,0.0,0.0,0.0,0.0,0.0,0.0,0.0,0.0,0.0,0.0,0.0,0.0,0.0,0.0,0.0,0.0,0.0,0.0,0.0,0.0,0.0,0.0,0.0,0.0,0.0,0.0,0.0,0.0,0.0,0.0,0.0,0.0,0.0,0.0,0.0,0.0,0.0,0.0,0.0,0.0,0.0,0.0,0.0,0.0,0.0,0.0,0.0,0.0,0.0,0.0,0.0,0.0,0.0,0.0,0.0,0.0,0.0,0.0,0.0,0.0,0.0,0.0,0.0,0.0,0.0,0.0,0.0,0.0,0.0,0.0,0.0,0.0,0.0,0.0,0.0,0.0,0.0,0.0,0.0,0.0,0.0,0.0,0.0,0.0,0.0,0.0,0.0,0.0,0.0,0.0,0.0,0.0,0.0,0.0,0.0,0.0,0.0,0.0,0.0,0.0,0.0,0.0,0.0,0.0,0.0,0.0,0.0,0.0,0.0,0.0,0.0,0.0,5.8698,0.0,0.0,0.0,0.0,0.0,0.0,0.0,0.0,0.0,0.0,0.0,0.0,0.0,0.0,0.0,0.0,0.0,0.0,0.0,0.0,0.0,0.0,0.0,0.0,0.0,0.0,0.0,0.0,0.0,0.0,0.0,0.0,0.0,0.0,0.0,0.0,0.0,0.0,0.0,0.0,0.0,0.0,0.0,0.0,0.0,0.0,0.0,0.0,0.0,0.0,0.0,0.0,0.0,0.0,0.0,0.0,0.0,0.0,0.0,0.0,0.0,0.0,0.0,0.0,0.0,0.0,0.0,0.0,0.0,0.0,0.0,0.0,0.0,0.0,0.0,0.0,0.0,0.0,0.0,0.0,0.0,0.0,0.0,0.0,0.0,0.0,0.0,0.0,0.0,0.0,0.0,0.0,0.0,0.0,0.0,0.0,0.0,0.0,0.0,0.0,0.0,0.0,0.0,0.0,0.0,0.0,0.0,0.0,0.0,0.0,5.8698,5.8698,5.8698,5.8698,5.8698,0.0,0.0,0.0,0.0,0.0,0.0,0.0,0.0,0.0,0.0,0.0,0.0,0.0,0.0,0.0,0.0,0.0,0.0,0.0,0.0,0.0,0.0,0.0,0.0,0.0,0.0,0.0,0.0,0.0,0.0,0.0,0.0,0.0,0.0,0.0,0.0,0.0,0.0,0.0,0.0,0.0,0.0,0.0,0.0,0.0,0.0,0.0,0.0,0.0,0.0,0.0,0.0,0.0,0.0,0.0,0.0,0.0,0.0,0.0,0.0,0.0,0.0,0.0,0.0,0.0,0.0,0.0,0.0,0.0,0.0,0.0,0.0,0.0,0.0,0.0,0.0,0.0,0.0,0.0,0.0,0.0,0.0,0.0,0.0,0.0,0.0,0.0,0.0,0.0,0.0,0.0,0.0,0.0,0.0,0.0,0.0,0.0,0.0,0.0,0.0,0.0,0.0,0.0,0.0,0.0,0.0,0.0,0.0,0.0,0.0,0.0,0.0,5.8698,5.8698,5.8698,0.0,0.0,0.0,0.0,0.0,0.0,0.0,0.0,0.0,0.0,0.0,0.0,0.0,0.0,0.0,0.0,0.0,0.0,0.0,0.0,0.0,0.0,0.0,0.0,0.0,0.0,0.0,0.0,0.0,0.0,0.0,0.0,0.0,0.0,0.0,0.0,0.0,0.0,0.0,0.0,0.0,0.0,0.0,0.0,0.0,0.0,0.0,0.0,0.0,0.0,0.0,0.0,0.0,0.0,0.0,0.0,0.0,0.0,0.0,0.0,0.0,0.0,0.0,0.0,0.0,0.0,0.0,0.0,0.0,0.0,0.0,0.0,0.0,0.0,0.0,0.0,0.0,0.0,0.0,0.0,0.0,0.0,0.0,0.0,0.0,0.0,0.0,0.0,0.0,0.0,0.0,0.0,0.0,0.0,0.0,0.0,0.0,0.0,0.0,0.0,0.0,0.0,0.0,0.0,0.0,0.0,0.0,0.0,0.0,0.0,5.8698,5.8698,5.8698,0.0,5.8698,0.0,0.0,0.0,0.0,0.0,0.0,0.0,0.0,0.0,0.0,0.0,0.0,0.0,0.0,0.0,0.0,0.0,0.0,0.0,0.0,0.0,0.0,0.0,0.0,0.0,0.0,0.0,0.0,0.0,0.0,0.0,0.0,0.0,0.0,0.0,0.0,0.0,0.0,0.0,0.0,0.0,0.0,0.0,0.0,0.0,0.0,0.0,0.0,0.0,0.0,0.0,0.0,0.0,0.0,0.0,0.0,0.0,0.0,0.0,0.0,0.0,0.0,0.0,0.0,0.0,0.0,0.0,0.0,0.0,0.0,0.0,0.0,0.0,0.0,0.0,0.0,0.0,0.0,0.0,0.0,0.0,0.0,0.0,0.0,0.0,0.0,0.0,0.0,0.0,0.0,0.0,0.0,0.0,0.0,0.0,0.0,0.0,0.0,0.0,0.0,0.0,0.0,0.0,0.0,0.0,0.0,0.0,0.0,0.0,0.0,5.8698,5.8698,5.8698,5.8698,0.0,0.0,0.0,0.0,0.0,0.0,0.0,0.0,0.0,0.0,0.0,0.0,0.0,0.0,0.0,0.0,0.0,0.0,0.0,0.0,0.0,0.0,0.0,0.0,0.0,0.0,0.0,0.0,0.0,0.0,0.0,0.0,0.0,0.0,0.0,0.0,0.0,0.0,0.0,0.0,0.0,0.0,0.0,0.0,0.0,0.0,0.0,0.0,0.0,0.0,0.0,0.0,0.0,0.0,0.0,0.0,0.0,0.0,0.0,0.0,0.0,0.0,0.0,0.0,0.0,0.0,0.0,0.0,0.0,0.0,0.0,0.0,0.0,0.0,0.0,0.0,0.0,0.0,0.0,0.0,0.0,0.0,0.0,0.0,0.0,0.0,0.0,0.0,0.0,0.0,0.0,0.0,0.0,0.0,0.0,0.0,0.0,0.0,0.0,0.0,0.0,0.0,0.0,0.0,0.0,0.0,0.0,0.0,0.0,0.0,5.8698,5.8698,5.8698,5.8698,5.8698,5.8698,0.0,0.0,0.0,0.0,0.0,0.0,0.0,0.0,0.0,0.0,0.0,0.0,0.0,0.0,0.0,0.0,0.0,0.0,0.0,0.0,0.0,0.0,0.0,0.0,0.0,0.0,0.0,0.0,0.0,0.0,0.0,0.0,0.0,0.0,0.0,0.0,0.0,0.0,0.0,0.0,0.0,0.0,0.0,0.0,0.0,0.0,0.0,0.0,0.0,0.0,0.0,0.0,0.0,0.0,0.0,0.0,0.0,0.0,0.0,0.0,0.0,0.0,0.0,0.0,0.0,0.0,0.0,0.0,0.0,0.0,0.0,0.0,0.0,0.0,0.0,0.0,0.0,0.0,0.0,0.0,0.0,0.0,0.0,0.0,0.0,0.0,0.0,0.0,0.0,0.0,0.0,0.0,0.0,0.0,0.0,0.0,0.0,0.0,0.0,0.0,0.0,0.0,0.0,0.0,0.0,0.0,0.0,0.0,5.8698,5.8698,5.8698,5.8698,5.8698,5.8698,0.0,0.0,0.0,0.0,0.0,0.0,0.0,0.0,0.0,0.0,0.0,0.0,0.0,0.0,0.0,0.0,0.0,0.0,0.0,0.0,0.0,0.0,0.0,0.0,0.0,0.0,0.0,0.0,0.0,0.0,0.0,0.0,0.0,0.0,0.0,0.0,0.0,0.0,0.0,0.0,0.0,0.0,0.0,0.0,0.0,0.0,0.0,0.0,0.0,0.0,0.0,0.0,0.0,0.0,0.0,0.0,0.0,0.0,0.0,0.0,0.0,0.0,0.0,0.0,0.0,0.0,0.0,0.0,0.0,0.0,0.0,0.0,0.0,0.0,0.0,0.0,0.0,0.0,0.0,0.0,0.0,0.0,0.0,0.0,0.0,0.0,0.0,0.0,0.0,0.0,0.0,0.0,0.0,0.0,0.0,0.0,0.0,0.0,0.0,0.0,0.0,0.0,0.0,0.0,0.0,0.0,0.0,0.0,0.0,5.8698,5.8698,5.8698,5.8698,5.8698,5.8698,0.0,0.0,0.0,0.0,0.0,0.0,0.0,0.0,0.0,0.0,0.0,0.0,0.0,0.0,0.0,0.0,0.0,0.0,0.0,0.0,0.0,0.0,0.0,0.0,0.0,0.0,0.0,0.0,0.0,0.0,0.0,0.0,0.0,0.0,0.0,0.0,0.0,0.0,0.0,0.0,0.0,0.0,0.0,0.0,0.0,0.0,0.0,0.0,0.0,0.0,0.0,0.0,0.0,0.0,0.0,0.0,0.0,0.0,0.0,0.0,0.0,0.0,0.0,0.0,0.0,0.0,0.0,0.0,0.0,0.0,0.0,0.0,0.0,0.0,0.0,0.0,0.0,0.0,0.0,0.0,0.0,0.0,0.0,0.0,0.0,0.0,0.0,0.0,0.0,0.0,0.0,0.0,0.0,0.0,0.0,0.0,0.0,0.0,0.0,0.0,0.0,0.0,0.0,0.0,0.0,0.0,0.0,0.0,0.0,5.8698,0.0,5.8698,5.8698,5.8698,5.8698,0.0,0.0,0.0,0.0,0.0,0.0,0.0,0.0,0.0,0.0,0.0,0.0,0.0,0.0,0.0,0.0,0.0,0.0,0.0,0.0,0.0,0.0,0.0,0.0,0.0,0.0,0.0,0.0,0.0,0.0,0.0,0.0,0.0,0.0,0.0,0.0,0.0,0.0,0.0,0.0,0.0,0.0,0.0,0.0,0.0,0.0,0.0,0.0,0.0,0.0,0.0,0.0,0.0,0.0,0.0,0.0,0.0,0.0,0.0,0.0,0.0,0.0,0.0,0.0,0.0,0.0,0.0,0.0,0.0,0.0,0.0,0.0,0.0,0.0,0.0,0.0,0.0,0.0,0.0,0.0,0.0,0.0,0.0,0.0,0.0,0.0,0.0,0.0,0.0,0.0,0.0,0.0,0.0,0.0,0.0,0.0,0.0,0.0,0.0,0.0,0.0,0.0,0.0,0.0,0.0,0.0,0.0,0.0,5.8735,5.8735,5.8772,5.8809,5.8735,5.8772,5.8735,0.0,0.0,0.0,0.0,0.0,0.0,0.0,0.0,0.0,0.0,0.0,0.0,0.0,0.0,0.0,0.0,0.0,0.0,0.0,0.0,0.0,0.0,0.0,0.0,0.0,0.0,0.0,0.0,0.0,0.0,0.0,0.0,0.0,0.0,0.0,0.0,0.0,0.0,0.0,0.0,0.0,0.0,0.0,0.0,0.0,0.0,0.0,0.0,0.0,0.0,0.0,0.0,0.0,0.0,0.0,0.0,0.0,0.0,0.0,0.0,0.0,0.0,0.0,0.0,0.0,0.0,0.0,0.0,0.0,0.0,0.0,0.0,0.0,0.0,0.0,0.0,0.0,0.0,0.0,0.0,0.0,0.0,0.0,0.0,0.0,0.0,0.0,0.0,0.0,0.0,0.0,0.0,0.0,0.0,0.0,0.0,0.0,0.0,0.0,0.0,0.0,0.0,0.0,0.0,0.0,0.0,0.0,0.0,0.0,5.9552,6.011,6.0444,6.0407,5.985,5.9552,0.0,0.0,0.0,0.0,0.0,0.0,0.0,0.0,0.0,0.0,0.0,0.0,0.0,0.0,0.0,0.0,0.0,0.0,0.0,0.0,0.0,0.0,0.0,0.0,0.0,0.0,0.0,0.0,0.0,0.0,0.0,0.0,0.0,0.0,0.0,0.0,0.0,0.0,0.0,0.0,0.0,0.0,0.0,0.0,0.0,0.0,0.0,0.0,0.0,0.0,0.0,0.0,0.0,0.0,0.0,0.0,0.0,0.0,0.0,0.0,0.0,0.0,0.0,0.0,0.0,0.0,0.0,0.0,0.0,0.0,0.0,0.0,0.0,0.0,0.0,0.0,0.0,0.0,0.0,0.0,0.0,0.0,0.0,0.0,0.0,0.0,0.0,0.0,0.0,0.0,0.0,0.0,0.0,0.0,0.0,0.0,0.0,0.0,0.0,0.0,0.0,0.0,0.0,0.0,0.0,0.0,0.0,0.0,0.0,6.1298,6.1521,6.1633,6.1633,6.1113,6.0555,5.9924,0.0,0.0,0.0,0.0,0.0,0.0,0.0,0.0,0.0,0.0,0.0,0.0,0.0,0.0,0.0,0.0,0.0,0.0,0.0,0.0,0.0,0.0,0.0,0.0,0.0,0.0,0.0,0.0,0.0,0.0,0.0,0.0,0.0,0.0,0.0,0.0,0.0,0.0,0.0,0.0,0.0,0.0,0.0,0.0,0.0,0.0,0.0,0.0,0.0,0.0,0.0,0.0,0.0,0.0,0.0,0.0,0.0,0.0,0.0,0.0,0.0,0.0,0.0,0.0,0.0,0.0,0.0,0.0,0.0,0.0,0.0,0.0,0.0,0.0,0.0,0.0,0.0,0.0,0.0,0.0,0.0,0.0,0.0,0.0,0.0,0.0,0.0,0.0,0.0,0.0,0.0,0.0,0.0,0.0,0.0,0.0,0.0,0.0,0.0,0.0,0.0,0.0,0.0,0.0,0.0,0.0,0.0,0.0,6.375,6.3044,6.2673,6.2636,6.2524,6.1744,0.0,0.0,0.0,0.0,0.0,0.0,0.0,0.0,0.0,0.0,0.0,0.0,0.0,0.0,0.0,0.0,0.0,0.0,0.0,0.0,0.0,0.0,0.0,0.0,0.0,0.0,0.0,0.0,0.0,0.0,0.0,0.0,0.0,0.0,0.0,0.0,0.0,0.0,0.0,0.0,0.0,0.0,0.0,0.0,0.0,0.0,0.0,0.0,0.0,0.0,0.0,0.0,0.0,0.0,0.0,0.0,0.0,0.0,0.0,0.0,0.0,0.0,0.0,0.0,0.0,0.0,0.0,0.0,0.0,0.0,0.0,0.0,0.0,0.0,0.0,0.0,0.0,0.0,0.0,0.0,0.0,0.0,0.0,0.0,0.0,0.0,0.0,0.0,0.0,0.0,0.0,0.0,0.0,0.0,0.0,0.0,0.0,0.0,0.0,0.0,0.0,0.0,0.0,0.0,0.0,0.0,0.0,0.0,0.0,6.5422,6.5831,6.5756,6.5125,6.3936,6.3082,0.0,0.0,0.0,0.0,0.0,0.0,0.0,0.0,0.0,0.0,0.0,0.0,0.0,0.0,0.0,0.0,0.0,0.0,0.0,0.0,0.0,0.0,0.0,0.0,0.0,0.0,0.0,0.0,0.0,0.0,0.0,0.0,0.0,0.0,0.0,0.0,0.0,0.0,0.0,0.0,0.0,0.0,0.0,0.0,0.0,0.0,0.0,0.0,0.0,0.0,0.0,0.0,0.0,0.0,0.0,0.0,0.0,0.0,0.0,0.0,0.0,0.0,0.0,0.0,0.0,0.0,0.0,0.0,0.0,0.0,0.0,0.0,0.0,0.0,0.0,0.0,0.0,0.0,0.0,0.0,0.0,0.0,0.0,0.0,0.0,0.0,0.0,0.0,0.0,0.0,0.0,0.0,0.0,0.0,0.0,0.0,0.0,0.0,0.0,0.0,0.0,0.0,0.0,0.0,0.0,0.0,0.0,0.0,6.5125,6.6091,6.7243,6.7614,6.7131,6.5534,6.4308,0.0,0.0,0.0,0.0,0.0,0.0,0.0,0.0,0.0,0.0,0.0,0.0,0.0,0.0,0.0,0.0,0.0,0.0,0.0,0.0,0.0,0.0,0.0,0.0,0.0,0.0,0.0,0.0,0.0,0.0,0.0,0.0,0.0,0.0,0.0,0.0,0.0,0.0,0.0,0.0,0.0,0.0,0.0,0.0,0.0,0.0,0.0,0.0,0.0,0.0,0.0,0.0,0.0,0.0,0.0,0.0,0.0,0.0,0.0,0.0,0.0,0.0,0.0,0.0,0.0,0.0,0.0,0.0,0.0,0.0,0.0,0.0,0.0,0.0,0.0,0.0,0.0,0.0,0.0,0.0,0.0,0.0,0.0,0.0,0.0,0.0,0.0,0.0,0.0,0.0,0.0,0.0,0.0,0.0,0.0,0.0,0.0,0.0,0.0,0.0,0.0,0.0,0.0,0.0,0.0,0.0,0.0,0.0,6.6128,6.6239,6.7725,6.8543,6.8468,6.6945,6.5422,0.0,0.0,0.0,0.0,0.0,0.0,0.0,0.0,0.0,0.0,0.0,0.0,0.0,0.0,0.0,0.0,0.0,0.0,0.0,0.0,0.0,0.0,0.0,0.0,0.0,0.0,0.0,0.0,0.0,0.0,0.0,0.0,0.0,0.0,0.0,0.0,0.0,0.0,0.0,0.0,0.0,0.0,0.0,0.0,0.0,0.0,0.0,0.0,0.0,0.0,0.0,0.0,0.0,0.0,0.0,0.0,0.0,0.0,0.0,0.0,0.0,0.0,0.0,0.0,0.0,0.0,0.0,0.0,0.0,0.0,0.0,0.0,0.0,0.0,0.0,0.0,0.0,0.0,0.0,0.0,0.0,0.0,0.0,0.0,0.0,0.0,0.0,0.0,0.0,0.0,0.0,0.0,0.0,0.0,0.0,0.0,0.0,0.0,0.0,0.0,0.0,0.0,0.0,0.0,0.0,0.0,0.0,0.0,6.6425,6.7057,6.8023,6.8543,6.8506,6.6945,6.5942,0.0,0.0,0.0,0.0,0.0,0.0,0.0,0.0,0.0,0.0,0.0,0.0,0.0,0.0,0.0,0.0,0.0,0.0,0.0,0.0,0.0,0.0,0.0,0.0,0.0,0.0,0.0,0.0,0.0,0.0,0.0,0.0,0.0,0.0,0.0,0.0,0.0,0.0,0.0,0.0,0.0,0.0,0.0,0.0,0.0,0.0,0.0,0.0,6.73,0.0,0.0,0.0,0.0,0.0,0.0,0.0,0.0,0.0,0.0,0.0,0.0,0.0,0.0,0.0,0.0,0.0,0.0,0.0,0.0,0.0,0.0,0.0,0.0,0.0,0.0,0.0,0.0,0.0,0.0,0.0,0.0,0.0,0.0,0.0,0.0,0.0,0.0,0.0,0.0,0.0,0.0,0.0,0.0,0.0,0.0,0.0,0.0,0.0,0.0,0.0,0.0,0.0,0.0,0.0,0.0,0.0,0.0,0.0,6.65,6.728,6.8097,6.8543,6.8468,6.7317,6.65,0.0,0.0,0.0,0.0,0.0,0.0,0.0,0.0,0.0,0.0,0.0,0.0,0.0,0.0,0.0,0.0,0.0,0.0,0.0,0.0,0.0,0.0,0.0,0.0,0.0,0.0,0.0,0.0,0.0,0.0,0.0,0.0,0.0,0.0,0.0,0.0,0.0,0.0,0.0,0.0,0.0,0.0,0.0,0.0,0.0,0.0,0.0,0.0,0.0,0.0,0.0,0.0,0.0,0.0,0.0,0.0,0.0,0.0,0.0,0.0,0.0,0.0,0.0,0.0,0.0,0.0,0.0,0.0,0.0,0.0,0.0,0.0,0.0,0.0,0.0,0.0,0.0,0.0,0.0,0.0,0.0,0.0,0.0,0.0,0.0,0.0,0.0,0.0,0.0,0.0,0.0,0.0,0.0,0.0,0.0,0.0,0.0,0.0,0.0,0.0,0.0,0.0,0.0,0.0,0.0,0.0,0.0,6.5385,6.6537,6.7465,6.8171,6.8543,6.8506,6.7725,6.6945,6.6128,0.0,0.0,0.0,0.0,0.0,0.0,0.0,0.0,0.0,0.0,0.0,0.0,0.0,0.0,0.0,0.0,0.0,0.0,0.0,0.0,0.0,0.0,0.0,0.0,0.0,0.0,0.0,0.0,0.0,0.0,0.0,0.0,0.0,0.0,0.0,0.0,0.0,0.0,6.4237,6.5558,0.0,0.0,0.0,0.0,0.0,0.0,0.0,0.0,6.7174,0.0,0.0,0.0,0.0,0.0,0.0,0.0,0.0,0.0,0.0,0.0,0.0,0.0,0.0,0.0,0.0,0.0,0.0,0.0,0.0,0.0,0.0,0.0,0.0,0.0,0.0,0.0,0.0,0.0,0.0,0.0,0.0,0.0,0.0,0.0,0.0,0.0,0.0,0.0,0.0,0.0,0.0,0.0,0.0,0.0,0.0,0.0,0.0,0.0,0.0,0.0,0.0,0.0,0.0,0.0,0.0,6.5645,6.5979,6.6834,6.8283,6.8431,6.8543,6.8506,6.7725,6.6945,6.6054,0.0,0.0,0.0,0.0,0.0,0.0,0.0,0.0,0.0,0.0,0.0,0.0,0.0,0.0,0.0,0.0,0.0,0.0,0.0,0.0,0.0,0.0,0.0,0.0,0.0,0.0,0.0,0.0,0.0,0.0,0.0,0.0,0.0,0.0,0.0,0.0,0.0,0.0,0.0,6.5925,6.6806,0.0,0.0,0.0,0.0,0.0,0.0,0.0,0.0,6.6083,0.0,0.0,0.0,0.0,0.0,0.0,0.0,0.0,0.0,0.0,0.0,0.0,0.0,0.0,0.0,0.0,0.0,0.0,0.0,0.0,0.0,0.0,0.0,0.0,0.0,0.0,0.0,0.0,0.0,0.0,0.0,0.0,0.0,0.0,0.0,0.0,0.0,0.0,0.0,0.0,0.0,0.0,0.0,0.0,0.0,0.0,0.0,0.0,0.0,0.0,0.0,0.0,0.0,0.0,0.0,6.5979,6.6537,6.7317,6.8468,6.8543,6.8543,6.8506,6.7725,6.6945,0.0,0.0,0.0,0.0,0.0,0.0,0.0,0.0,0.0,0.0,0.0,0.0,0.0,0.0,0.0,0.0,0.0,0.0,0.0,0.0,0.0,0.0,0.0,0.0,0.0,0.0,0.0,0.0,0.0,0.0,0.0,0.0,0.0,0.0,0.0,0.0,0.0,0.0,0.0,0.0,6.5632,6.6276,6.7432,0.0,0.0,0.0,0.0,0.0,0.0,6.6145,6.5746,0.0,0.0,0.0,0.0,0.0,0.0,0.0,0.0,0.0,0.0,0.0,0.0,0.0,0.0,0.0,0.0,0.0,0.0,0.0,0.0,0.0,0.0,0.0,0.0,0.0,0.0,0.0,0.0,0.0,0.0,0.0,0.0,0.0,0.0,0.0,0.0,0.0,0.0,0.0,0.0,0.0,0.0,0.0,0.0,0.0,0.0,0.0,0.0,0.0,0.0,0.0,0.0,0.0,0.0,0.0,6.6054,6.6908,6.7688,6.8468,6.8543,6.8543,6.8506,6.7577,6.676,0.0,0.0,0.0,0.0,0.0,0.0,0.0,0.0,0.0,0.0,0.0,0.0,0.0,0.0,0.0,0.0,0.0,0.0,0.0,0.0,0.0,0.0,0.0,0.0,0.0,0.0,0.0,0.0,0.0,0.0,0.0,0.0,0.0,0.0,0.0,0.0,0.0,0.0,0.0,0.0,0.0,6.571,6.703,6.7193,0.0,0.0,0.0,0.0,6.6944,6.5901,0.0,0.0,0.0,0.0,0.0,0.0,0.0,0.0,0.0,0.0,0.0,0.0,0.0,0.0,0.0,0.0,0.0,0.0,0.0,0.0,0.0,0.0,0.0,0.0,0.0,0.0,0.0,0.0,0.0,0.0,0.0,0.0,0.0,0.0,0.0,0.0,0.0,0.0,0.0,0.0,0.0,0.0,0.0,0.0,0.0,0.0,0.0,0.0,0.0,0.0,0.0,0.0,0.0,0.0,0.0,0.0,6.6054,6.6908,6.7688,6.8468,6.8543,6.8543,6.8506,6.702,6.6202,0.0,0.0,0.0,0.0,0.0,0.0,0.0,0.0,0.0,0.0,0.0,0.0,0.0,0.0,0.0,0.0,0.0,0.0,0.0,0.0,0.0,0.0,0.0,0.0,0.0,0.0,0.0,0.0,0.0,0.0,0.0,0.0,0.0,0.0,0.0,0.0,0.0,0.0,0.0,0.0,0.0,6.5347,6.6262,6.6717,6.6925,0.0,0.0,6.5832,6.5389,6.4982,0.0,0.0,0.0,0.0,0.0,0.0,0.0,0.0,0.0,0.0,0.0,0.0,0.0,0.0,0.0,0.0,0.0,0.0,0.0,0.0,0.0,0.0,0.0,0.0,0.0,0.0,0.0,0.0,0.0,0.0,0.0,0.0,0.0,0.0,0.0,0.0,0.0,0.0,0.0,0.0,0.0,0.0,0.0,0.0,0.0,0.0,0.0,0.0,0.0,0.0,0.0,0.0,0.0,0.0,0.0,6.5385,6.6128,6.7354,6.8171,6.8506,6.8543,6.8543,6.8543,6.7391,6.6574,0.0,0.0,0.0,0.0,0.0,0.0,0.0,0.0,0.0,0.0,0.0,0.0,0.0,0.0,0.0,0.0,0.0,0.0,0.0,0.0,0.0,0.0,0.0,0.0,0.0,0.0,0.0,0.0,0.0,0.0,0.0,0.0,0.0,0.0,0.0,0.0,0.0,0.0,0.0,0.0,0.0,0.0,6.6007,6.6531,0.0,0.0,0.0,6.5409,6.5082,0.0,0.0,0.0,0.0,0.0,0.0,0.0,0.0,0.0,0.0,0.0,0.0,0.0,0.0,0.0,0.0,0.0,0.0,0.0,0.0,0.0,0.0,0.0,0.0,0.0,0.0,0.0,0.0,0.0,0.0,0.0,0.0,0.0,0.0,0.0,0.0,0.0,0.0,0.0,0.0,0.0,0.0,0.0,0.0,0.0,0.0,0.0,0.0,0.0,0.0,0.0,0.0,0.0,0.0,0.0,0.0,0.0,6.6128,6.7688,6.8543,6.8543,6.8543,6.8543,6.8506,6.7725,0.0,0.0,0.0,0.0,0.0,0.0,0.0,0.0,0.0,0.0,0.0,0.0,0.0,0.0,0.0,0.0,0.0,0.0,0.0,0.0,0.0,0.0,0.0,0.0,0.0,0.0,0.0,5.9905,0.0,0.0,0.0,0.0,0.0,0.0,0.0,0.0,0.0,0.0,0.0,0.0,0.0,0.0,6.5204,6.5897,6.6395,6.6548,0.0,0.0,6.5011,6.4775,6.4251,6.3927,0.0,0.0,0.0,0.0,0.0,0.0,0.0,0.0,0.0,0.0,0.0,0.0,0.0,0.0,0.0,0.0,0.0,0.0,0.0,0.0,0.0,0.0,0.0,0.0,0.0,0.0,0.0,0.0,0.0,0.0,0.0,0.0,0.0,0.0,0.0,0.0,0.0,0.0,0.0,0.0,0.0,0.0,0.0,0.0,0.0,0.0,0.0,0.0,0.0,0.0,0.0,0.0,0.0,0.0,0.0,6.6165,6.7688,6.8543,6.8543,6.8543,6.8543,6.8506,6.7725,6.6945,0.0,0.0,0.0,0.0,0.0,0.0,0.0,0.0,0.0,0.0,0.0,0.0,0.0,0.0,0.0,0.0,0.0,0.0,0.0,0.0,0.0,0.0,0.0,0.0,0.0,0.0,0.0,0.0,0.0,0.0,0.0,0.0,0.0,0.0,0.0,0.0,0.0,0.0,0.0,0.0,0.0,6.5095,6.5897,6.6184,6.6146,0.0,6.5247,6.481,6.4109,6.3927,6.382,6.3673,0.0,0.0,0.0,0.0,0.0,0.0,0.0,0.0,0.0,0.0,0.0,0.0,0.0,0.0,0.0,0.0,0.0,0.0,0.0,0.0,0.0,0.0,0.0,0.0,0.0,0.0,0.0,0.0,0.0,0.0,0.0,0.0,0.0,0.0,0.0,0.0,0.0,0.0,0.0,0.0,0.0,0.0,0.0,0.0,0.0,0.0,0.0,0.0,0.0,0.0,0.0,0.0,0.0,6.6091,6.6128,6.7688,6.8543,6.8543,6.8543,6.8543,6.8543,6.8208,6.7688,0.0,0.0,0.0,0.0,0.0,0.0,0.0,0.0,0.0,0.0,0.0,0.0,0.0,0.0,0.0,0.0,0.0,0.0,0.0,0.0,0.0,0.0,0.0,0.0,0.0,0.0,0.0,0.0,6.3906,6.3906,6.3356,0.0,0.0,0.0,0.0,0.0,0.0,0.0,0.0,0.0,0.0,6.5041,6.5581,6.5947,0.0,0.0,6.4944,6.4428,6.3999,6.382,6.3673,6.36,6.36,0.0,0.0,0.0,0.0,0.0,0.0,0.0,0.0,0.0,0.0,0.0,0.0,0.0,0.0,0.0,0.0,0.0,0.0,0.0,0.0,0.0,0.0,0.0,0.0,0.0,0.0,0.0,0.0,0.0,0.0,0.0,0.0,0.0,0.0,0.0,0.0,0.0,0.0,0.0,0.0,0.0,0.0,0.0,0.0,0.0,0.0,0.0,0.0,0.0,0.0,0.0,0.0,6.6091,6.6128,6.7688,6.8543,6.8543,6.8543,6.8543,6.8543,6.8543,6.8134,0.0,0.0,0.0,0.0,0.0,0.0,0.0,0.0,0.0,0.0,0.0,0.0,0.0,0.0,0.0,0.0,0.0,0.0,0.0,0.0,0.0,0.0,0.0,0.0,0.0,0.0,0.0,0.0,6.409,6.387,6.3246,0.0,0.0,0.0,0.0,0.0,0.0,0.0,0.0,0.0,0.0,6.5294,6.5714,6.5812,6.5604,6.5145,6.4602,6.4145,6.382,6.3673,6.3669,6.3876,0.0,0.0,0.0,0.0,0.0,0.0,0.0,0.0,0.0,0.0,0.0,0.0,0.0,0.0,0.0,0.0,0.0,0.0,0.0,0.0,0.0,0.0,0.0,0.0,0.0,0.0,0.0,6.115,0.0,0.0,6.1113,0.0,0.0,0.0,0.0,0.0,0.0,0.0,0.0,0.0,0.0,0.0,0.0,0.0,0.0,0.0,0.0,0.0,0.0,0.0,0.0,0.0,0.0,6.6091,6.6128,6.7688,6.8543,6.8543,6.8543,6.8543,6.8543,6.8543,6.8134,6.7317,0.0,0.0,0.0,0.0,0.0,0.0,0.0,0.0,0.0,0.0,0.0,0.0,0.0,0.0,0.0,0.0,0.0,0.0,0.0,0.0,0.0,0.0,0.0,0.0,0.0,0.0,6.4053,6.409,6.409,0.0,0.0,0.0,0.0,0.0,0.0,0.0,0.0,0.0,6.4799,6.5405,6.5924,6.6391,6.576,6.5145,6.474,6.4217,6.382,6.3673,6.36,6.3841,0.0,0.0,0.0,0.0,0.0,0.0,0.0,0.0,0.0,0.0,0.0,0.0,0.0,0.0,0.0,0.0,0.0,0.0,0.0,0.0,0.0,0.0,0.0,0.0,0.0,0.0,0.0,6.2004,6.2004,0.0,0.0,0.0,0.0,0.0,0.0,0.0,0.0,0.0,0.0,0.0,6.5645,6.5385,0.0,0.0,0.0,0.0,0.0,0.0,0.0,0.0,0.0,0.0,0.0,0.0,6.6091,6.6165,6.7688,6.8543,6.8543,6.8543,6.8543,6.8543,6.8543,6.8134,6.7354,0.0,0.0,0.0,0.0,0.0,0.0,0.0,0.0,0.0,0.0,0.0,0.0,0.0,0.0,0.0,0.0,0.0,0.0,0.0,0.0,0.0,0.0,0.0,0.0,0.0,6.4604,0.0,0.0,0.0,0.0,0.0,0.0,0.0,0.0,0.0,0.0,0.0,6.403,6.5442,6.5602,6.5786,6.6125,6.5604,6.5078,0.0,0.0,0.0,0.0,0.0,0.0,0.0,0.0,0.0,0.0,0.0,0.0,0.0,0.0,6.4393,6.4358,6.4353,6.4346,6.4358,0.0,0.0,0.0,0.0,0.0,0.0,0.0,0.0,0.0,0.0,0.0,0.0,0.0,0.0,6.3676,0.0,6.3713,0.0,0.0,0.0,0.0,0.0,0.0,0.0,0.0,6.6277,6.6648,6.6945,6.6648,6.6537,0.0,6.6239,6.5013,0.0,0.0,0.0,0.0,0.0,0.0,0.0,0.0,6.6239,6.6574,6.7837,6.8543,6.8543,6.8543,6.8543,6.8543,6.8543,6.8283,6.7763,6.7465,6.6537,0.0,0.0,0.0,0.0,0.0,0.0,0.0,0.0,0.0,0.0,0.0,0.0,0.0,0.0,0.0,0.0,0.0,0.0,0.0,0.0,0.0,0.0,0.0,6.4867,0.0,0.0,0.0,0.0,0.0,0.0,0.0,0.0,0.0,6.3218,6.4046,6.4948,6.5694,6.5736,6.5743,6.5788,0.0,0.0,0.0,0.0,0.0,0.0,0.0,6.5186,6.5462,6.5945,6.629,6.6255,6.6255,6.6255,6.629,0.0,0.0,6.5945,6.5868,6.5903,6.5876,6.5876,6.5876,6.5876,6.5876,6.5876,0.0,0.0,0.0,0.0,0.0,0.0,0.0,0.0,6.6128,6.6091,0.0,6.6091,0.0,0.0,0.0,0.0,6.4902,6.5719,0.0,0.0,6.7317,6.7763,6.8394,6.7725,6.7354,6.728,6.6574,6.6202,6.6128,6.6165,0.0,0.0,0.0,0.0,0.0,0.0,6.6537,6.728,6.8097,6.8543,6.858,6.8543,6.858,6.8617,6.858,6.858,6.8543,6.78,6.7317,6.728,6.5756,0.0,0.0,0.0,0.0,0.0,0.0,0.0,0.0,0.0,0.0,0.0,0.0,0.0,0.0,0.0,0.0,0.0,0.0,0.0,0.0,6.3972,0.0,0.0,0.0,0.0,0.0,0.0,0.0,0.0,0.0,0.0,6.3868,6.5184,6.6026,6.5612,0.0,0.0,0.0,0.0,6.4428,6.4285,6.4512,6.4738,6.4738,6.5393,6.6152,6.6842,0.0,0.0,6.7014,6.7014,6.7049,6.7014,6.7014,6.6807,6.6117,6.6048,6.6014,6.6014,6.6048,6.5979,6.5979,6.6117,6.6048,6.6982,0.0,0.0,0.0,0.0,6.5979,6.6425,6.6982,6.6945,6.6982,6.6982,6.6945,0.0,0.0,0.0,0.0,0.0,0.0,6.7094,6.7354,6.7911,6.8283,6.8506,6.8283,6.8171,6.8171,6.7948,6.7837,6.7837,6.7837,6.7094,6.5756,0.0,0.0,0.0,0.0,6.7094,6.7354,6.8097,6.8803,6.936,6.936,6.9657,7.0215,6.9657,6.936,6.936,6.8617,6.7911,6.7354,6.6871,0.0,0.0,0.0,0.0,0.0,0.0,0.0,0.0,0.0,0.0,0.0,0.0,0.0,0.0,0.0,0.0,0.0,0.0,0.0,6.5547,6.5423,6.5259,0.0,0.0,0.0,0.0,0.0,0.0,0.0,0.0,0.0,6.524,6.5715,6.617,0.0,0.0,6.6717,6.6195,6.604,6.5927,6.5595,6.5544,0.0,6.5566,6.6186,6.6738,6.6945,6.7428,6.7773,6.7773,6.7773,6.7773,6.7773,6.7773,6.7704,6.7532,6.7463,6.7428,6.7463,6.7463,6.7463,6.7463,6.7463,6.7463,6.7948,6.7057,6.7057,6.6871,6.6611,6.6908,6.7354,6.78,6.78,6.78,6.7763,6.7763,6.7503,6.7057,6.7057,0.0,0.0,0.0,6.78,6.78,6.8283,6.8543,6.8543,6.8543,6.8543,6.8543,6.8543,6.8543,6.8543,6.8543,6.8023,6.7094,0.0,0.0,6.6611,6.7057,6.7614,6.8246,6.8729,6.9397,7.0177,7.0177,7.04,7.0883,7.0437,7.0215,7.0177,6.9732,6.91,6.8283,6.7948,6.7168,0.0,0.0,0.0,0.0,0.0,0.0,0.0,0.0,0.0,0.0,0.0,6.0368,6.1375,0.0,0.0,0.0,6.4762,6.586,6.6519,6.6189,0.0,0.0,0.0,0.0,0.0,0.0,0.0,6.5058,6.5604,6.6041,6.6256,6.6547,6.6831,6.7041,6.7043,6.6987,6.6772,0.0,6.6516,6.6145,6.6512,6.6773,6.6773,6.7635,6.8325,6.8325,6.8704,6.8842,6.8601,6.8566,6.8463,6.8187,6.8083,6.8083,6.8083,6.8083,6.8083,6.8083,6.8083,6.8083,6.8083,6.8083,6.8083,6.8543,6.8543,6.8506,6.806,6.7503,6.8208,6.8506,6.8543,6.8506,6.8543,6.8543,6.8543,6.8543,6.8506,6.8543,0.0,6.7428,6.8171,6.8506,6.8543,6.8543,6.8543,6.8543,6.8543,6.8543,6.8543,6.8543,6.8543,6.8543,6.8543,6.8543,6.8506,6.7837,6.7465,6.7428,6.7465,6.8208,6.9694,6.9769,7.0215,7.0995,7.1069,7.1106,7.1143,7.1069,7.1032,7.1032,7.0958,7.0586,6.9806,6.9026,6.8246,6.7391,0.0,0.0,0.0,0.0,0.0,0.0,0.0,0.0,0.0,0.0,0.0,0.0,0.0,0.0,0.0,6.5532,0.0,6.7081,6.6385,0.0,0.0,0.0,6.4447,6.4447,6.4447,6.4794,6.5727,0.0,0.0,6.6961,6.7547,6.7872,6.7671,6.7318,6.7176,6.734,6.7088,6.6681,6.656,6.7437,6.829,6.8325,6.936,7.0153,7.0153,7.0394,7.0049,6.9497,6.936,6.9049,6.8532,6.829,6.8325,6.829,6.8394,6.829,6.8359,6.8187,6.8083,6.8083,6.8083,6.8118,6.8543,6.8543,6.8543,6.8394,6.8246,6.8431,6.8543,6.8543,6.8543,6.8543,6.8543,6.8543,6.8543,6.8543,6.8543,6.8394,6.8246,6.8431,6.8543,6.8543,6.8543,6.8543,6.8543,6.8543,6.8543,6.8543,6.8543,6.8543,6.8543,6.8543,6.8543,6.8543,6.8914,6.884,6.8283,6.884,6.9323,6.9732,7.0326,7.1032,7.1849,7.2481,7.2815,7.2778,7.2184,7.1886,7.1849,7.1255,7.0846,7.0623,6.9843,6.9063,6.8246,6.6815,0.0,0.0,0.0,0.0,0.0,0.0,0.0,0.0,0.0,6.1615,6.2543,0.0,6.4973,0.0,6.5754,6.6295,6.644,6.6271,0.0,0.0,6.5058,6.495,6.495,6.495,6.5274,6.6091,6.674,6.7209,6.7389,6.7887,6.8414,6.8791,6.8663,6.8325,6.7829,6.8543,6.8933,6.8656,6.9267,6.9808,6.9877,7.0118,7.0429,7.0394,7.0394,7.0325,7.0153,7.0153,7.0049,6.9877,6.9842,6.9842,6.9808,6.9842,6.9808,6.9739,6.8911,6.8083,6.8083,6.8118,6.829,6.8543,6.8543,6.8543,6.8543,6.8543,6.8543,6.8543,6.8543,6.8543,6.8543,6.8543,6.8543,6.8543,6.8543,6.8543,6.8543,6.8543,6.8543,6.8543,6.8543,6.8543,6.8543,6.8543,6.8543,6.8543,6.8543,6.8543,6.8543,6.8543,6.8877,6.9063,6.9063,6.9843,7.0029,6.962,7.0029,7.0437,7.0809,7.1589,7.2258,7.2741,7.3484,7.3744,7.341,7.3298,7.3075,7.2741,7.2258,7.1849,7.1478,7.1032,7.0437,6.962,6.8171,6.6611,0.0,0.0,0.0,0.0,0.0,0.0,0.0,0.0,0.0,0.0,0.0,6.5153,6.5216,6.5672,6.5922,6.5887,6.6021,6.594,6.5448,6.5438,6.55,6.55,6.55,6.5787,6.6612,6.7016,6.7346,6.7705,6.8291,6.8877,6.9351,6.9566,6.9492,6.9083,6.9722,7.0174,6.9889,7.0394,7.1015,7.1325,7.1394,7.1394,7.1394,7.1429,7.1291,7.0946,7.0877,7.0774,7.0463,7.0394,7.0394,7.0394,7.0394,7.0394,7.0256,6.9704,6.9187,6.9118,6.9118,6.9291,6.8543,6.8543,6.8543,6.8543,6.8543,6.8543,6.8543,6.8543,6.8543,6.8543,6.8543,6.8543,6.8543,6.8543,6.8543,6.8543,6.8543,6.8543,6.8543,6.8543,6.8543,6.8543,6.8543,6.8543,6.8543,6.8543,6.8617,6.8691,6.8691,6.9472,6.988,6.9917,7.0698,7.1069,7.1069,7.118,7.1663,7.2481,7.3187,7.3595,7.3707,7.4375,7.4413,7.3744,7.4375,7.4413,7.3744,7.3595,7.3224,7.2518,7.2295,7.1849,7.1018,6.9215,6.7961,0.0,6.5612,0.0,0.0,0.0,0.0,0.0,0.0,0.0,0.0,6.4619,6.5212,6.5344,6.5409,6.5409,6.5344,6.551,6.564,6.5675,6.5839,6.5939,6.5939,6.6046,6.6403,6.7118,6.716,6.7349,6.8061,6.8745,6.9318,6.9668,7.0218,7.0552,7.0469,7.0645,7.0742,7.0614,7.1153,7.1843,7.2395,7.2602,7.2602,7.2636,7.2567,7.2429,7.1739,7.1636,7.1463,7.0877,7.0808,7.0774,7.067,7.0705,7.0705,7.0774,7.0739,7.0567,7.0325,7.0256,7.0429,6.8543,6.8543,6.8543,6.8543,6.8543,6.8543,6.8543,6.8543,6.8543,6.8543,6.8543,6.8543,6.8543,6.8543,6.8543,6.8543,6.8543,6.8543,6.8543,6.8543,6.8543,6.8543,6.8543,6.8543,6.8543,6.8543,6.9174,6.9509,6.9509,7.0289,7.0698,7.0735,7.1552,7.1923,7.1961,0.0,0.0,0.0,7.4301,7.4673,7.5304,7.549,7.549,7.5341,7.5453,0.0,7.5304,7.471,7.4301,7.4115,7.2889,0.0,0.0,0.0,0.0,0.0,0.0,0.0,0.0,0.0,0.0,0.0,6.3168,6.3203,6.3447,6.4112,6.4602,6.4602,6.4775,6.4775,6.4602,6.4775,6.4911,6.4946,6.5475,6.5827,6.5862,6.639,6.6953,6.7233,6.7763,6.8257,6.861,6.9564,7.0226,7.0359,7.0985,7.1503,7.1538,7.1561,7.1503,7.1408,7.1912,7.2464,7.2636,7.2671,7.2671,7.2671,7.2671,7.2602,7.2464,7.2395,7.2429,7.2188,7.2222,7.2222,7.2222,7.2222,7.2153,7.2222,7.2222,7.1877,7.067,7.0394,7.0567,6.8543,6.8543,6.8543,6.8543,0.0,6.8543,6.8543,6.8543,6.8543,6.8543,6.8543,6.8543,6.8543,6.8543,6.8543,6.8543,6.8543,6.8543,6.8543,6.8543,6.8543,6.8729,6.91,6.91,6.9323,6.9732,7.0103,7.0326,7.0363,7.1143,7.1552,7.1552,7.2369,7.2778,7.2815,7.3595,7.419,7.4561,7.497,7.5378,7.5787,7.6233,7.6233,7.5824,7.6196,0.0,0.0,0.0,0.0,0.0,0.0,0.0,0.0,7.1453,0.0,6.9427,6.8372,6.7261,6.6084,6.5746,6.5543,6.5128,6.4952,6.4566,6.3834,6.4007,6.4145,6.4145,6.4251,6.4251,6.418,6.4636,6.5022,6.5057,6.5758,6.6284,6.6319,6.6635,6.702,6.7513,6.7864,6.8281,6.9235,6.9823,7.0434,7.1054,7.1549,7.1884,7.2147,7.2216,7.2251,7.2084,7.236,7.2671,7.2671,7.2671,7.2671,7.2671,7.2671,7.2671,7.2671,7.2671,7.2671,7.2671,7.2671,7.2671,7.2671,7.2671,7.2671,7.2671,7.2671,7.2498,7.1636,7.1498,7.1601,6.8951,6.8951,6.8914,6.8914,6.8951,6.8951,6.8914,6.8914,6.8617,0.0,0.0,6.8543,6.8543,6.8543,6.8543,6.858,6.8729,6.8729,6.8803,6.8951,6.8914,6.9286,6.9917,6.9917,7.0289,7.092,7.1069,7.1143,7.118,7.1998,7.2406,7.2444,7.3075,7.3447,7.3632,7.4561,7.5044,7.5044,7.5676,7.6084,7.6233,7.6939,7.6939,7.627,7.6902,7.6976,7.627,7.6084,7.601,7.601,7.5267,7.4677,7.4478,7.2516,7.1208,7.0847,6.9533,6.8449,6.7865,6.7796,6.7517,6.7023,6.6698,6.5955,6.4702,6.4381,6.4235,6.427,6.4235,6.4235,6.427,6.4901,6.5465,6.5465,6.6164,6.6764,6.6799,6.6904,6.7357,6.7985,6.8154,6.8454,6.9853,7.0236,7.0645,7.148,7.1931,7.2126,7.2582,7.2602,7.2602,7.2602,7.2636,7.2671,7.2671,7.2671,7.2671,7.2671,7.2671,7.2671,7.2671,7.2671,7.2671,7.2671,7.2671,7.2671,7.2671,7.2671,7.2671,7.2671,7.2671,7.2671,7.2671,7.2671,7.2602,7.0586,7.0586,7.0586,7.0586,7.0586,7.0586,7.0586,7.0475,6.9137,6.8543,6.8543,6.8543,6.8543,6.8543,6.8543,6.8877,6.9546,6.9546,6.9917,7.0586,7.0586,7.0623,7.0735,7.0735,7.0809,7.0958,7.1663,7.1998,7.2072,7.2815,7.3224,7.3224,7.3335,7.3744,7.4487,7.5936,7.6716,7.6716,7.6865,7.7236,7.7905,7.8053,7.809,7.7942,7.8053,7.8053,7.7942,7.7273,7.6902,7.6865,7.6084,7.5439,7.4953,7.3699,7.2704,7.2235,7.079,6.9598,6.8715,6.847,6.7975,6.7093,6.6698,6.6299,6.5942,6.5717,6.5642,6.5642,6.5572,6.5642,6.5642,6.5711,6.5855,6.5849,6.6512,6.6962,6.7031,6.7549,6.8284,6.9168,6.9341,6.9697,7.061,7.1191,7.1446,7.1862,7.2216,7.2617,7.2602,7.2671,7.2671,7.2671,7.2671,7.2671,7.2671,7.2671,7.2671,7.2671,7.2671,7.2671,7.2671,7.2671,7.2671,7.2671,7.2671,7.2671,7.2671,7.2671,7.2671,7.2671,7.2671,7.2671,7.2671,7.2671,7.2671,7.092,7.092,7.092,7.092,7.092,7.092,7.092,7.0846,7.014,6.9806,6.9806,6.9806,6.9806,6.9806,6.9806,7.0029,7.0363,7.0363,7.0549,7.0883,7.092,7.118,7.1589,7.1589,7.1849,7.2258,7.2629,7.2852,7.2889,7.3224,7.3372,7.341,7.3818,7.4673,7.5899,7.6679,7.731,7.7719,7.7719,7.7905,7.8276,7.8276,7.8276,7.8276,7.8276,7.8276,7.8276,7.7942,7.7719,7.7719,7.6939,7.6236,7.5743,7.4519,7.3588,7.308,7.215,7.1197,7.0133,6.9351,6.8781,6.8322,6.8103,6.7805,6.7585,6.6554,6.5876,6.5876,6.5876,6.5876,6.5911,6.6255,6.6497,6.6497,6.7152,6.7738,6.8187,6.8497,6.9129,6.9865,7.0038,7.0315,7.1203,7.1538,7.1871,7.2216,7.2582,7.2671,7.2671,7.2671,7.2671,7.2671,7.2671,7.2671,7.2671,7.2671,7.2671,7.2671,7.2671,7.2671,7.2671,7.2705,7.2705,7.2671,7.2705,7.2671,7.2705,7.2671,7.2671,7.2671,7.2671,7.2671,7.2671,7.2671,7.2671,7.1478,7.1478,7.1478,7.1478,7.1478,7.1478,7.1478,7.1478,7.1478,7.1478,7.1441,7.1106,7.092,7.092,7.092,7.1032,7.118,7.1218,7.1292,7.1478,7.1478,7.1812,7.2406,7.2444,7.2778,7.3335,7.3372,7.3372,7.341,7.3558,7.3744,7.4004,7.4747,7.5787,7.705,7.7273,7.7682,7.8239,7.8276,7.8276,7.8276,7.8276,7.8276,7.8276,7.8276,7.8276,7.8276,7.8276,7.8276,7.8276,7.7682,7.7088,7.6553,7.5299,7.4324,7.3874,7.315,7.2407,7.1479,7.0441,6.9902,6.9902,6.9753,6.9491,6.9122,6.7877,6.6816,6.6462,6.6428,6.6428,6.6531,6.7083,6.7497,6.7566,6.8187,6.8842,6.9394,6.9532,6.9808,7.0498,7.0636,7.0912,7.1532,7.1774,7.2015,7.2498,7.2671,7.2671,7.2671,7.2671,7.2671,7.2671,7.2671,7.2809,7.2877,7.2981,7.305,7.3119,7.3257,7.3326,7.3291,7.3222,7.3188,7.3291,7.3257,7.3326,7.3222,7.3257,7.3291,7.3326,7.336,7.3291,7.3326,7.3326,7.3015,7.3112,7.3149,7.3075,7.3149,7.3112,7.3112,7.3075,7.3075,7.3149,7.3149,7.2927,7.1589,7.0958,7.092,7.0958,7.1403,7.2035,7.2072,7.2444,7.3038,7.3149,7.3187,7.3224,7.3261,7.3298,7.3372,7.3372,7.341,7.3484,7.4153,7.4858,7.5601,7.6419,7.6902,7.7162,7.7793,7.8202,7.8276,7.8276,7.8276,7.8276,7.8276,7.8276,7.8276,7.8276,7.8276,7.8276,7.8276,7.8276,7.8276,7.8053,7.7694,7.7145,7.5953,7.5001,7.45,7.3438,7.262,7.2186,7.1744,7.1412,7.1482,7.1259,7.0993,7.0723,7.0382,6.9565,6.8335,6.7876,6.7876,6.7945,6.8566,6.898,6.898,6.9601,7.0222,7.0256,7.0291,7.0567,7.1325,7.1394,7.167,7.2291,7.2464,7.2533,7.2636,7.2671,7.2671,7.2671,7.2774,7.2809,7.274,7.2705,7.2999,7.3465,7.3688,7.3912,7.4464,7.4671,7.4533,7.4464,7.4533,7.4705,7.4292,7.4533,7.4499,7.4533,7.4705,7.4602,7.4395,7.443,7.4636,7.4705,7.4568,7.4119,7.3372,7.3372,7.3372,7.3372,7.3372,7.3372,7.3372,7.3372,7.3372,7.3372,7.3298,7.2666,7.2369,7.2406,7.2369,7.2592,7.2889,7.2889,7.3038,7.3372,7.3372,7.3372,7.3372,7.3372,7.3372,7.3372,7.3372,7.3632,7.4153,7.4896,7.5713,7.6493,7.6939,7.731,7.7756,7.8128,7.8276,7.8276,7.8276,7.8276,7.8276,7.8276,7.8276,7.8276,7.8276,7.8276,7.8276,7.8276,7.8276,7.8276,7.8071,7.7747,7.7144,7.6437,7.5768,7.5152,7.3868,7.3077,7.2929,7.2167,7.1693,7.1693,7.1616,7.1462,7.1002,7.0923,7.0486,6.9682,6.9463,6.9463,6.9463,6.9739,6.9946,6.998,7.0222,7.0567,7.1015,7.105,7.1325,7.205,7.2188,7.2291,7.2602,7.2671,7.2671,7.2671,7.2671,7.2671,7.2705,7.305,7.3326,7.3429,7.3705,7.3912,7.3878,7.4205,7.4568,7.4843,7.4912,7.4912,7.4981,7.4912,7.4912,7.4947,7.505,7.5016,7.4843,7.4912,7.4912,7.4981,7.4947,7.4912,7.4912,7.4912,7.4568,7.3372,7.3372,7.3372,7.3372,7.3372,7.3372,7.3372,7.3372,7.3372,7.3372,7.3372,7.3372,7.3372,7.3372,7.3372,7.3372,7.3372,7.3372,7.3372,7.3372,7.3372,7.3372,7.341,7.3632,7.3707,7.3744,7.3967,7.4487,7.523,7.5824,7.6567,7.731,7.7422,7.7719,7.8239,7.8276,7.8276,7.8276,7.8276,7.8388,7.8573,7.8611,7.8536,7.8313,7.8276,7.8276,7.8276,7.8276,7.8276,7.8276,7.8051,7.7629,7.7082,7.6636,7.6036,7.5442,7.4361,7.3708,7.3708,7.2836,7.2325,7.2325,7.2248,7.2092,7.1743,7.1549,7.1388,7.1097,7.1015,7.0912,7.0429,7.0567,7.067,7.0705,7.0843,7.1256,7.1739,7.1808,7.2015,7.2567,7.2602,7.2671,7.2671,7.2671,7.2671,7.2671,7.2671,7.2809,7.2981,7.3429,7.3843,7.4154,7.4774,7.4929,7.4584,7.4825,7.5257,7.5533,7.5671,7.5706,7.5568,7.5568,7.5568,7.5982,7.5671,7.5602,7.5844,7.5706,7.5533,7.5533,7.5533,7.5533,7.5775,7.5602,7.5602,7.3372,7.3372,7.3372,7.3372,7.3372,7.3372,7.3372,7.3372,7.3372,7.3372,7.3372,7.3372,7.3372,7.3372,7.3372,7.3372,7.3372,7.3372,7.3372,7.3372,7.341,7.341,7.3447,7.4153,7.4524,7.4598,7.5156,7.5973,7.6827,7.6976,7.7459,7.8165,7.8165,7.8239,7.8276,7.8276,7.8276,7.8351,7.8388,7.8685,7.9354,7.9428,7.9094,7.8499,7.8351,7.8425,7.8351,7.8313,7.8313,7.8313,7.7953,7.75,7.7056,7.6445,7.5834,7.5297,7.4819,7.4558,7.4446,7.4033,7.3764,7.3834,7.3536,7.3437,7.2986,7.2823,7.2576,7.2533,7.236,7.1877,7.0843,7.1153,7.1429,7.1498,7.2084,7.2464,7.2567,7.2498,7.2602,7.2671,7.2671,7.2671,7.2671,7.2671,7.2671,7.2671,7.2671,7.2912,7.3533,7.3774,7.4223,7.4843,7.5499,7.5997,7.6011,7.5997,7.6361,7.6568,7.6602,7.6913,7.7085,7.712,7.7051,7.6982,7.6809,7.6809,7.7016,7.7051,7.6913,7.6844,7.6775,7.6775,7.6533,7.6947,7.6878,7.3372,7.3372,7.3372,7.3372,7.3372,7.3372,7.3372,7.3372,7.3372,7.3372,7.3372,7.3372,7.3372,7.3372,7.3372,7.3372,7.3372,7.3372,7.3372,7.3447,7.393,7.4153,7.4227,7.497,7.5378,7.5416,7.5639,7.6233,7.7087,7.7608,7.7979,7.8239,7.8276,7.8276,7.8276,7.8276,7.8499,7.9019,7.9056,7.9428,8.0208,8.0282,8.0097,7.9874,7.9837,7.9837,7.9837,7.9316,7.9223,7.9665,7.8795,7.8295,7.8158,7.7413,7.6659,7.6045,7.5751,7.5312,7.4699,7.4364,7.4132,7.401,7.3852,7.3577,7.3334,7.3088,7.2922,7.2755,7.2671,7.2326,7.2084,7.2119,7.2257,7.2291,7.2498,7.2671,7.2671,7.2671,7.2671,7.2671,7.2671,7.2671,7.2671,7.2671,7.2671,7.2705,7.3084,7.3498,7.3878,7.4568,7.5326,7.5706,7.6292,7.6844,7.6789,7.6789,7.6947,7.7051,7.7189,7.712,7.7223,7.7223,7.712,7.7085,7.7223,7.7223,7.7189,7.7189,7.7223,7.7223,7.7223,7.7223,7.7223,7.7223,7.7223,7.3372,7.3372,7.3372,7.3372,7.3372,7.3372,7.3372,7.3372,7.3372,7.3372,7.341,7.3632,7.3781,7.3818,7.4041,7.4153,7.4115,7.3892,7.393,7.419,7.4747,7.497,7.5118,7.5824,7.6233,7.627,7.6493,7.6939,7.7459,7.8016,7.8276,7.8276,7.8276,7.8276,7.8313,7.8536,7.8982,7.9428,7.9725,8.0282,8.1025,8.1137,8.1248,8.1471,8.1508,8.1211,8.0728,8.0171,8.0077,8.0289,7.9547,7.8913,7.8626,7.7918,7.7294,7.683,7.6534,7.6169,7.5407,7.4971,7.4597,7.4326,7.3877,7.3496,7.3334,7.3053,7.2838,7.2755,7.2671,7.2671,7.2671,7.2671,7.2671,7.2671,7.2671,7.2671,7.2671,7.2671,7.2671,7.2671,7.2671,7.2671,7.2705,7.2912,7.305,7.305,7.3671,7.4188,7.4671,7.5326,7.6258,7.6464,7.6844,7.712,7.7065,7.7085,7.7085,7.7189,7.7223,7.7223,7.7223,7.7223,7.7223,7.7223,7.7223,7.7223,7.7223,7.7223,7.7223,7.7223,7.7223,7.7223,7.7223,7.7223,7.7223,7.3372,7.3372,7.3372,7.3372,7.3372,7.3372,7.341,7.3484,7.3447,7.3558,7.3781,7.4264,7.4598,7.471,7.523,7.5676,7.5601,7.5044,7.5044,7.5564,7.575,7.5824,7.5861,7.6679,7.7087,7.7125,7.783,7.8202,7.8202,7.8239,7.8276,7.8276,7.8276,7.8351,7.8351,7.9019,7.9465,7.9837,8.0394,8.1137,8.188,8.1991,8.2288,8.292,8.2994,8.2326,8.0877,8.0765,8.0745,8.0585,8.0014,7.9238,7.8494,7.7947,7.758,7.7544,7.7357,7.7127,7.6753,7.5995,7.5372,7.5028,7.4066,7.3577,7.3508,7.3144,7.2858,7.2755,7.2755,7.2755,7.2755,7.2671,7.2671,7.2671,7.2671,7.2671,7.2671,7.2671,7.2671,7.2671,7.2671,7.2671,7.2843,7.3257,7.3636,7.3878,7.4464,7.5119,7.5637,7.6051,7.6464,7.6947,7.7189,7.7223,7.7223,7.7223,7.7223,7.7223,7.7223,7.7223,7.7223,7.7223,7.7223,7.7223,7.7223,7.7223,7.7223,7.7223,7.7223,7.7223,7.7223,7.7223,7.7223,7.7223,7.7223,7.3372,7.3372,7.3372,7.3372,7.3372,7.3372,7.367,7.419,7.4227,7.4524,7.5007,7.5304,7.5416,7.5453,7.5713,7.6121,7.6642,7.6382,7.6159,7.5973,7.6419,7.6679,7.6827,7.7533,7.7905,7.7942,7.8128,7.8276,7.8276,7.8276,7.8276,7.8276,7.8313,7.8573,7.9056,7.9391,7.9948,8.1137,8.1434,8.1991,8.2734,8.2809,8.2957,8.3143,8.318,8.2883,8.2437,8.188,8.1822,8.2052,8.1082,8.0266,7.9756,7.9379,7.89,7.8401,7.8253,7.7815,7.6965,7.6639,7.634,7.5871,7.5218,7.4704,7.4368,7.3934,7.3559,7.3226,7.3005,7.2922,7.2922,7.2755,7.274,7.2671,7.2671,7.2671,7.2671,7.2671,7.2671,7.2671,7.2671,7.2877,7.3326,7.3774,7.4085,7.4568,7.5257,7.5913,7.612,7.6568,7.6878,7.7223,7.7223,7.7223,7.7223,7.7223,7.7223,7.7223,7.7223,7.7223,7.7223,7.7223,7.7223,7.7223,7.7223,7.7223,7.7223,7.7223,7.7223,7.7223,7.7223,7.7223,7.7223,7.7223,7.7223,7.3372,7.3372,7.3372,7.3558,7.3818,7.3818,7.4301,7.497,7.5044,7.5341,7.575,7.6121,7.627,7.6344,7.6567,7.7013,7.7496,7.7533,7.7236,7.6827,7.7199,7.7533,7.757,7.8016,7.8276,7.8276,7.8276,7.8276,7.8276,7.8276,7.8276,7.8313,7.8573,7.8982,7.9539,8.0134,8.1025,8.1917,8.2251,8.266,8.3069,8.318,8.318,8.318,8.318,8.318,8.3143,8.266,8.2601,8.2658,8.1728,8.0968,8.062,8.0171,7.9685,7.9293,7.9114,7.8746,7.7894,7.7567,7.7196,7.6678,7.6104,7.5589,7.5253,7.49,7.4455,7.4191,7.4038,7.392,7.3871,7.3787,7.3618,7.3533,7.2981,7.274,7.2671,7.2671,7.2843,7.2981,7.3119,7.3464,7.3981,7.4568,7.4774,7.5395,7.6016,7.6533,7.6602,7.6913,7.712,7.7223,7.7223,7.7223,7.7223,7.7223,7.7223,7.7223,7.7223,7.7223,7.7223,7.7223,7.7223,7.7223,7.7223,7.7223,7.7223,7.7223,7.7223,7.7223,7.7223,7.7223,7.7223,7.7223,7.7223,7.341,7.3447,7.3447,7.3967,7.4598,7.4635,7.5118,7.5787,7.5861,7.5936,7.6196,7.6865,7.7162,7.731,7.7756,7.809,7.8276,7.8202,7.8128,7.809,7.8202,7.8165,7.8202,7.8239,7.8276,7.8276,7.8276,7.8276,7.8276,7.8276,7.8313,7.8499,7.9094,7.9576,8.0022,8.1211,8.188,8.2214,8.2809,8.3143,8.318,8.318,8.318,8.318,8.318,8.318,8.318,8.3106,8.3047,8.2745,8.1842,8.116,8.0803,8.0207,7.9899,7.9792,7.9899,7.9558,7.9099,7.8487,7.7974,7.7533,7.6795,7.6034,7.6069,7.5833,7.5645,7.5436,7.5471,7.5373,7.5204,7.5084,7.5033,7.4705,7.3774,7.3119,7.2877,7.2912,7.3291,7.3705,7.3878,7.4154,7.4878,7.5568,7.5913,7.6258,7.6706,7.6982,7.7085,7.7154,7.7223,7.7223,7.7223,7.7223,7.7223,7.7223,7.7223,7.7223,7.7223,7.7223,7.7223,7.7223,7.7223,7.7223,7.7223,7.7223,7.7223,7.7223,7.7223,7.7223,7.7223,7.7223,7.7223,7.7223,7.7223,7.3744,7.4264,7.4264,7.4747,7.5416,7.549,7.5973,7.6679,7.6753,7.705,7.7533,7.7868,7.7942,7.7979,7.8165,7.8276,7.8276,7.8276,7.8276,7.8276,7.8276,7.8276,7.8276,7.8276,7.8276,7.8276,7.8276,7.8276,7.8276,7.8351,7.8611,7.9168,7.9465,8.0171,8.1248,8.1768,8.2288,8.2809,8.3032,8.318,8.318,8.318,8.318,8.318,8.318,8.318,8.318,8.318,8.3001,8.2497,8.1879,8.1196,8.0803,8.0207,7.9899,7.9899,7.9899,7.9743,7.9471,7.9099,7.8751,7.8506,7.7894,7.7517,7.7087,7.6803,7.6524,7.6222,7.5964,7.5868,7.5581,7.5447,7.5275,7.4912,7.4568,7.4292,7.4223,7.4326,7.443,7.4602,7.4636,7.5016,7.5602,7.6016,7.6361,7.6775,7.7051,7.7223,7.7223,7.7223,7.7223,7.7223,7.7223,7.7223,7.7223,7.7223,7.7223,7.7223,7.7223,7.7223,7.7223,7.7223,7.7223,7.7223,7.7223,7.7223,7.7223,7.7223,7.7223,7.7223,7.7223,7.7223,7.7223,7.7223,7.7223,7.4375,7.5081,7.5081,7.5564,7.627,7.6344,7.6827,7.7496,7.7608,7.783,7.8239,7.8276,7.8276,7.8276,7.8276,7.8276,7.8276,7.8276,7.8276,7.8276,7.8276,7.8276,7.8276,7.8276,7.8276,7.8276,7.8313,7.8276,7.8388,7.8611,7.9056,7.9576,8.0208,8.1063,8.1843,8.2363,8.2697,8.3106,8.318,8.318,8.318,8.318,8.318,8.318,8.318,8.318,8.318,8.318,8.3001,8.2471,8.1879,8.1336,8.0876,8.0283,7.9899,7.9899,7.9899,7.9857,7.9586,7.9427,7.9231,7.9069,7.8741,7.8529,7.8178,7.799,7.7626,7.7463,7.7193,7.6908,7.6571,7.6314,7.6088,7.5947,7.5878,7.5602,7.505,7.4843,7.5085,7.5292,7.5464,7.574,7.6464,7.6568,7.6775,7.7085,7.7189,7.7223,7.7223,7.7223,7.7223,7.7223,7.7223,7.7223,7.7223,7.7223,7.7223,7.7223,7.7223,7.7223,7.7223,7.7223,7.7223,7.7223,7.7223,7.7223,7.7223,7.7223,7.7223,7.7223,7.7223,7.7223,7.7223,7.7223,7.7223,7.5193,7.5936,7.5936,7.6419,7.7162,7.7236,7.757,7.8165,7.8202,7.8239,7.8276,7.8276,7.8276,7.8276,7.8276,7.8276,7.8276,7.8276,7.8276,7.8276,7.8276,7.8276,7.8276,7.8276,7.8276,7.8313,7.8351,7.8499,7.8722,7.9242,7.9688,8.0208,8.1323,8.1917,8.2326,8.2809,8.3143,8.318,8.318,8.318,8.318,8.318,8.318,8.318,8.318,8.318,8.318,8.318,8.3061,8.2758,8.1945,8.1368,8.0912,8.0322,7.9977,7.9899,7.9899,7.9822,7.9665,7.9586,7.9507,7.9231,7.9231,7.9231,7.9044,7.8846,7.8612,7.8623,7.8741,7.8112,7.7684,7.7386,7.7051,7.6947,7.7085,7.6499,7.5568,7.5154,7.543,7.6085,7.6223,7.6602,7.6982,7.7223,7.7223,7.7154,7.7223,7.7223,7.7223,7.7223,7.7223,7.7223,7.7223,7.7223,7.7223,7.7223,7.7223,7.7223,7.7223,7.7223,7.7223,7.7223,7.7223,7.7223,7.7223,7.7223,7.7223,7.7223,7.7223,7.7223,7.7223,7.7223,7.7223,7.7223,7.7223,7.6047,7.679,7.679,7.7273,7.7979,7.8053,7.8128,7.8276,7.8276,7.8276,7.8276,7.8276,7.8276,7.8276,7.8276,7.8276,7.8276,7.8276,7.8276,7.8276,7.8276,7.8276,7.8313,7.8388,7.8351,7.8462,7.8982,7.9205,7.9428,8.0022,8.0765,8.1434,8.1731,8.2288,8.2883,8.3032,8.318,8.318,8.318,8.318,8.318,8.318,8.318,8.318,8.318,8.318,8.318,8.318,8.3121,8.2684,8.2011,8.1405,8.0984,8.0322,7.9899,7.9899,7.9899,7.9899,7.9822,7.97,7.9621,7.9507,7.9311,7.9231,7.9231,7.9069,7.887,7.887,7.8741,7.8406,7.7893,7.749,7.7223,7.7223,7.7223,7.7085,7.6775,7.6671,7.674,7.6844,7.6913,7.7051,7.7189,7.7223,7.7223,7.7223,7.7223,7.7223,7.7223,7.7223,7.7223,7.7223,7.7223,7.7223,7.7223,7.7223,7.7223,7.7223,7.7223,7.7223,7.7223,7.7223,7.7223,7.7223,7.7223,7.7223,7.7223,7.7223,7.7223,7.7223,7.7223,7.7223,7.7223,7.7223,7.7223,7.6865,7.7645,7.7645,7.7905,7.8239,7.8276,7.8276,7.8276,7.8276,7.8276,7.8276,7.8276,7.8276,7.8276,7.8276,7.8276,7.8276,7.8276,7.8276,7.8388,7.8648,7.8871,7.8982,7.9168,7.9279,7.9094,7.9688,8.0022,8.0282,8.0877,8.1508,8.2028,8.2326,8.2771,8.3106,8.318,8.318,8.318,8.318,8.318,8.318,8.318,8.318,8.318,8.318,8.318,8.318,8.318,8.3084,8.2745,8.2206,8.161,8.1055,8.0472,8.0054,7.9899,7.9899,7.9899,7.9822,7.9822,7.9743,7.9743,7.9586,7.955,7.9391,7.9231,7.9069,7.8987,7.8657,7.8272,7.7841,7.749,7.7223,7.7223,7.7223,7.7223,7.7223,7.7223,7.7223,7.7223,7.7189,7.7189,7.7223,7.7223,7.7223,7.7223,7.7223,7.7223,7.7223,7.7223,7.7223,7.7223,7.7223,7.7223,7.7223,7.7223,7.7223,7.7223,7.7223,7.7223,7.7223,7.7223,7.7223,7.7223,7.7223,7.7223,7.7223,7.7223,7.7223,7.7223,7.7223,7.7223,7.7223,7.7223,7.7223,7.7682,7.8276,7.8276,7.8276,7.8276,7.8276,7.8276,7.8276,7.8276,7.8276,7.8276,7.8276,7.8276,7.8276,7.8276,7.8276,7.8351,7.8536,7.8611,7.8685,7.9354,7.9614,7.9837,8.032,8.0542,8.0022,8.058,8.0877,8.1137,8.1694,8.2177,8.2326,8.2809,8.3106,8.318,8.318,8.318,8.318,8.318,8.318,8.318,8.318,8.318,8.318,8.318,8.318,8.318,8.318,8.3121,8.2964,8.2434,8.1879,8.1336,8.0658,8.013,7.9899,7.9899,7.9899,7.9899,7.9899,7.9899,7.9899,7.9899,7.9899,7.9743,7.9471,7.9231,7.8987,7.8657,7.8101,7.7754,7.749,7.7313,7.7313,7.7313,7.7223,7.7223,7.7223,7.7223,7.7223,7.7223,7.7223,7.7223,7.7223,7.7223,7.7223,7.7223,7.7223,7.7223,7.7223,7.7223,7.7223,7.7223,7.7223,7.7223,7.7223,7.7223,7.7223,7.7223,7.7223,7.7223,7.7223,7.7223,7.7223,7.7223,7.7223,7.7223,7.7223,7.7223,7.7223,7.7223,7.7223,7.7223,7.7223,7.7292,7.8165,7.8276,7.8276,7.8276,7.8276,7.8276,7.8276,7.8276,7.8276,7.8276,7.8276,7.8276,7.8276,7.8276,7.8276,7.8313,7.8499,7.8945,7.9279,7.9428,8.0097,8.0468,8.0654,8.136,8.162,8.1657,8.1731,8.1768,8.1954,8.2549,8.2809,8.2957,8.3106,8.318,8.318,8.318,8.318,8.318,8.318,8.318,8.318,8.318,8.318,8.318,8.318,8.318,8.318,8.318,8.318,8.3121,8.2659,8.2178,8.161,8.0876,8.0358,7.9977,7.9899,7.9899,7.9899,7.9899,7.9899,7.9899,7.9899,7.9899,7.9822,7.9471,7.9231,7.8906,7.849,7.8015,7.8186,7.7754,7.7667,7.7667,7.7579,7.7525,7.749,7.7313,7.7223,7.7223,7.7223,7.7223,7.7223,7.7223,7.7223,7.7223,7.7223,7.7223,7.7223,7.7223,7.7223,7.7223,7.7223,7.7223,7.7223,7.7223,7.7223,7.7223,7.7223,7.7223,7.7223,7.7223,7.7258,7.743,7.7361,7.7223,7.7223,7.7258,7.7361,7.7465,7.7361,7.7292,7.7603,7.7844,7.7637,7.8276,7.8276,7.8276,7.8276,7.8276,7.8276,7.8276,7.8276,7.8276,7.8276,7.8276,7.8276,7.8276,7.8276,7.8276,7.8499,7.9056,7.9725,8.0097,8.0282,8.0914,8.136,8.1471,8.2214,8.2511,8.2586,8.2586,8.2586,8.266,8.2957,8.318,8.318,8.318,8.318,8.318,8.318,8.318,8.318,8.318,8.318,8.318,8.318,8.318,8.318,8.318,8.318,8.318,8.318,8.318,8.3121,8.2843,8.237,8.1849,8.1266,8.062,8.0207,7.9977,7.9899,7.9899,7.9899,7.9899,7.9899,7.9899,7.9899,7.9822,7.9471,7.9069,7.8741,7.849,7.8101,7.8101,7.7928,7.7841,7.7841,7.7754,7.7613,7.7525,7.7313,7.7223,7.7223,7.7223,7.7223,7.7223,7.7223,7.7223,7.7223,7.7223,7.7223,7.7223,7.7223,7.7223,7.7223,7.7223,7.7223,7.7223,7.7223,7.7223,7.7223,7.7258,7.7258,7.7396,7.7465,7.7672,7.7913,7.7706,7.781,7.7292,7.7327,7.7499,7.7775,7.7913,7.812,7.8327,7.843,7.8396,7.8276,7.8276,7.8276,7.8276,7.8276,7.8276,7.8276,7.8276,7.8276,7.8276,7.8276,7.8313,7.8388,7.8573,7.8833,7.9168,7.9799,8.058,8.0914,8.1137,8.1806,8.2214,8.2437,8.2771,8.3106,8.3032,8.3069,8.318,8.3106,8.318,8.318,8.318,8.318,8.318,8.318,8.318,8.318,8.318,8.318,8.318,8.318,8.318,8.318,8.3254,8.3329,8.3477,8.3514,8.3812,8.3849,8.3715,8.3409,8.288,8.2231,8.1652,8.1056,8.0433,8.0054,7.9899,7.9899,7.9899,7.9899,7.9899,7.9899,7.9899,7.9822,7.9471,7.8987,7.8525,7.8272,7.8272,7.8186,7.8015,7.798,7.798,7.7841,7.7701,7.7579,7.749,7.7223,7.7223,7.7223,7.7223,7.7223,7.7223,7.7223,7.7223,7.7223,7.7223,7.7223,7.7223,7.7223,7.7223,7.7223,7.7223,7.7223,7.7223,7.7223,7.7223,7.7292,7.7327,7.7568,7.781,7.8223,7.8844,7.912,7.9086,7.8258,7.7775,7.8361,7.8741,7.881,7.912,7.9707,7.9948,7.9982,7.8276,7.8276,7.8276,7.8276,7.8276,7.8276,7.8276,7.8276,7.8276,7.8276,7.8276,7.8388,7.8722,7.9354,8.0097,8.0431,8.0765,8.1397,8.1806,8.1954,8.2549,8.292,8.2994,8.3106,8.318,8.318,8.318,8.318,8.318,8.318,8.318,8.318,8.318,8.318,8.318,8.318,8.318,8.318,8.318,8.318,8.3217,8.3217,8.3254,8.344,8.3886,8.4257,8.4332,8.4703,8.5038,8.5038,8.4397,8.3793,8.3263,8.2215,8.1411,8.0767,8.0283,7.9899,7.9899,7.9899,7.9899,7.9899,7.9899,7.9899,7.9743,7.9471,7.915,7.8906,7.8574,7.8441,7.8441,7.8357,7.8357,7.8237,7.8066,7.7928,7.7754,7.7402,7.7223,7.7223,7.7223,7.7223,7.7223,7.7223,7.7223,7.7223,7.7223,7.7223,7.7223,7.7223,7.7223,7.7223,7.7223,7.7223,7.7223,7.7223,7.743,7.7361,7.7637,7.7775,7.8361,7.8913,7.9603,8.0155,8.0431,8.0569,8.0086,7.981,7.981,7.9982,8.0293,8.081,8.1362,8.15,8.1535,7.8276,7.8276,7.8276,7.8276,7.8276,7.8276,7.8276,7.8276,7.8276,7.8276,7.8388,7.8796,7.9391,8.0245,8.1063,8.1434,8.162,8.2251,8.266,8.2623,8.2994,8.318,8.318,8.318,8.318,8.318,8.318,8.318,8.318,8.318,8.318,8.318,8.318,8.318,8.318,8.318,8.318,8.318,8.318,8.318,8.3292,8.3589,8.3886,8.3886,8.4666,8.5,8.5186,8.5335,8.5595,8.5558,8.5089,8.4793,8.423,8.3287,8.234,8.1743,8.0762,8.0166,7.9977,7.9899,7.9899,7.9899,7.9899,7.9857,7.9743,7.9586,7.9311,7.9069,7.8906,7.8823,7.8741,7.8657,7.8574,7.8406,7.8066,7.7928,7.7754,7.7402,7.7223,7.7223,7.7223,7.7223,7.7223,7.7223,7.7223,7.7223,7.7223,7.7223,7.7223,7.7223,7.7223,7.7223,7.7223,7.7223,7.7223,7.7258,7.7741,7.7948,7.8706,7.8982,7.9672,8.0293,8.1017,8.1569,8.1948,8.1948,8.181,8.15,8.119,8.15,8.1914,8.2397,8.2845,8.3018,8.3052,7.8276,7.8276,7.8276,7.8276,7.8276,7.8276,7.8276,7.8313,7.8536,7.8611,7.8871,7.9651,8.0505,8.11,8.1843,8.2288,8.2326,8.292,8.3143,8.318,8.318,8.318,8.318,8.318,8.318,8.318,8.318,8.318,8.318,8.318,8.318,8.318,8.318,8.318,8.318,8.318,8.318,8.318,8.318,8.3329,8.3589,8.4072,8.4443,8.4852,8.5372,8.5892,8.5929,8.6226,8.6301,8.6301,8.6041,8.5633,8.5012,8.4018,8.2934,8.2202,8.1165,8.0582,8.0207,7.9977,7.9899,7.9899,7.9899,7.9822,7.9779,7.9621,7.9542,7.9347,7.915,7.9069,7.8987,7.887,7.8657,7.8406,7.8101,7.7841,7.7579,7.7402,7.7223,7.7223,7.7223,7.7223,7.7223,7.7223,7.7223,7.7223,7.7223,7.7223,7.7223,7.7223,7.7223,7.7223,7.7292,7.7292,7.7361,7.7499,7.7948,7.8741,7.9534,8.0327,8.1086,8.1845,8.2569,8.3052,8.3431,8.3845,8.3983,8.3225,8.2569,8.3087,8.3569,8.3914,8.4259,8.4397,8.4466,7.8276,7.8276,7.8276,7.8276,7.8313,7.8276,7.8313,7.8462,7.9131,7.9465,7.9725,8.0914,8.1657,8.2066,8.2549,8.2994,8.3069,8.318,8.318,8.318,8.318,8.318,8.318,8.318,8.318,8.318,8.318,8.318,8.318,8.318,8.318,8.318,8.318,8.318,8.318,8.318,8.318,8.3217,8.3292,8.3663,8.4072,8.4518,8.4889,8.5558,8.6226,8.6709,8.6747,8.7304,8.7601,8.7564,8.7044,8.6314,8.5571,8.4606,8.3558,8.2501,8.166,8.0984,8.062,8.013,7.9899,7.9899,7.9899,7.9899,7.9822,7.97,7.9621,7.9586,7.9391,7.915,7.9069,7.887,7.8741,7.8322,7.8015,7.7754,7.7579,7.7313,7.7223,7.7223,7.7223,7.7223,7.7223,7.7223,7.7223,7.7223,7.7223,7.7223,7.7223,7.7223,7.7223,7.7258,7.7327,7.7396,7.7568,7.8085,7.9155,8.012,8.0948,8.181,8.2638,8.3397,8.4121,8.4501,8.4915,8.557,8.588,8.4777,8.4225,8.4742,8.5121,8.5121,8.519,8.5259,8.5432,7.8276,7.8276,7.8276,7.8276,7.8313,7.8833,7.9019,7.9168,7.9874,8.058,8.1025,8.1694,8.2288,8.2697,8.292,8.318,8.318,8.318,8.318,8.318,8.318,8.318,8.318,8.318,8.318,8.318,8.318,8.318,8.318,8.318,8.318,8.318,8.318,8.318,8.318,8.318,8.3217,8.3366,8.3663,8.4146,8.4443,8.5483,8.6041,8.6338,8.7155,8.7527,8.7638,8.7898,8.8047,8.801,8.7712,8.6945,8.6103,8.5201,8.4136,8.3006,8.2172,8.1478,8.0984,8.0472,8.0054,7.9899,7.9899,7.9899,7.9899,7.9822,7.9779,7.9743,7.9665,7.9391,7.915,7.9069,7.8906,7.8357,7.7928,7.7754,7.749,7.7313,7.7223,7.7223,7.7223,7.7223,7.7223,7.7223,7.7223,7.7223,7.7223,7.7223,7.7223,7.7258,7.7292,7.7568,7.7706,7.827,7.8454,7.9442,8.0534,8.1431,8.2362,8.3225,8.4087,8.4915,8.557,8.5949,8.5984,8.6087,8.6018,8.5742,8.5604,8.5673,8.5777,8.5915,8.5984,8.5915,8.5742,7.8425,7.8648,7.8648,7.8648,7.8722,7.9242,7.9614,7.9985,8.0728,8.1545,8.2326,8.24,8.2623,8.3069,8.318,8.318,8.318,8.318,8.318,8.318,8.318,8.318,8.318,8.318,8.318,8.318,8.318,8.318,8.318,8.318,8.318,8.318,8.318,8.318,8.318,8.318,8.3292,8.3663,8.3997,8.4778,8.5186,8.6115,8.6969,8.7118,8.775,8.7973,8.7973,8.8084,8.8084,8.7973,8.7712,8.7192,8.6388,8.5547,8.4645,8.3656,8.2748,8.1989,8.1408,8.0694,8.013,7.9899,7.9899,7.9899,7.9899,7.9899,7.9822,7.9899,7.9822,7.9665,7.9231,7.9069,7.8741,7.8151,7.8015,7.7754,7.749,7.7223,7.7223,7.7223,7.7223,7.7223,7.7223,7.7223,7.7223,7.7223,7.7223,7.7223,7.7223,7.7292,7.7396,7.781,7.8292,7.8936,7.9737,8.1,8.2224,8.2776,8.3707,8.4604,8.5432,8.6087,8.6294,8.6191,8.6191,8.6294,8.6191,8.5984,8.6053,8.6225,8.6087,8.5742,8.557,8.5328,8.4984,7.8759,7.9428,7.9465,7.9502,7.9576,7.9502,7.9985,8.0728,8.1583,8.2363,8.2994,8.3032,8.3069,8.318,8.318,8.318,8.318,8.318,8.318,8.318,8.318,8.318,8.318,8.318,8.318,8.318,8.318,8.318,8.318,8.318,8.318,8.3254,8.3329,8.3292,8.3217,8.3217,8.3589,8.4257,8.4406,8.5372,8.6226,8.6784,8.7341,8.775,8.801,8.8084,8.8084,8.8084,8.8047,8.7787,8.7304,8.6635,8.5669,8.5,8.4137,8.3274,8.2942,8.2454,8.1922,8.0876,8.0354,7.9977,7.9899,7.9899,7.9899,7.9899,7.9899,7.9899,7.9743,7.9507,7.9231,7.8987,7.8574,7.8151,7.798,7.7754,7.7402,7.7223,7.7223,7.7223,7.7223,7.7223,7.7223,7.7223,7.7223,7.7223,7.7223,7.7258,7.7292,7.7706,7.7948,7.859,7.9281,8.0415,8.1421,8.2852,8.3914,8.4397,8.4846,8.5535,8.5915,8.6191,8.6294,8.6294,8.6294,8.6294,8.6294,8.6225,8.5984,8.5673,8.5397,8.5121,8.4949,8.4708,8.4294,7.9242,7.9539,8.0059,8.0617,8.11,8.1137,8.1323,8.1657,8.24,8.2957,8.3143,8.318,8.318,8.318,8.318,8.318,8.318,8.318,8.318,8.318,8.318,8.318,8.318,8.318,8.318,8.318,8.318,8.318,8.318,8.318,8.318,8.3254,8.3663,8.3663,8.3514,8.3589,8.422,8.4592,8.5335,8.6301,8.6821,8.7341,8.7787,8.8084,8.8084,8.8084,8.8084,8.8084,8.7861,8.7415,8.6858,8.6226,8.5261,8.4518,8.4332,8.3878,8.3719,8.3308,8.2788,8.1995,8.1163,8.0609,7.9977,7.9935,7.9899,7.9899,7.9899,7.9822,7.9665,7.9427,7.9231,7.9069,7.8657,7.8066,7.7841,7.7632,7.7402,7.7223,7.7223,7.7223,7.7223,7.7223,7.7223,7.7499,7.7534,7.7672,7.7741,7.7568,7.7534,7.843,7.9074,7.9752,8.0548,8.1757,8.3036,8.4127,8.4915,8.5328,8.5604,8.5984,8.626,8.6294,8.6294,8.6294,8.6294,8.6294,8.6087,8.5777,8.5259,8.488,8.4501,8.4363,8.4328,8.3914,8.3397,7.9837,8.0394,8.0914,8.162,8.2288,8.2103,8.2103,8.2437,8.2957,8.318,8.318,8.318,8.318,8.318,8.318,8.318,8.318,8.318,8.318,8.318,8.318,8.318,8.318,8.318,8.318,8.318,8.318,8.318,8.318,8.318,8.3366,8.3737,8.4146,8.4257,8.4257,8.4629,8.5038,8.5483,8.6264,8.6858,8.7304,8.775,8.8047,8.8084,8.8084,8.8084,8.8084,8.7973,8.7712,8.7081,8.6598,8.6152,8.5223,8.4815,8.4815,8.4717,8.4633,8.4284,8.3897,8.3322,8.2576,8.1814,8.0677,8.0012,7.9899,7.9899,7.9899,7.9822,7.9665,7.9427,7.9231,7.8987,7.8574,7.8101,7.7841,7.7632,7.7402,7.7223,7.7223,7.7223,7.7292,7.7292,7.7361,7.7672,7.7913,7.812,7.8327,7.8189,7.8189,7.9189,8.0317,8.1031,8.1827,8.3024,8.4097,8.4988,8.5608,8.6225,8.6294,8.6294,8.6294,8.6294,8.6294,8.6294,8.6294,8.6122,8.5673,8.5225,8.4432,8.3811,8.3362,8.3362,8.3569,8.3225,8.2673,8.0505,8.188,8.2028,8.2437,8.2994,8.24,8.2511,8.3143,8.318,8.318,8.318,8.318,8.318,8.318,8.318,8.318,8.318,8.318,8.318,8.318,8.318,8.318,8.318,8.318,8.318,8.318,8.318,8.318,8.318,8.344,8.3775,8.4332,8.474,8.5038,8.5409,8.5781,8.6078,8.6412,8.6821,8.7341,8.7787,8.801,8.8084,8.8084,8.8084,8.8084,8.8084,8.8047,8.7601,8.7118,8.6747,8.6264,8.5855,8.5595,8.5595,8.5571,8.5547,8.5472,8.5069,8.4572,8.4049,8.3156,8.1705,8.0641,8.012,8.0149,8.0113,7.9815,7.9586,7.9391,7.915,7.8823,7.8406,7.8186,7.7928,7.7667,7.7313,7.7223,7.7223,7.7292,7.7396,7.7499,7.7672,7.7948,7.8948,7.9293,7.9741,8.0327,8.0396,8.0638,8.1603,8.2553,8.3321,8.4294,8.5126,8.5677,8.5884,8.6294,8.6294,8.6294,8.6294,8.6294,8.6294,8.6294,8.6225,8.5846,8.4915,8.4087,8.3293,8.2776,8.2535,8.2569,8.2811,8.25,8.2086,8.0988,8.2028,8.2586,8.2994,8.3143,8.292,8.2994,8.318,8.318,8.318,8.318,8.318,8.318,8.318,8.318,8.318,8.318,8.318,8.318,8.318,8.318,8.318,8.318,8.318,8.318,8.3217,8.3217,8.3292,8.3366,8.3663,8.448,8.5186,8.5632,8.6115,8.6524,8.7044,8.7007,8.7044,8.7378,8.7712,8.7973,8.8084,8.8084,8.8084,8.8084,8.8084,8.8084,8.8084,8.7638,8.6969,8.6821,8.6412,8.5706,8.5632,8.5706,8.6486,8.6796,8.7068,8.6323,8.5881,8.5367,8.4625,8.3407,8.2285,8.1399,8.0876,8.062,8.0321,7.9826,7.9737,7.9575,7.9246,7.8827,7.8605,7.8433,7.8171,7.7906,7.7727,7.7727,7.7741,7.7844,7.8258,7.8396,7.9362,8.0293,8.0638,8.119,8.1983,8.2431,8.2604,8.2914,8.3804,8.446,8.5294,8.5639,8.6156,8.6225,8.6294,8.6294,8.6294,8.6294,8.6294,8.6294,8.6087,8.5673,8.4777,8.3673,8.3018,8.2638,8.2259,8.2017,8.2017,8.1983,8.1879,8.1776,8.1694,8.2474,8.2994,8.318,8.318,8.318,8.318,8.318,8.318,8.318,8.318,8.318,8.318,8.318,8.318,8.318,8.318,8.318,8.318,8.318,8.318,8.318,8.318,8.318,8.318,8.3254,8.3514,8.3775,8.3886,8.448,8.5261,8.6041,8.6672,8.6969,8.7304,8.7638,8.7712,8.7675,8.775,8.8047,8.8084,8.8084,8.8084,8.8084,8.8084,8.8084,8.8084,8.8084,8.7638,8.7081,8.7007,8.6932,8.6375,8.6375,8.6672,8.7378,8.7601,8.765,8.7291,8.6989,8.65,8.5905,8.5348,8.4425,8.319,8.2418,8.1789,8.1227,8.0652,8.0222,8.0023,7.9774,7.9472,7.9077,7.8955,7.8868,7.8603,7.8459,7.8349,7.8327,7.8672,7.9189,7.9879,8.0879,8.1776,8.2362,8.3052,8.3845,8.4156,8.4225,8.4466,8.5082,8.5501,8.6122,8.6294,8.6294,8.6294,8.6294,8.6294,8.6294,8.6294,8.6191,8.6053,8.5535,8.488,8.3949,8.3052,8.2638,8.2259,8.1948,8.1776,8.1845,8.1879,8.1845,8.1776,8.2437,8.3143,8.318,8.318,8.318,8.318,8.318,8.318,8.318,8.318,8.318,8.318,8.318,8.318,8.318,8.318,8.318,8.318,8.318,8.318,8.318,8.318,8.318,8.318,8.3329,8.3552,8.3923,8.4369,8.4778,8.5372,8.6078,8.6858,8.6969,8.7304,8.7861,8.7973,8.7973,8.7973,8.7973,8.8084,8.8084,8.8084,8.8084,8.8084,8.8084,8.8084,8.8084,8.7973,8.775,8.7452,8.7378,8.7527,8.7415,8.7415,8.7824,8.7973,8.8047,8.801,8.7873,8.7672,8.7646,8.7313,8.7157,8.6229,8.5114,8.3585,8.2809,8.2105,8.1417,8.1094,8.0848,8.0598,8.0259,8.0036,7.9862,7.9652,7.9475,7.9415,7.9614,7.9764,8.0293,8.0741,8.1121,8.2086,8.3121,8.3914,8.457,8.5397,8.5501,8.5466,8.5604,8.588,8.6087,8.6294,8.6294,8.6294,8.6294,8.6294,8.6294,8.6087,8.5949,8.5846,8.5777,8.4949,8.4018,8.3431,8.2707,8.2328,8.2052,8.1914,8.1776,8.1776,8.181,8.1914,8.1776,8.2437,8.318,8.318,8.318,8.318,8.318,8.318,8.318,8.318,8.318,8.318,8.318,8.318,8.318,8.318,8.318,8.318,8.318,8.318,8.318,8.318,8.3292,8.3254,8.3366,8.3589,8.3997,8.4443,8.5112,8.5966,8.6486,8.6895,8.7638,8.7712,8.7898,8.8047,8.8084,8.8084,8.8084,8.8084,8.8084,8.8084,8.8084,8.8084,8.8084,8.8084,8.8084,8.8084,8.8084,8.7973,8.7898,8.7935,8.7935,8.7824,8.801,8.8084,8.8084,8.8158,8.8233,8.827,8.8244,8.8255,8.8043,8.7804,8.7423,8.6513,8.49,8.3718,8.3014,8.237,8.2003,8.1709,8.1493,8.1274,8.1015,8.0876,8.0666,8.0488,8.0741,8.0986,8.1353,8.1914,8.2328,8.2638,8.3362,8.4363,8.5087,8.5604,8.6087,8.6018,8.5984,8.5949,8.6122,8.6191,8.6294,8.6294,8.6294,8.6294,8.626,8.6191,8.5915,8.557,8.5087,8.4639,8.388,8.3121,8.2707,8.2362,8.2121,8.1879,8.1948,8.219,8.2362,8.2293,8.2362,8.2052,8.2771,8.318,8.318,8.318,8.318,8.318,8.318,8.318,8.318,8.318,8.318,8.318,8.318,8.318,8.318,8.318,8.318,8.318,8.318,8.318,8.3292,8.3477,8.3552,8.3737,8.4295,8.4778,8.5372,8.6152,8.7118,8.7415,8.7712,8.8047,8.8084,8.8084,8.8084,8.8084,8.8084,8.8084,8.8084,8.8084,8.8084,8.8084,8.8084,8.8084,8.8084,8.8084,8.8084,8.8084,8.8084,8.8084,8.8084,8.8084,8.801,8.8084,8.8084,8.8233,8.8381,8.8641,8.8678,8.8827,8.9013,8.8949,8.9024,8.8942,8.8753,8.7264,8.5953,8.5142,8.3852,8.333,8.3164,8.2913,8.3097,8.3066,8.2981,8.2874,8.2831,8.2917,8.2915,8.2837,8.3362,8.388,8.4225,8.4673,8.5535,8.5639,8.6225,8.626,8.6294,8.6294,8.6294,8.6294,8.6294,8.6294,8.6294,8.6294,8.6294,8.6225,8.6053,8.5397,8.4811,8.4052,8.3397,8.3121,8.2742,8.2293,8.1983,8.2224,8.2293,8.2431,8.2742,8.3052,8.3018,8.3156,8.3431,8.318,8.318,8.318,8.318,8.318,8.318,8.318,8.318,8.318,8.318,8.318,8.318,8.318,8.318,8.318,8.318,8.318,8.318,8.318,8.3254,8.3366,8.3737,8.4146,8.4518,8.5075,8.5781,8.6449,8.7118,8.7898,8.7935,8.7935,8.8084,8.8084,8.8084,8.8084,8.8084,8.8084,8.8084,8.8084,8.8084,8.8084,8.8084,8.8084,8.8084,8.8084,8.8084,8.8084,8.8084,8.8084,8.8195,8.827,8.8418,8.853,8.8641,8.8716,8.8864,8.9198,8.9384,8.9533,8.9904,9.0127,9.035,9.0499,9.037,9.0136,8.9362,8.7996,8.697,8.5729,8.486,8.4694,8.4513,8.4733,8.4844,8.4758,8.4773,8.4739,8.4785,8.4569,8.4253,8.4639,8.5225,8.5535,8.5984,8.6122,8.626,8.6294,8.6294,8.6294,8.6294,8.6294,8.6294,8.6294,8.6294,8.6294,8.626,8.6225,8.588,8.5604,8.4811,8.4052,8.3293,8.288,8.2949,8.2569,8.2397,8.2742,8.3059,8.3059,8.3328,8.388,8.4432,8.4604,8.4846,8.5432,8.318,8.318,8.318,8.318,8.318,8.318,8.318,8.318,8.318,8.318,8.318,8.318,8.318,8.318,8.318,8.318,8.318,8.318,8.318,8.3217,8.3737,8.4146,8.4703,8.5409,8.5892,8.6561,8.7304,8.7861,8.8084,8.8084,8.8084,8.8084,8.8084,8.8084,8.8084,8.8084,8.8084,8.8084,8.8084,8.8084,8.8084,8.8084,8.8084,8.8084,8.8084,8.8084,8.8084,8.8084,8.8084,8.827,8.8678,8.8976,8.9198,8.9459,8.9644,8.9719,9.0053,9.0202,9.0424,9.0685,9.0907,9.087,9.0907,9.0833,9.0601,9.0365,8.9375,8.8947,8.7838,8.6864,8.6418,8.6047,8.6091,8.5922,8.5834,8.5862,8.5916,8.5785,8.5602,8.5589,8.5807,8.6014,8.5984,8.6225,8.6225,8.6294,8.6294,8.6294,8.6294,8.6294,8.6294,8.626,8.6225,8.6294,8.6294,8.6156,8.6018,8.5639,8.5121,8.4328,8.3466,8.2535,8.2293,8.2914,8.3183,8.3114,8.3466,8.4127,8.4575,8.4816,8.5466,8.5915,8.6156,8.6467,8.6984]},{"header":{"parameterUnit":"m.s-1","parameterCategory":1,"la1":31.0,"la2":29.5877,"lo1":-88.7671,"lo2":-86.6584,"dy":0.0162,"dx":0.0185,"nx":115,"ny":88,"refTime":"2024-03-24T18:00:00:Z","depth":0,"parameterNumber":3,"parameterNumberName":"V-component_of_WINDS"},"data":[0.0,0.0,0.0,0.0,0.0,0.0,0.0,0.0,0.0,0.0,0.0,0.0,0.0,0.0,0.0,0.0,0.0,0.0,0.0,0.0,0.0,0.0,0.0,0.0,0.0,0.0,0.0,0.0,0.0,0.0,0.0,0.0,0.0,0.0,0.0,0.0,0.0,0.0,0.0,0.0,0.0,0.0,0.0,0.0,0.0,0.0,0.0,0.0,0.0,0.0,0.0,0.0,0.0,0.0,0.0,0.0,0.0,0.0,0.0,0.0,0.0,0.0,0.0,0.0,0.0,0.0,0.0,0.0,0.0,0.0,0.0,0.0,0.0,0.0,0.0,0.0,0.0,0.0,0.0,0.0,0.0,0.0,0.0,0.0,0.0,0.0,0.0,0.0,0.0,0.0,0.0,0.0,0.0,0.0,0.0,0.0,0.0,0.0,0.0,0.0,0.0,0.0,0.0,0.0,0.0,0.0,0.0,0.0,0.0,0.0,0.0,0.0,0.0,0.0,0.0,0.0,0.0,0.0,0.0,0.0,0.0,0.0,0.0,0.0,0.0,0.0,0.0,0.0,0.0,0.0,0.0,0.0,0.0,0.0,0.0,0.0,0.0,0.0,0.0,0.0,0.0,0.0,0.0,0.0,0.0,0.0,0.0,0.0,0.0,0.0,0.0,0.0,0.0,0.0,0.0,0.0,0.0,0.0,0.0,0.0,0.0,0.0,0.0,0.0,0.0,0.0,0.0,0.0,0.0,0.0,0.0,0.0,0.0,0.0,0.0,0.0,0.0,0.0,0.0,0.0,0.0,0.0,0.0,0.0,0.0,0.0,0.0,0.0,0.0,0.0,0.0,0.0,0.0,0.0,0.0,0.0,0.0,0.0,0.0,0.0,0.0,0.0,0.0,0.0,0.0,0.0,0.0,0.0,0.0,0.0,0.0,0.0,0.0,0.0,0.0,0.0,0.0,0.0,0.0,0.0,0.0,0.0,0.0,0.0,0.0,0.0,0.0,0.0,0.0,0.0,0.0,0.0,0.0,0.0,0.0,0.0,0.0,0.0,0.0,0.0,0.0,0.0,0.0,0.0,0.0,0.0,0.0,0.0,0.0,0.0,0.0,0.0,0.0,0.0,0.0,0.0,0.0,0.0,0.0,0.0,0.0,0.0,0.0,0.0,0.0,0.0,0.0,0.0,0.0,0.0,0.0,0.0,0.0,0.0,0.0,0.0,0.0,0.0,0.0,0.0,0.0,0.0,0.0,0.0,0.0,0.0,0.0,0.0,0.0,0.0,0.0,0.0,0.0,0.0,0.0,0.0,0.0,0.0,0.0,0.0,0.0,0.0,0.0,0.0,0.0,0.0,0.0,0.0,0.0,0.0,0.0,0.0,0.0,0.0,0.0,0.0,0.0,0.0,0.0,0.0,0.0,0.0,0.0,0.0,0.0,0.0,0.0,0.0,0.0,0.0,0.0,0.0,0.0,0.0,0.0,0.0,0.0,0.0,0.0,0.0,0.0,0.0,0.0,0.0,0.0,0.0,0.0,0.0,0.0,0.0,0.0,0.0,0.0,0.0,0.0,0.0,0.0,0.0,0.0,0.0,0.0,0.0,0.0,0.0,0.0,0.0,0.0,0.0,0.0,0.0,0.0,0.0,0.0,0.0,0.0,0.0,0.0,0.0,0.0,0.0,0.0,0.0,0.0,0.0,0.0,0.0,0.0,0.0,0.0,0.0,0.0,0.0,0.0,0.0,0.0,0.0,0.0,0.0,0.0,0.0,0.0,0.0,0.0,0.0,0.0,0.0,0.0,0.0,0.0,0.0,0.0,0.0,0.0,0.0,0.0,0.0,0.0,0.0,0.0,0.0,0.0,0.0,0.0,0.0,0.0,0.0,0.0,0.0,0.0,0.0,0.0,0.0,0.0,0.0,0.0,0.0,0.0,0.0,0.0,0.0,0.0,0.0,0.0,0.0,0.0,0.0,0.0,0.0,0.0,0.0,0.0,0.0,0.0,0.0,0.0,0.0,0.0,0.0,0.0,0.0,0.0,0.0,0.0,0.0,0.0,0.0,0.0,0.0,0.0,0.0,0.0,0.0,0.0,0.0,0.0,0.0,0.0,0.0,0.0,0.0,0.0,0.0,0.0,0.0,0.0,0.0,0.0,0.0,0.0,0.0,0.0,0.0,0.0,0.0,0.0,0.0,0.0,0.0,0.0,0.0,0.0,0.0,0.0,0.0,0.0,0.0,0.0,0.0,0.0,0.0,0.0,0.0,0.0,0.0,0.0,0.0,0.0,0.0,0.0,0.0,0.0,0.0,0.0,0.0,0.0,0.0,0.0,0.0,0.0,0.0,0.0,0.0,0.0,0.0,0.0,0.0,0.0,0.0,0.0,0.0,0.0,0.0,0.0,0.0,0.0,0.0,0.0,0.0,0.0,0.0,0.0,0.0,0.0,0.0,0.0,0.0,0.0,0.0,0.0,0.0,0.0,0.0,0.0,0.0,0.0,0.0,0.0,0.0,0.0,0.0,0.0,0.0,0.0,0.0,0.0,0.0,0.0,0.0,0.0,0.0,0.0,0.0,0.0,0.0,0.0,0.0,0.0,0.0,0.0,0.0,0.0,0.0,0.0,0.0,0.0,0.0,0.0,0.0,0.0,0.0,0.0,0.0,0.0,0.0,0.0,0.0,0.0,0.0,0.0,0.0,0.0,0.0,0.0,0.0,0.0,0.0,0.0,0.0,0.0,0.0,0.0,0.0,0.0,0.0,0.0,0.0,0.0,0.0,0.0,0.0,0.0,0.0,0.0,0.0,0.0,0.0,0.0,0.0,0.0,0.0,0.0,0.0,0.0,0.0,0.0,0.0,0.0,0.0,0.0,0.0,0.0,0.0,0.0,0.0,0.0,0.0,0.0,0.0,0.0,0.0,0.0,0.0,0.0,0.0,0.0,0.0,0.0,0.0,0.0,0.0,0.0,0.0,0.0,0.0,0.0,0.0,0.0,0.0,0.0,0.0,0.0,0.0,0.0,0.0,0.0,0.0,0.0,0.0,0.0,0.0,0.0,0.0,0.0,0.0,0.0,0.0,0.0,0.0,0.0,0.0,0.0,0.0,0.0,0.0,0.0,0.0,0.0,0.0,0.0,0.0,0.0,0.0,0.0,0.0,0.0,0.0,0.0,0.0,0.0,0.0,0.0,0.0,0.0,0.0,0.0,0.0,0.0,0.0,0.0,0.0,0.0,0.0,0.0,0.0,0.0,0.0,0.0,0.0,0.0,0.0,0.0,0.0,0.0,0.0,0.0,0.0,0.0,0.0,0.0,0.0,0.0,0.0,0.0,0.0,0.0,0.0,0.0,0.0,0.0,0.0,0.0,0.0,0.0,0.0,0.0,0.0,0.0,0.0,0.0,0.0,0.0,0.0,0.0,0.0,0.0,0.0,0.0,0.0,0.0,0.0,0.0,0.0,0.0,0.0,0.0,0.0,0.0,0.0,0.0,0.0,0.0,0.0,0.0,0.0,0.0,0.0,0.0,0.0,0.0,0.0,0.0,0.0,0.0,0.0,0.0,0.0,0.0,0.0,0.0,0.0,0.0,0.0,0.0,0.0,0.0,0.0,0.0,0.0,0.0,0.0,0.0,0.0,0.0,0.0,0.0,0.0,0.0,0.0,0.0,0.0,0.0,0.0,0.0,0.0,0.0,0.0,0.0,0.0,0.0,0.0,0.0,0.0,0.0,0.0,0.0,0.0,0.0,0.0,0.0,0.0,0.0,0.0,0.0,0.0,0.0,0.0,0.0,0.0,0.0,0.0,0.0,0.0,0.0,0.0,0.0,0.0,0.0,0.0,0.0,0.0,0.0,0.0,0.0,0.0,0.0,0.0,0.0,0.0,0.0,0.0,0.0,0.0,0.0,0.0,0.0,0.0,0.0,0.0,0.0,0.0,0.0,0.0,0.0,0.0,0.0,0.0,0.0,0.0,0.0,0.0,0.0,0.0,0.0,0.0,0.0,0.0,0.0,0.0,0.0,0.0,0.0,0.0,0.0,0.0,0.0,0.0,0.0,0.0,0.0,0.0,0.0,0.0,0.0,0.0,0.0,0.0,0.0,0.0,0.0,0.0,0.0,0.0,0.0,0.0,0.0,0.0,0.0,0.0,0.0,0.0,0.0,0.0,0.0,0.0,0.0,0.0,0.0,0.0,0.0,0.0,0.0,0.0,0.0,0.0,0.0,0.0,0.0,0.0,0.0,0.0,0.0,0.0,0.0,0.0,0.0,0.0,-1.9072,0.0,0.0,0.0,0.0,0.0,0.0,0.0,0.0,0.0,0.0,0.0,0.0,0.0,0.0,0.0,0.0,0.0,0.0,0.0,0.0,0.0,0.0,0.0,0.0,0.0,0.0,0.0,0.0,0.0,0.0,0.0,0.0,0.0,0.0,0.0,0.0,0.0,0.0,0.0,0.0,0.0,0.0,0.0,0.0,0.0,0.0,0.0,0.0,0.0,0.0,0.0,0.0,0.0,0.0,0.0,0.0,0.0,0.0,0.0,0.0,0.0,0.0,0.0,0.0,0.0,0.0,0.0,0.0,0.0,0.0,0.0,0.0,0.0,0.0,0.0,0.0,0.0,0.0,0.0,0.0,0.0,0.0,0.0,0.0,0.0,0.0,0.0,0.0,0.0,0.0,0.0,0.0,0.0,0.0,0.0,0.0,0.0,0.0,0.0,0.0,0.0,0.0,0.0,0.0,0.0,0.0,0.0,0.0,0.0,0.0,-1.9072,-1.9072,-1.9072,-1.9072,-1.9072,0.0,0.0,0.0,0.0,0.0,0.0,0.0,0.0,0.0,0.0,0.0,0.0,0.0,0.0,0.0,0.0,0.0,0.0,0.0,0.0,0.0,0.0,0.0,0.0,0.0,0.0,0.0,0.0,0.0,0.0,0.0,0.0,0.0,0.0,0.0,0.0,0.0,0.0,0.0,0.0,0.0,0.0,0.0,0.0,0.0,0.0,0.0,0.0,0.0,0.0,0.0,0.0,0.0,0.0,0.0,0.0,0.0,0.0,0.0,0.0,0.0,0.0,0.0,0.0,0.0,0.0,0.0,0.0,0.0,0.0,0.0,0.0,0.0,0.0,0.0,0.0,0.0,0.0,0.0,0.0,0.0,0.0,0.0,0.0,0.0,0.0,0.0,0.0,0.0,0.0,0.0,0.0,0.0,0.0,0.0,0.0,0.0,0.0,0.0,0.0,0.0,0.0,0.0,0.0,0.0,0.0,0.0,0.0,0.0,0.0,0.0,0.0,-1.9072,-1.9072,-1.9072,0.0,0.0,0.0,0.0,0.0,0.0,0.0,0.0,0.0,0.0,0.0,0.0,0.0,0.0,0.0,0.0,0.0,0.0,0.0,0.0,0.0,0.0,0.0,0.0,0.0,0.0,0.0,0.0,0.0,0.0,0.0,0.0,0.0,0.0,0.0,0.0,0.0,0.0,0.0,0.0,0.0,0.0,0.0,0.0,0.0,0.0,0.0,0.0,0.0,0.0,0.0,0.0,0.0,0.0,0.0,0.0,0.0,0.0,0.0,0.0,0.0,0.0,0.0,0.0,0.0,0.0,0.0,0.0,0.0,0.0,0.0,0.0,0.0,0.0,0.0,0.0,0.0,0.0,0.0,0.0,0.0,0.0,0.0,0.0,0.0,0.0,0.0,0.0,0.0,0.0,0.0,0.0,0.0,0.0,0.0,0.0,0.0,0.0,0.0,0.0,0.0,0.0,0.0,0.0,0.0,0.0,0.0,0.0,0.0,0.0,-1.9072,-1.9072,-1.9072,0.0,-1.9072,0.0,0.0,0.0,0.0,0.0,0.0,0.0,0.0,0.0,0.0,0.0,0.0,0.0,0.0,0.0,0.0,0.0,0.0,0.0,0.0,0.0,0.0,0.0,0.0,0.0,0.0,0.0,0.0,0.0,0.0,0.0,0.0,0.0,0.0,0.0,0.0,0.0,0.0,0.0,0.0,0.0,0.0,0.0,0.0,0.0,0.0,0.0,0.0,0.0,0.0,0.0,0.0,0.0,0.0,0.0,0.0,0.0,0.0,0.0,0.0,0.0,0.0,0.0,0.0,0.0,0.0,0.0,0.0,0.0,0.0,0.0,0.0,0.0,0.0,0.0,0.0,0.0,0.0,0.0,0.0,0.0,0.0,0.0,0.0,0.0,0.0,0.0,0.0,0.0,0.0,0.0,0.0,0.0,0.0,0.0,0.0,0.0,0.0,0.0,0.0,0.0,0.0,0.0,0.0,0.0,0.0,0.0,0.0,0.0,0.0,-1.9072,-1.9072,-1.9072,-1.9072,0.0,0.0,0.0,0.0,0.0,0.0,0.0,0.0,0.0,0.0,0.0,0.0,0.0,0.0,0.0,0.0,0.0,0.0,0.0,0.0,0.0,0.0,0.0,0.0,0.0,0.0,0.0,0.0,0.0,0.0,0.0,0.0,0.0,0.0,0.0,0.0,0.0,0.0,0.0,0.0,0.0,0.0,0.0,0.0,0.0,0.0,0.0,0.0,0.0,0.0,0.0,0.0,0.0,0.0,0.0,0.0,0.0,0.0,0.0,0.0,0.0,0.0,0.0,0.0,0.0,0.0,0.0,0.0,0.0,0.0,0.0,0.0,0.0,0.0,0.0,0.0,0.0,0.0,0.0,0.0,0.0,0.0,0.0,0.0,0.0,0.0,0.0,0.0,0.0,0.0,0.0,0.0,0.0,0.0,0.0,0.0,0.0,0.0,0.0,0.0,0.0,0.0,0.0,0.0,0.0,0.0,0.0,0.0,0.0,0.0,-1.9072,-1.9072,-1.9072,-1.9072,-1.9072,-1.9072,0.0,0.0,0.0,0.0,0.0,0.0,0.0,0.0,0.0,0.0,0.0,0.0,0.0,0.0,0.0,0.0,0.0,0.0,0.0,0.0,0.0,0.0,0.0,0.0,0.0,0.0,0.0,0.0,0.0,0.0,0.0,0.0,0.0,0.0,0.0,0.0,0.0,0.0,0.0,0.0,0.0,0.0,0.0,0.0,0.0,0.0,0.0,0.0,0.0,0.0,0.0,0.0,0.0,0.0,0.0,0.0,0.0,0.0,0.0,0.0,0.0,0.0,0.0,0.0,0.0,0.0,0.0,0.0,0.0,0.0,0.0,0.0,0.0,0.0,0.0,0.0,0.0,0.0,0.0,0.0,0.0,0.0,0.0,0.0,0.0,0.0,0.0,0.0,0.0,0.0,0.0,0.0,0.0,0.0,0.0,0.0,0.0,0.0,0.0,0.0,0.0,0.0,0.0,0.0,0.0,0.0,0.0,0.0,-1.9072,-1.9072,-1.9072,-1.9072,-1.9072,-1.9072,0.0,0.0,0.0,0.0,0.0,0.0,0.0,0.0,0.0,0.0,0.0,0.0,0.0,0.0,0.0,0.0,0.0,0.0,0.0,0.0,0.0,0.0,0.0,0.0,0.0,0.0,0.0,0.0,0.0,0.0,0.0,0.0,0.0,0.0,0.0,0.0,0.0,0.0,0.0,0.0,0.0,0.0,0.0,0.0,0.0,0.0,0.0,0.0,0.0,0.0,0.0,0.0,0.0,0.0,0.0,0.0,0.0,0.0,0.0,0.0,0.0,0.0,0.0,0.0,0.0,0.0,0.0,0.0,0.0,0.0,0.0,0.0,0.0,0.0,0.0,0.0,0.0,0.0,0.0,0.0,0.0,0.0,0.0,0.0,0.0,0.0,0.0,0.0,0.0,0.0,0.0,0.0,0.0,0.0,0.0,0.0,0.0,0.0,0.0,0.0,0.0,0.0,0.0,0.0,0.0,0.0,0.0,0.0,0.0,-1.9072,-1.9072,-1.9072,-1.9072,-1.9072,-1.9072,0.0,0.0,0.0,0.0,0.0,0.0,0.0,0.0,0.0,0.0,0.0,0.0,0.0,0.0,0.0,0.0,0.0,0.0,0.0,0.0,0.0,0.0,0.0,0.0,0.0,0.0,0.0,0.0,0.0,0.0,0.0,0.0,0.0,0.0,0.0,0.0,0.0,0.0,0.0,0.0,0.0,0.0,0.0,0.0,0.0,0.0,0.0,0.0,0.0,0.0,0.0,0.0,0.0,0.0,0.0,0.0,0.0,0.0,0.0,0.0,0.0,0.0,0.0,0.0,0.0,0.0,0.0,0.0,0.0,0.0,0.0,0.0,0.0,0.0,0.0,0.0,0.0,0.0,0.0,0.0,0.0,0.0,0.0,0.0,0.0,0.0,0.0,0.0,0.0,0.0,0.0,0.0,0.0,0.0,0.0,0.0,0.0,0.0,0.0,0.0,0.0,0.0,0.0,0.0,0.0,0.0,0.0,0.0,0.0,-1.9072,0.0,-1.9072,-1.9072,-1.9072,-1.9072,0.0,0.0,0.0,0.0,0.0,0.0,0.0,0.0,0.0,0.0,0.0,0.0,0.0,0.0,0.0,0.0,0.0,0.0,0.0,0.0,0.0,0.0,0.0,0.0,0.0,0.0,0.0,0.0,0.0,0.0,0.0,0.0,0.0,0.0,0.0,0.0,0.0,0.0,0.0,0.0,0.0,0.0,0.0,0.0,0.0,0.0,0.0,0.0,0.0,0.0,0.0,0.0,0.0,0.0,0.0,0.0,0.0,0.0,0.0,0.0,0.0,0.0,0.0,0.0,0.0,0.0,0.0,0.0,0.0,0.0,0.0,0.0,0.0,0.0,0.0,0.0,0.0,0.0,0.0,0.0,0.0,0.0,0.0,0.0,0.0,0.0,0.0,0.0,0.0,0.0,0.0,0.0,0.0,0.0,0.0,0.0,0.0,0.0,0.0,0.0,0.0,0.0,0.0,0.0,0.0,0.0,0.0,0.0,-1.9084,-1.9084,-1.9096,-1.9108,-1.9084,-1.9096,-1.9084,0.0,0.0,0.0,0.0,0.0,0.0,0.0,0.0,0.0,0.0,0.0,0.0,0.0,0.0,0.0,0.0,0.0,0.0,0.0,0.0,0.0,0.0,0.0,0.0,0.0,0.0,0.0,0.0,0.0,0.0,0.0,0.0,0.0,0.0,0.0,0.0,0.0,0.0,0.0,0.0,0.0,0.0,0.0,0.0,0.0,0.0,0.0,0.0,0.0,0.0,0.0,0.0,0.0,0.0,0.0,0.0,0.0,0.0,0.0,0.0,0.0,0.0,0.0,0.0,0.0,0.0,0.0,0.0,0.0,0.0,0.0,0.0,0.0,0.0,0.0,0.0,0.0,0.0,0.0,0.0,0.0,0.0,0.0,0.0,0.0,0.0,0.0,0.0,0.0,0.0,0.0,0.0,0.0,0.0,0.0,0.0,0.0,0.0,0.0,0.0,0.0,0.0,0.0,0.0,0.0,0.0,0.0,0.0,0.0,-1.935,-1.9531,-1.9639,-1.9627,-1.9446,-1.935,0.0,0.0,0.0,0.0,0.0,0.0,0.0,0.0,0.0,0.0,0.0,0.0,0.0,0.0,0.0,0.0,0.0,0.0,0.0,0.0,0.0,0.0,0.0,0.0,0.0,0.0,0.0,0.0,0.0,0.0,0.0,0.0,0.0,0.0,0.0,0.0,0.0,0.0,0.0,0.0,0.0,0.0,0.0,0.0,0.0,0.0,0.0,0.0,0.0,0.0,0.0,0.0,0.0,0.0,0.0,0.0,0.0,0.0,0.0,0.0,0.0,0.0,0.0,0.0,0.0,0.0,0.0,0.0,0.0,0.0,0.0,0.0,0.0,0.0,0.0,0.0,0.0,0.0,0.0,0.0,0.0,0.0,0.0,0.0,0.0,0.0,0.0,0.0,0.0,0.0,0.0,0.0,0.0,0.0,0.0,0.0,0.0,0.0,0.0,0.0,0.0,0.0,0.0,0.0,0.0,0.0,0.0,0.0,0.0,-1.9917,-1.9989,-2.0026,-2.0026,-1.9857,-1.9676,-1.947,0.0,0.0,0.0,0.0,0.0,0.0,0.0,0.0,0.0,0.0,0.0,0.0,0.0,0.0,0.0,0.0,0.0,0.0,0.0,0.0,0.0,0.0,0.0,0.0,0.0,0.0,0.0,0.0,0.0,0.0,0.0,0.0,0.0,0.0,0.0,0.0,0.0,0.0,0.0,0.0,0.0,0.0,0.0,0.0,0.0,0.0,0.0,0.0,0.0,0.0,0.0,0.0,0.0,0.0,0.0,0.0,0.0,0.0,0.0,0.0,0.0,0.0,0.0,0.0,0.0,0.0,0.0,0.0,0.0,0.0,0.0,0.0,0.0,0.0,0.0,0.0,0.0,0.0,0.0,0.0,0.0,0.0,0.0,0.0,0.0,0.0,0.0,0.0,0.0,0.0,0.0,0.0,0.0,0.0,0.0,0.0,0.0,0.0,0.0,0.0,0.0,0.0,0.0,0.0,0.0,0.0,0.0,0.0,-2.0714,-2.0484,-2.0364,-2.0352,-2.0315,-2.0062,0.0,0.0,0.0,0.0,0.0,0.0,0.0,0.0,0.0,0.0,0.0,0.0,0.0,0.0,0.0,0.0,0.0,0.0,0.0,0.0,0.0,0.0,0.0,0.0,0.0,0.0,0.0,0.0,0.0,0.0,0.0,0.0,0.0,0.0,0.0,0.0,0.0,0.0,0.0,0.0,0.0,0.0,0.0,0.0,0.0,0.0,0.0,0.0,0.0,0.0,0.0,0.0,0.0,0.0,0.0,0.0,0.0,0.0,0.0,0.0,0.0,0.0,0.0,0.0,0.0,0.0,0.0,0.0,0.0,0.0,0.0,0.0,0.0,0.0,0.0,0.0,0.0,0.0,0.0,0.0,0.0,0.0,0.0,0.0,0.0,0.0,0.0,0.0,0.0,0.0,0.0,0.0,0.0,0.0,0.0,0.0,0.0,0.0,0.0,0.0,0.0,0.0,0.0,0.0,0.0,0.0,0.0,0.0,0.0,-2.1257,-2.139,-2.1366,-2.116,-2.0774,-2.0496,0.0,0.0,0.0,0.0,0.0,0.0,0.0,0.0,0.0,0.0,0.0,0.0,0.0,0.0,0.0,0.0,0.0,0.0,0.0,0.0,0.0,0.0,0.0,0.0,0.0,0.0,0.0,0.0,0.0,0.0,0.0,0.0,0.0,0.0,0.0,0.0,0.0,0.0,0.0,0.0,0.0,0.0,0.0,0.0,0.0,0.0,0.0,0.0,0.0,0.0,0.0,0.0,0.0,0.0,0.0,0.0,0.0,0.0,0.0,0.0,0.0,0.0,0.0,0.0,0.0,0.0,0.0,0.0,0.0,0.0,0.0,0.0,0.0,0.0,0.0,0.0,0.0,0.0,0.0,0.0,0.0,0.0,0.0,0.0,0.0,0.0,0.0,0.0,0.0,0.0,0.0,0.0,0.0,0.0,0.0,0.0,0.0,0.0,0.0,0.0,0.0,0.0,0.0,0.0,0.0,0.0,0.0,0.0,-2.116,-2.1474,-2.1848,-2.1969,-2.1812,-2.1293,-2.0895,0.0,0.0,0.0,0.0,0.0,0.0,0.0,0.0,0.0,0.0,0.0,0.0,0.0,0.0,0.0,0.0,0.0,0.0,0.0,0.0,0.0,0.0,0.0,0.0,0.0,0.0,0.0,0.0,0.0,0.0,0.0,0.0,0.0,0.0,0.0,0.0,0.0,0.0,0.0,0.0,0.0,0.0,0.0,0.0,0.0,0.0,0.0,0.0,0.0,0.0,0.0,0.0,0.0,0.0,0.0,0.0,0.0,0.0,0.0,0.0,0.0,0.0,0.0,0.0,0.0,0.0,0.0,0.0,0.0,0.0,0.0,0.0,0.0,0.0,0.0,0.0,0.0,0.0,0.0,0.0,0.0,0.0,0.0,0.0,0.0,0.0,0.0,0.0,0.0,0.0,0.0,0.0,0.0,0.0,0.0,0.0,0.0,0.0,0.0,0.0,0.0,0.0,0.0,0.0,0.0,0.0,0.0,0.0,-2.1486,-2.1523,-2.2005,-2.2271,-2.2247,-2.1752,-2.1257,0.0,0.0,0.0,0.0,0.0,0.0,0.0,0.0,0.0,0.0,0.0,0.0,0.0,0.0,0.0,0.0,0.0,0.0,0.0,0.0,0.0,0.0,0.0,0.0,0.0,0.0,0.0,0.0,0.0,0.0,0.0,0.0,0.0,0.0,0.0,0.0,0.0,0.0,0.0,0.0,0.0,0.0,0.0,0.0,0.0,0.0,0.0,0.0,0.0,0.0,0.0,0.0,0.0,0.0,0.0,0.0,0.0,0.0,0.0,0.0,0.0,0.0,0.0,0.0,0.0,0.0,0.0,0.0,0.0,0.0,0.0,0.0,0.0,0.0,0.0,0.0,0.0,0.0,0.0,0.0,0.0,0.0,0.0,0.0,0.0,0.0,0.0,0.0,0.0,0.0,0.0,0.0,0.0,0.0,0.0,0.0,0.0,0.0,0.0,0.0,0.0,0.0,0.0,0.0,0.0,0.0,0.0,0.0,-2.1583,-2.1788,-2.2102,-2.2271,-2.2259,-2.1752,-2.1426,0.0,0.0,0.0,0.0,0.0,0.0,0.0,0.0,0.0,0.0,0.0,0.0,0.0,0.0,0.0,0.0,0.0,0.0,0.0,0.0,0.0,0.0,0.0,0.0,0.0,0.0,0.0,0.0,0.0,0.0,0.0,0.0,0.0,0.0,0.0,0.0,0.0,0.0,0.0,0.0,0.0,0.0,0.0,0.0,0.0,0.0,0.0,0.0,-2.6003,0.0,0.0,0.0,0.0,0.0,0.0,0.0,0.0,0.0,0.0,0.0,0.0,0.0,0.0,0.0,0.0,0.0,0.0,0.0,0.0,0.0,0.0,0.0,0.0,0.0,0.0,0.0,0.0,0.0,0.0,0.0,0.0,0.0,0.0,0.0,0.0,0.0,0.0,0.0,0.0,0.0,0.0,0.0,0.0,0.0,0.0,0.0,0.0,0.0,0.0,0.0,0.0,0.0,0.0,0.0,0.0,0.0,0.0,0.0,-2.1607,-2.186,-2.2126,-2.2271,-2.2247,-2.1873,-2.1607,0.0,0.0,0.0,0.0,0.0,0.0,0.0,0.0,0.0,0.0,0.0,0.0,0.0,0.0,0.0,0.0,0.0,0.0,0.0,0.0,0.0,0.0,0.0,0.0,0.0,0.0,0.0,0.0,0.0,0.0,0.0,0.0,0.0,0.0,0.0,0.0,0.0,0.0,0.0,0.0,0.0,0.0,0.0,0.0,0.0,0.0,0.0,0.0,0.0,0.0,0.0,0.0,0.0,0.0,0.0,0.0,0.0,0.0,0.0,0.0,0.0,0.0,0.0,0.0,0.0,0.0,0.0,0.0,0.0,0.0,0.0,0.0,0.0,0.0,0.0,0.0,0.0,0.0,0.0,0.0,0.0,0.0,0.0,0.0,0.0,0.0,0.0,0.0,0.0,0.0,0.0,0.0,0.0,0.0,0.0,0.0,0.0,0.0,0.0,0.0,0.0,0.0,0.0,0.0,0.0,0.0,0.0,-2.1245,-2.1619,-2.1921,-2.215,-2.2271,-2.2259,-2.2005,-2.1752,-2.1486,0.0,0.0,0.0,0.0,0.0,0.0,0.0,0.0,0.0,0.0,0.0,0.0,0.0,0.0,0.0,0.0,0.0,0.0,0.0,0.0,0.0,0.0,0.0,0.0,0.0,0.0,0.0,0.0,0.0,0.0,0.0,0.0,0.0,0.0,0.0,0.0,0.0,0.0,-2.338,-2.3861,0.0,0.0,0.0,0.0,0.0,0.0,0.0,0.0,-2.7482,0.0,0.0,0.0,0.0,0.0,0.0,0.0,0.0,0.0,0.0,0.0,0.0,0.0,0.0,0.0,0.0,0.0,0.0,0.0,0.0,0.0,0.0,0.0,0.0,0.0,0.0,0.0,0.0,0.0,0.0,0.0,0.0,0.0,0.0,0.0,0.0,0.0,0.0,0.0,0.0,0.0,0.0,0.0,0.0,0.0,0.0,0.0,0.0,0.0,0.0,0.0,0.0,0.0,0.0,0.0,0.0,-2.1329,-2.1438,-2.1716,-2.2186,-2.2235,-2.2271,-2.2259,-2.2005,-2.1752,-2.1462,0.0,0.0,0.0,0.0,0.0,0.0,0.0,0.0,0.0,0.0,0.0,0.0,0.0,0.0,0.0,0.0,0.0,0.0,0.0,0.0,0.0,0.0,0.0,0.0,0.0,0.0,0.0,0.0,0.0,0.0,0.0,0.0,0.0,0.0,0.0,0.0,0.0,0.0,0.0,-2.3995,-2.4315,0.0,0.0,0.0,0.0,0.0,0.0,0.0,0.0,-2.8563,0.0,0.0,0.0,0.0,0.0,0.0,0.0,0.0,0.0,0.0,0.0,0.0,0.0,0.0,0.0,0.0,0.0,0.0,0.0,0.0,0.0,0.0,0.0,0.0,0.0,0.0,0.0,0.0,0.0,0.0,0.0,0.0,0.0,0.0,0.0,0.0,0.0,0.0,0.0,0.0,0.0,0.0,0.0,0.0,0.0,0.0,0.0,0.0,0.0,0.0,0.0,0.0,0.0,0.0,0.0,-2.1438,-2.1619,-2.1873,-2.2247,-2.2271,-2.2271,-2.2259,-2.2005,-2.1752,0.0,0.0,0.0,0.0,0.0,0.0,0.0,0.0,0.0,0.0,0.0,0.0,0.0,0.0,0.0,0.0,0.0,0.0,0.0,0.0,0.0,0.0,0.0,0.0,0.0,0.0,0.0,0.0,0.0,0.0,0.0,0.0,0.0,0.0,0.0,0.0,0.0,0.0,0.0,0.0,-2.3888,-2.4286,-2.4877,0.0,0.0,0.0,0.0,0.0,0.0,-2.9105,-2.9617,0.0,0.0,0.0,0.0,0.0,0.0,0.0,0.0,0.0,0.0,0.0,0.0,0.0,0.0,0.0,0.0,0.0,0.0,0.0,0.0,0.0,0.0,0.0,0.0,0.0,0.0,0.0,0.0,0.0,0.0,0.0,0.0,0.0,0.0,0.0,0.0,0.0,0.0,0.0,0.0,0.0,0.0,0.0,0.0,0.0,0.0,0.0,0.0,0.0,0.0,0.0,0.0,0.0,0.0,0.0,-2.1462,-2.174,-2.1993,-2.2247,-2.2271,-2.2271,-2.2259,-2.1957,-2.1691,0.0,0.0,0.0,0.0,0.0,0.0,0.0,0.0,0.0,0.0,0.0,0.0,0.0,0.0,0.0,0.0,0.0,0.0,0.0,0.0,0.0,0.0,0.0,0.0,0.0,0.0,0.0,0.0,0.0,0.0,0.0,0.0,0.0,0.0,0.0,0.0,0.0,0.0,0.0,0.0,0.0,-2.4242,-2.5062,-2.5625,0.0,0.0,0.0,0.0,-2.8935,-3.0033,0.0,0.0,0.0,0.0,0.0,0.0,0.0,0.0,0.0,0.0,0.0,0.0,0.0,0.0,0.0,0.0,0.0,0.0,0.0,0.0,0.0,0.0,0.0,0.0,0.0,0.0,0.0,0.0,0.0,0.0,0.0,0.0,0.0,0.0,0.0,0.0,0.0,0.0,0.0,0.0,0.0,0.0,0.0,0.0,0.0,0.0,0.0,0.0,0.0,0.0,0.0,0.0,0.0,0.0,0.0,0.0,-2.1462,-2.174,-2.1993,-2.2247,-2.2271,-2.2271,-2.2259,-2.1776,-2.151,0.0,0.0,0.0,0.0,0.0,0.0,0.0,0.0,0.0,0.0,0.0,0.0,0.0,0.0,0.0,0.0,0.0,0.0,0.0,0.0,0.0,0.0,0.0,0.0,0.0,0.0,0.0,0.0,0.0,0.0,0.0,0.0,0.0,0.0,0.0,0.0,0.0,0.0,0.0,0.0,0.0,-2.4432,-2.4774,-2.5777,-2.6531,0.0,0.0,-2.9138,-3.0491,-3.1169,0.0,0.0,0.0,0.0,0.0,0.0,0.0,0.0,0.0,0.0,0.0,0.0,0.0,0.0,0.0,0.0,0.0,0.0,0.0,0.0,0.0,0.0,0.0,0.0,0.0,0.0,0.0,0.0,0.0,0.0,0.0,0.0,0.0,0.0,0.0,0.0,0.0,0.0,0.0,0.0,0.0,0.0,0.0,0.0,0.0,0.0,0.0,0.0,0.0,0.0,0.0,0.0,0.0,0.0,0.0,-2.1245,-2.1486,-2.1885,-2.215,-2.2259,-2.2271,-2.2271,-2.2271,-2.1897,-2.1631,0.0,0.0,0.0,0.0,0.0,0.0,0.0,0.0,0.0,0.0,0.0,0.0,0.0,0.0,0.0,0.0,0.0,0.0,0.0,0.0,0.0,0.0,0.0,0.0,0.0,0.0,0.0,0.0,0.0,0.0,0.0,0.0,0.0,0.0,0.0,0.0,0.0,0.0,0.0,0.0,0.0,0.0,-2.5008,-2.604,0.0,0.0,0.0,-2.9981,-3.0868,0.0,0.0,0.0,0.0,0.0,0.0,0.0,0.0,0.0,0.0,0.0,0.0,0.0,0.0,0.0,0.0,0.0,0.0,0.0,0.0,0.0,0.0,0.0,0.0,0.0,0.0,0.0,0.0,0.0,0.0,0.0,0.0,0.0,0.0,0.0,0.0,0.0,0.0,0.0,0.0,0.0,0.0,0.0,0.0,0.0,0.0,0.0,0.0,0.0,0.0,0.0,0.0,0.0,0.0,0.0,0.0,0.0,-2.1486,-2.1993,-2.2271,-2.2271,-2.2271,-2.2271,-2.2259,-2.2005,0.0,0.0,0.0,0.0,0.0,0.0,0.0,0.0,0.0,0.0,0.0,0.0,0.0,0.0,0.0,0.0,0.0,0.0,0.0,0.0,0.0,0.0,0.0,0.0,0.0,0.0,0.0,-2.1804,0.0,0.0,0.0,0.0,0.0,0.0,0.0,0.0,0.0,0.0,0.0,0.0,0.0,0.0,-2.4703,-2.5296,-2.6489,-2.7565,0.0,0.0,-3.0835,-3.1418,-3.2561,-3.3278,0.0,0.0,0.0,0.0,0.0,0.0,0.0,0.0,0.0,0.0,0.0,0.0,0.0,0.0,0.0,0.0,0.0,0.0,0.0,0.0,0.0,0.0,0.0,0.0,0.0,0.0,0.0,0.0,0.0,0.0,0.0,0.0,0.0,0.0,0.0,0.0,0.0,0.0,0.0,0.0,0.0,0.0,0.0,0.0,0.0,0.0,0.0,0.0,0.0,0.0,0.0,0.0,0.0,0.0,0.0,-2.1498,-2.1993,-2.2271,-2.2271,-2.2271,-2.2271,-2.2259,-2.2005,-2.1752,0.0,0.0,0.0,0.0,0.0,0.0,0.0,0.0,0.0,0.0,0.0,0.0,0.0,0.0,0.0,0.0,0.0,0.0,0.0,0.0,0.0,0.0,0.0,0.0,0.0,0.0,0.0,0.0,0.0,0.0,0.0,0.0,0.0,0.0,0.0,0.0,0.0,0.0,0.0,0.0,0.0,-2.4988,-2.5296,-2.6908,-2.8418,0.0,-3.0425,-3.1435,-3.2841,-3.3278,-3.34,-3.3678,0.0,0.0,0.0,0.0,0.0,0.0,0.0,0.0,0.0,0.0,0.0,0.0,0.0,0.0,0.0,0.0,0.0,0.0,0.0,0.0,0.0,0.0,0.0,0.0,0.0,0.0,0.0,0.0,0.0,0.0,0.0,0.0,0.0,0.0,0.0,0.0,0.0,0.0,0.0,0.0,0.0,0.0,0.0,0.0,0.0,0.0,0.0,0.0,0.0,0.0,0.0,0.0,0.0,-2.1474,-2.1486,-2.1993,-2.2271,-2.2271,-2.2271,-2.2271,-2.2271,-2.2162,-2.1993,0.0,0.0,0.0,0.0,0.0,0.0,0.0,0.0,0.0,0.0,0.0,0.0,0.0,0.0,0.0,0.0,0.0,0.0,0.0,0.0,0.0,0.0,0.0,0.0,0.0,0.0,0.0,0.0,-2.326,-2.326,-2.306,0.0,0.0,0.0,0.0,0.0,0.0,0.0,0.0,0.0,0.0,-2.513,-2.5999,-2.7485,0.0,0.0,-3.0977,-3.2123,-3.3139,-3.34,-3.3678,-3.3817,-3.3817,0.0,0.0,0.0,0.0,0.0,0.0,0.0,0.0,0.0,0.0,0.0,0.0,0.0,0.0,0.0,0.0,0.0,0.0,0.0,0.0,0.0,0.0,0.0,0.0,0.0,0.0,0.0,0.0,0.0,0.0,0.0,0.0,0.0,0.0,0.0,0.0,0.0,0.0,0.0,0.0,0.0,0.0,0.0,0.0,0.0,0.0,0.0,0.0,0.0,0.0,0.0,0.0,-2.1474,-2.1486,-2.1993,-2.2271,-2.2271,-2.2271,-2.2271,-2.2271,-2.2271,-2.2138,0.0,0.0,0.0,0.0,0.0,0.0,0.0,0.0,0.0,0.0,0.0,0.0,0.0,0.0,0.0,0.0,0.0,0.0,0.0,0.0,0.0,0.0,0.0,0.0,0.0,0.0,0.0,0.0,-2.3327,-2.3247,-2.302,0.0,0.0,0.0,0.0,0.0,0.0,0.0,0.0,0.0,0.0,-2.5556,-2.6717,-2.8105,-2.9552,-3.0551,-3.1683,-3.2684,-3.34,-3.3678,-3.3853,-3.3963,0.0,0.0,0.0,0.0,0.0,0.0,0.0,0.0,0.0,0.0,0.0,0.0,0.0,0.0,0.0,0.0,0.0,0.0,0.0,0.0,0.0,0.0,0.0,0.0,0.0,0.0,0.0,-1.9869,0.0,0.0,-1.9857,0.0,0.0,0.0,0.0,0.0,0.0,0.0,0.0,0.0,0.0,0.0,0.0,0.0,0.0,0.0,0.0,0.0,0.0,0.0,0.0,0.0,0.0,-2.1474,-2.1486,-2.1993,-2.2271,-2.2271,-2.2271,-2.2271,-2.2271,-2.2271,-2.2138,-2.1873,0.0,0.0,0.0,0.0,0.0,0.0,0.0,0.0,0.0,0.0,0.0,0.0,0.0,0.0,0.0,0.0,0.0,0.0,0.0,0.0,0.0,0.0,0.0,0.0,0.0,0.0,-2.3313,-2.3327,-2.3327,0.0,0.0,0.0,0.0,0.0,0.0,0.0,0.0,0.0,-2.4227,-2.527,-2.6301,-2.7331,-2.9107,-3.0551,-3.1401,-3.2544,-3.34,-3.3678,-3.3817,-3.3945,0.0,0.0,0.0,0.0,0.0,0.0,0.0,0.0,0.0,0.0,0.0,0.0,0.0,0.0,0.0,0.0,0.0,0.0,0.0,0.0,0.0,0.0,0.0,0.0,0.0,0.0,0.0,-2.0146,-2.0146,0.0,0.0,0.0,0.0,0.0,0.0,0.0,0.0,0.0,0.0,0.0,-2.1329,-2.1245,0.0,0.0,0.0,0.0,0.0,0.0,0.0,0.0,0.0,0.0,0.0,0.0,-2.1474,-2.1498,-2.1993,-2.2271,-2.2271,-2.2271,-2.2271,-2.2271,-2.2271,-2.2138,-2.1885,0.0,0.0,0.0,0.0,0.0,0.0,0.0,0.0,0.0,0.0,0.0,0.0,0.0,0.0,0.0,0.0,0.0,0.0,0.0,0.0,0.0,0.0,0.0,0.0,0.0,-2.3514,0.0,0.0,0.0,0.0,0.0,0.0,0.0,0.0,0.0,0.0,0.0,-2.394,-2.4957,-2.5841,-2.6746,-2.8068,-2.9552,-3.0693,0.0,0.0,0.0,0.0,0.0,0.0,0.0,0.0,0.0,0.0,0.0,0.0,0.0,0.0,-3.4238,-3.422,-3.4397,-3.4574,-3.422,0.0,0.0,0.0,0.0,0.0,0.0,0.0,0.0,0.0,0.0,0.0,0.0,0.0,0.0,-2.069,0.0,-2.0702,0.0,0.0,0.0,0.0,0.0,0.0,0.0,0.0,-2.1535,-2.1655,-2.1752,-2.1655,-2.1619,0.0,-2.1523,-2.1124,0.0,0.0,0.0,0.0,0.0,0.0,0.0,0.0,-2.1523,-2.1631,-2.2042,-2.2271,-2.2271,-2.2271,-2.2271,-2.2271,-2.2271,-2.2186,-2.2017,-2.1921,-2.1619,0.0,0.0,0.0,0.0,0.0,0.0,0.0,0.0,0.0,0.0,0.0,0.0,0.0,0.0,0.0,0.0,0.0,0.0,0.0,0.0,0.0,0.0,0.0,-2.3931,0.0,0.0,0.0,0.0,0.0,0.0,0.0,0.0,0.0,-2.3322,-2.3787,-2.4607,-2.5712,-2.6559,-2.7568,-2.8947,0.0,0.0,0.0,0.0,0.0,0.0,0.0,-3.466,-3.4807,-3.5064,-3.5247,-3.5229,-3.5229,-3.5229,-3.5247,0.0,0.0,-3.5064,-3.5207,-3.5226,-3.5027,-3.5027,-3.5027,-3.5027,-3.5027,-3.5027,0.0,0.0,0.0,0.0,0.0,0.0,0.0,0.0,-2.1486,-2.1474,0.0,-2.1474,0.0,0.0,0.0,0.0,-2.1088,-2.1354,0.0,0.0,-2.1873,-2.2017,-2.2223,-2.2005,-2.1885,-2.186,-2.1631,-2.151,-2.1486,-2.1498,0.0,0.0,0.0,0.0,0.0,0.0,-2.1619,-2.186,-2.2126,-2.2271,-2.2283,-2.2271,-2.2283,-2.2295,-2.2283,-2.2283,-2.2271,-2.2029,-2.1873,-2.186,-2.1366,0.0,0.0,0.0,0.0,0.0,0.0,0.0,0.0,0.0,0.0,0.0,0.0,0.0,0.0,0.0,0.0,0.0,0.0,0.0,0.0,-2.3759,0.0,0.0,0.0,0.0,0.0,0.0,0.0,0.0,0.0,0.0,-2.4038,-2.4534,-2.518,-2.6343,0.0,0.0,0.0,0.0,-3.2298,-3.2755,-3.3762,-3.4422,-3.4422,-3.477,-3.5174,-3.554,0.0,0.0,-3.5632,-3.5632,-3.565,-3.5632,-3.5632,-3.5522,-3.5155,-3.5119,-3.51,-3.51,-3.5119,-3.5082,-3.5082,-3.5155,-3.5119,-2.1764,0.0,0.0,0.0,0.0,-2.1438,-2.1583,-2.1764,-2.1752,-2.1764,-2.1764,-2.1752,0.0,0.0,0.0,0.0,0.0,0.0,-2.18,-2.1885,-2.2066,-2.2186,-2.2259,-2.2186,-2.215,-2.215,-2.2078,-2.2042,-2.2042,-2.2042,-2.18,-2.1366,0.0,0.0,0.0,0.0,-2.18,-2.1885,-2.2126,-2.2355,-2.2536,-2.2536,-2.2633,-2.2814,-2.2633,-2.2536,-2.2536,-2.2295,-2.2066,-2.1885,-2.1728,0.0,0.0,0.0,0.0,0.0,0.0,0.0,0.0,0.0,0.0,0.0,0.0,0.0,0.0,0.0,0.0,0.0,0.0,0.0,-2.4344,-2.4786,-2.4887,0.0,0.0,0.0,0.0,0.0,0.0,0.0,0.0,0.0,-2.5371,-2.5226,-2.5566,0.0,0.0,-2.9356,-3.0516,-3.2032,-3.323,-3.3965,-3.4484,0.0,-3.4862,-3.5192,-3.5485,-3.5595,-3.5852,-3.6036,-3.6036,-3.6036,-3.6036,-3.6036,-3.6036,-3.5999,-3.5907,-3.587,-3.5852,-3.587,-3.587,-3.587,-3.587,-3.587,-3.587,-2.2078,-2.1788,-2.1788,-2.1728,-2.1643,-2.174,-2.1885,-2.2029,-2.2029,-2.2029,-2.2017,-2.2017,-2.1933,-2.1788,-2.1788,0.0,0.0,0.0,-2.2029,-2.2029,-2.2186,-2.2271,-2.2271,-2.2271,-2.2271,-2.2271,-2.2271,-2.2271,-2.2271,-2.2271,-2.2102,-2.18,0.0,0.0,-2.1643,-2.1788,-2.1969,-2.2174,-2.2331,-2.2549,-2.2802,-2.2802,-2.2874,-2.3031,-2.2887,-2.2814,-2.2802,-2.2657,-2.2452,-2.2186,-2.2078,-2.1824,0.0,0.0,0.0,0.0,0.0,0.0,0.0,0.0,0.0,0.0,0.0,-2.378,-2.356,0.0,0.0,0.0,-2.4214,-2.4624,-2.5202,-2.5408,0.0,0.0,0.0,0.0,0.0,0.0,0.0,-2.53,-2.5512,-2.5682,-2.6099,-2.6213,-2.6663,-2.7598,-2.8804,-3.0,-3.1314,0.0,-3.3709,-3.4433,-3.4994,-3.5504,-3.5504,-3.5962,-3.6329,-3.6329,-3.6531,-3.6604,-3.6476,-3.6457,-3.6402,-3.6256,-3.6201,-3.6201,-3.6201,-3.6201,-3.6201,-3.6201,-3.6201,-3.6201,-3.6201,-3.6201,-3.6201,-2.2271,-2.2271,-2.2259,-2.2114,-2.1933,-2.2162,-2.2259,-2.2271,-2.2259,-2.2271,-2.2271,-2.2271,-2.2271,-2.2259,-2.2271,0.0,-2.1909,-2.215,-2.2259,-2.2271,-2.2271,-2.2271,-2.2271,-2.2271,-2.2271,-2.2271,-2.2271,-2.2271,-2.2271,-2.2271,-2.2271,-2.2259,-2.2042,-2.1921,-2.1909,-2.1921,-2.2162,-2.2645,-2.2669,-2.2814,-2.3068,-2.3092,-2.3104,-2.3116,-2.3092,-2.308,-2.308,-2.3056,-2.2935,-2.2681,-2.2428,-2.2174,-2.1897,0.0,0.0,0.0,0.0,0.0,0.0,0.0,0.0,0.0,0.0,0.0,0.0,0.0,0.0,0.0,-2.5484,0.0,-2.5918,-2.5983,0.0,0.0,0.0,-2.6202,-2.6202,-2.6202,-2.6179,-2.6056,0.0,0.0,-2.6546,-2.7291,-2.794,-2.8725,-2.9446,-3.0437,-3.194,-3.3266,-3.4159,-3.4649,-3.5668,-3.6311,-3.6329,-3.6879,-3.7301,-3.7301,-3.7429,-3.7246,-3.6952,-3.6879,-3.6714,-3.6439,-3.6311,-3.6329,-3.6311,-3.6366,-3.6311,-3.6347,-3.6256,-3.6201,-3.6201,-3.6201,-3.6219,-2.2271,-2.2271,-2.2271,-2.2223,-2.2174,-2.2235,-2.2271,-2.2271,-2.2271,-2.2271,-2.2271,-2.2271,-2.2271,-2.2271,-2.2271,-2.2223,-2.2174,-2.2235,-2.2271,-2.2271,-2.2271,-2.2271,-2.2271,-2.2271,-2.2271,-2.2271,-2.2271,-2.2271,-2.2271,-2.2271,-2.2271,-2.2271,-2.2392,-2.2367,-2.2186,-2.2367,-2.2524,-2.2657,-2.285,-2.308,-2.3345,-2.355,-2.3659,-2.3647,-2.3454,-2.3357,-2.3345,-2.3152,-2.3019,-2.2947,-2.2693,-2.244,-2.2174,-2.2518,0.0,0.0,0.0,0.0,0.0,0.0,0.0,0.0,0.0,-2.6791,-2.6709,0.0,-2.7079,0.0,-2.7236,-2.746,-2.752,-2.762,0.0,0.0,-2.7281,-2.7236,-2.7236,-2.7236,-2.7372,-2.7545,-2.7815,-2.8011,-2.8086,-2.8816,-2.957,-3.0269,-3.075,-3.1679,-3.3266,-3.4548,-3.5503,-3.6121,-3.6636,-3.7118,-3.7154,-3.7283,-3.7448,-3.7429,-3.7429,-3.7393,-3.7301,-3.7301,-3.7246,-3.7154,-3.7136,-3.7136,-3.7118,-3.7136,-3.7118,-3.7081,-3.6641,-3.6201,-3.6201,-3.6219,-3.6311,-2.2271,-2.2271,-2.2271,-2.2271,-2.2271,-2.2271,-2.2271,-2.2271,-2.2271,-2.2271,-2.2271,-2.2271,-2.2271,-2.2271,-2.2271,-2.2271,-2.2271,-2.2271,-2.2271,-2.2271,-2.2271,-2.2271,-2.2271,-2.2271,-2.2271,-2.2271,-2.2271,-2.2271,-2.2271,-2.238,-2.244,-2.244,-2.2693,-2.2754,-2.2621,-2.2754,-2.2887,-2.3007,-2.3261,-2.3478,-2.3635,-2.3876,-2.3961,-2.3852,-2.3816,-2.3744,-2.3635,-2.3478,-2.3345,-2.3225,-2.308,-2.2887,-2.2621,-2.3141,-2.3588,0.0,0.0,0.0,0.0,0.0,0.0,0.0,0.0,0.0,0.0,0.0,-2.8838,-2.8696,-2.8725,-2.8835,-2.8819,-2.8707,-2.8501,-2.8458,-2.8284,-2.8141,-2.8141,-2.8141,-2.8264,-2.8619,-2.8966,-2.9283,-2.9439,-3.0049,-3.0846,-3.1788,-3.2439,-3.3146,-3.4255,-3.5334,-3.6336,-3.6965,-3.7429,-3.7759,-3.7924,-3.7961,-3.7961,-3.7961,-3.7979,-3.7906,-3.7723,-3.7686,-3.7631,-3.7466,-3.7429,-3.7429,-3.7429,-3.7429,-3.7429,-3.7356,-3.7062,-3.6787,-3.6751,-3.6751,-3.6842,-2.2271,-2.2271,-2.2271,-2.2271,-2.2271,-2.2271,-2.2271,-2.2271,-2.2271,-2.2271,-2.2271,-2.2271,-2.2271,-2.2271,-2.2271,-2.2271,-2.2271,-2.2271,-2.2271,-2.2271,-2.2271,-2.2271,-2.2271,-2.2271,-2.2271,-2.2271,-2.2295,-2.2319,-2.2319,-2.2573,-2.2705,-2.2718,-2.2971,-2.3092,-2.3092,-2.3128,-2.3285,-2.355,-2.378,-2.3913,-2.3949,-2.4166,-2.4178,-2.3961,-2.4166,-2.4178,-2.3961,-2.3913,-2.3792,-2.3562,-2.349,-2.3345,-2.3247,-2.3833,-2.4568,0.0,-2.6343,0.0,0.0,0.0,0.0,0.0,0.0,0.0,0.0,-3.0476,-3.0409,-3.0124,-2.9981,-2.9981,-3.0124,-2.9855,-2.9568,-2.9585,-2.9314,-2.9186,-2.9186,-2.9233,-2.9391,-2.9707,-2.9901,-3.0339,-3.0659,-3.1329,-3.2324,-3.323,-3.4248,-3.4984,-3.5327,-3.619,-3.7022,-3.7349,-3.7833,-3.8199,-3.8493,-3.8603,-3.8603,-3.8621,-3.8585,-3.8511,-3.8144,-3.8089,-3.7998,-3.7686,-3.7649,-3.7631,-3.7576,-3.7594,-3.7594,-3.7631,-3.7613,-3.7521,-3.7393,-3.7356,-3.7448,-2.2271,-2.2271,-2.2271,-2.2271,-2.2271,-2.2271,-2.2271,-2.2271,-2.2271,-2.2271,-2.2271,-2.2271,-2.2271,-2.2271,-2.2271,-2.2271,-2.2271,-2.2271,-2.2271,-2.2271,-2.2271,-2.2271,-2.2271,-2.2271,-2.2271,-2.2271,-2.2476,-2.2585,-2.2585,-2.2838,-2.2971,-2.2983,-2.3249,-2.3369,-2.3381,0.0,0.0,0.0,-2.4142,-2.4263,-2.4468,-2.4528,-2.4528,-2.448,-2.4516,0.0,-2.4468,-2.4275,-2.4142,-2.4082,-2.3683,0.0,0.0,0.0,0.0,0.0,0.0,0.0,0.0,0.0,0.0,0.0,-3.1323,-3.134,-3.1288,-3.1617,-3.1683,-3.1683,-3.1418,-3.1418,-3.1683,-3.1418,-3.1135,-3.1152,-3.1405,-3.1574,-3.1591,-3.1845,-3.1935,-3.1709,-3.1959,-3.201,-3.1993,-3.2994,-3.3873,-3.4316,-3.5779,-3.6827,-3.6844,-3.7054,-3.7421,-3.7769,-3.8236,-3.853,-3.8621,-3.864,-3.864,-3.864,-3.864,-3.8603,-3.853,-3.8493,-3.8511,-3.8383,-3.8401,-3.8401,-3.8401,-3.8401,-3.8365,-3.8401,-3.8401,-3.8218,-3.7576,-3.7429,-3.7521,-2.2271,-2.2271,-2.2271,-2.2271,0.0,-2.2271,-2.2271,-2.2271,-2.2271,-2.2271,-2.2271,-2.2271,-2.2271,-2.2271,-2.2271,-2.2271,-2.2271,-2.2271,-2.2271,-2.2271,-2.2271,-2.2331,-2.2452,-2.2452,-2.2524,-2.2657,-2.2778,-2.285,-2.2862,-2.3116,-2.3249,-2.3249,-2.3514,-2.3647,-2.3659,-2.3913,-2.4106,-2.4226,-2.4359,-2.4492,-2.4625,-2.477,-2.477,-2.4637,-2.4758,0.0,0.0,0.0,0.0,0.0,0.0,0.0,0.0,-2.5478,0.0,-2.6999,-2.8671,-2.9771,-3.029,-3.0833,-3.1262,-3.2118,-3.2561,-3.2544,-3.2175,-3.2438,-3.2684,-3.2684,-3.2561,-3.2561,-3.2701,-3.2579,-3.2419,-3.2436,-3.2607,-3.2688,-3.2705,-3.2861,-3.3051,-3.3111,-3.3283,-3.3673,-3.3768,-3.4433,-3.5309,-3.5814,-3.6653,-3.762,-3.7958,-3.7995,-3.8013,-3.8328,-3.8475,-3.864,-3.864,-3.864,-3.864,-3.864,-3.864,-3.864,-3.864,-3.864,-3.864,-3.864,-3.864,-3.864,-3.864,-3.864,-3.864,-3.864,-3.864,-3.8548,-3.8089,-3.8016,-3.8071,-2.2404,-2.2404,-2.2392,-2.2392,-2.2404,-2.2404,-2.2392,-2.2392,-2.2295,0.0,0.0,-2.2271,-2.2271,-2.2271,-2.2271,-2.2283,-2.2331,-2.2331,-2.2355,-2.2404,-2.2392,-2.2512,-2.2718,-2.2718,-2.2838,-2.3043,-2.3092,-2.3116,-2.3128,-2.3393,-2.3526,-2.3538,-2.3744,-2.3864,-2.3925,-2.4226,-2.4383,-2.4383,-2.4589,-2.4721,-2.477,-2.4999,-2.4999,-2.4782,-2.4987,-2.5011,-2.4782,-2.4721,-2.4697,-2.4697,-2.4456,-2.4625,-2.5101,-2.6215,-2.7156,-2.8086,-2.9336,-3.0655,-3.1466,-3.1614,-3.2023,-3.2689,-3.3436,-3.3606,-3.2967,-3.3336,-3.3617,-3.3635,-3.3617,-3.3617,-3.3635,-3.3606,-3.3536,-3.3536,-3.3712,-3.3652,-3.3669,-3.3722,-3.3951,-3.4267,-3.4539,-3.5068,-3.5592,-3.5787,-3.619,-3.721,-3.7445,-3.7747,-3.839,-3.8603,-3.8603,-3.8603,-3.8621,-3.864,-3.864,-3.864,-3.864,-3.864,-3.864,-3.864,-3.864,-3.864,-3.864,-3.864,-3.864,-3.864,-3.864,-3.864,-3.864,-3.864,-3.864,-3.864,-3.864,-3.864,-3.8603,-2.2935,-2.2935,-2.2935,-2.2935,-2.2935,-2.2935,-2.2935,-2.2899,-2.2464,-2.2271,-2.2271,-2.2271,-2.2271,-2.2271,-2.2271,-2.238,-2.2597,-2.2597,-2.2718,-2.2935,-2.2935,-2.2947,-2.2983,-2.2983,-2.3007,-2.3056,-2.3285,-2.3393,-2.3418,-2.3659,-2.3792,-2.3792,-2.3828,-2.3961,-2.4202,-2.4673,-2.4927,-2.4927,-2.4975,-2.5096,-2.5313,-2.5361,-2.5373,-2.5325,-2.5361,-2.5361,-2.5325,-2.5108,-2.4987,-2.4975,-2.4721,-2.5059,-2.6358,-2.7189,-2.8273,-2.9552,-3.0964,-3.1717,-3.186,-3.2293,-3.2605,-3.2724,-3.3436,-3.3963,-3.4145,-3.4575,-3.4719,-3.4719,-3.4682,-3.4719,-3.4719,-3.4755,-3.4648,-3.4828,-3.4994,-3.523,-3.5267,-3.5539,-3.5736,-3.5815,-3.5905,-3.5897,-3.6172,-3.6666,-3.7192,-3.7409,-3.7995,-3.8408,-3.8603,-3.864,-3.864,-3.864,-3.864,-3.864,-3.864,-3.864,-3.864,-3.864,-3.864,-3.864,-3.864,-3.864,-3.864,-3.864,-3.864,-3.864,-3.864,-3.864,-3.864,-3.864,-3.864,-3.864,-3.864,-3.864,-3.864,-2.3043,-2.3043,-2.3043,-2.3043,-2.3043,-2.3043,-2.3043,-2.3019,-2.279,-2.2681,-2.2681,-2.2681,-2.2681,-2.2681,-2.2681,-2.2754,-2.2862,-2.2862,-2.2923,-2.3031,-2.3043,-2.3128,-2.3261,-2.3261,-2.3345,-2.3478,-2.3599,-2.3671,-2.3683,-2.3792,-2.384,-2.3852,-2.3985,-2.4263,-2.4661,-2.4914,-2.512,-2.5252,-2.5252,-2.5313,-2.5433,-2.5433,-2.5433,-2.5433,-2.5433,-2.5433,-2.5433,-2.5325,-2.5252,-2.5252,-2.4999,-2.5508,-2.6822,-2.7676,-2.8802,-3.0271,-3.1559,-3.2259,-3.2517,-3.3079,-3.3361,-3.3323,-3.3769,-3.4362,-3.4622,-3.483,-3.5027,-3.5027,-3.5027,-3.5027,-3.5045,-3.5229,-3.5357,-3.5357,-3.5705,-3.6017,-3.6256,-3.6421,-3.6563,-3.6758,-3.6849,-3.6994,-3.7066,-3.7439,-3.7813,-3.7995,-3.839,-3.864,-3.864,-3.864,-3.864,-3.864,-3.864,-3.864,-3.864,-3.864,-3.864,-3.864,-3.864,-3.864,-3.864,-3.8658,-3.8658,-3.864,-3.8658,-3.864,-3.8658,-3.864,-3.864,-3.864,-3.864,-3.864,-3.864,-3.864,-3.864,-2.3225,-2.3225,-2.3225,-2.3225,-2.3225,-2.3225,-2.3225,-2.3225,-2.3225,-2.3225,-2.3212,-2.3104,-2.3043,-2.3043,-2.3043,-2.308,-2.3128,-2.314,-2.3164,-2.3225,-2.3225,-2.3333,-2.3526,-2.3538,-2.3647,-2.3828,-2.384,-2.384,-2.3852,-2.39,-2.3961,-2.4045,-2.4287,-2.4625,-2.5035,-2.5108,-2.524,-2.5421,-2.5433,-2.5433,-2.5433,-2.5433,-2.5433,-2.5433,-2.5433,-2.5433,-2.5433,-2.5433,-2.5433,-2.5433,-2.524,-2.5793,-2.7109,-2.8153,-2.9277,-3.06,-3.1806,-3.2617,-3.3142,-3.3787,-3.4094,-3.4094,-3.4398,-3.4837,-3.522,-3.5335,-3.534,-3.5339,-3.532,-3.532,-3.5375,-3.5669,-3.5889,-3.5925,-3.6256,-3.6604,-3.6897,-3.6971,-3.7118,-3.7484,-3.7558,-3.7704,-3.8034,-3.8163,-3.8291,-3.8548,-3.864,-3.864,-3.864,-3.864,-3.864,-3.864,-3.864,-3.8713,-3.875,-3.8805,-3.8841,-3.8878,-3.8951,-3.8988,-3.897,-3.8933,-3.8915,-3.897,-3.8951,-3.8988,-3.8933,-3.8951,-3.897,-3.8988,-3.9006,-3.897,-3.8988,-3.8988,-3.8823,-2.3756,-2.3768,-2.3744,-2.3768,-2.3756,-2.3756,-2.3744,-2.3744,-2.3768,-2.3768,-2.3695,-2.3261,-2.3056,-2.3043,-2.3056,-2.32,-2.3406,-2.3418,-2.3538,-2.3731,-2.3768,-2.378,-2.3792,-2.3804,-2.3816,-2.384,-2.384,-2.3852,-2.3876,-2.4094,-2.4323,-2.4564,-2.483,-2.4987,-2.5071,-2.5277,-2.5409,-2.5433,-2.5433,-2.5433,-2.5433,-2.5433,-2.5433,-2.5433,-2.5433,-2.5433,-2.5433,-2.5433,-2.5433,-2.5433,-2.5738,-2.6563,-2.7888,-2.8966,-3.0112,-3.1432,-3.2122,-3.2713,-3.3661,-3.4412,-3.483,-3.4864,-3.5141,-3.5589,-3.6035,-3.6444,-3.6406,-3.6143,-3.6091,-3.6091,-3.6127,-3.6457,-3.6677,-3.6677,-3.7007,-3.7338,-3.7356,-3.7374,-3.7521,-3.7924,-3.7961,-3.8108,-3.8438,-3.853,-3.8566,-3.8621,-3.864,-3.864,-3.864,-3.8695,-3.8713,-3.8676,-3.8658,-3.9019,-3.9474,-3.9387,-3.93,-3.9593,-3.9703,-3.963,-3.9593,-3.963,-3.9722,-3.9502,-3.963,-3.9612,-3.963,-3.9722,-3.9667,-3.9557,-3.9575,-3.9685,-3.9722,-3.9648,-3.941,-2.384,-2.384,-2.384,-2.384,-2.384,-2.384,-2.384,-2.384,-2.384,-2.384,-2.3816,-2.3611,-2.3514,-2.3526,-2.3514,-2.3587,-2.3683,-2.3683,-2.3731,-2.384,-2.384,-2.384,-2.384,-2.384,-2.384,-2.384,-2.384,-2.3925,-2.4094,-2.4335,-2.4601,-2.4854,-2.4999,-2.512,-2.5264,-2.5385,-2.5433,-2.5433,-2.5433,-2.5433,-2.5433,-2.5433,-2.5433,-2.5433,-2.5433,-2.5433,-2.5433,-2.5433,-2.5433,-2.5433,-2.5933,-2.677,-2.846,-2.9341,-3.0612,-3.2094,-3.3081,-3.3689,-3.4007,-3.4615,-3.4967,-3.4967,-3.5123,-3.5435,-3.6177,-3.6332,-3.6498,-3.6856,-3.6934,-3.6934,-3.6934,-3.7081,-3.7191,-3.7209,-3.7338,-3.7521,-3.7759,-3.7778,-3.7924,-3.831,-3.8383,-3.8438,-3.8603,-3.864,-3.864,-3.864,-3.864,-3.864,-3.8658,-3.8841,-3.8988,-3.9043,-3.919,-3.93,-3.9696,-3.9664,-3.9648,-3.9795,-3.9832,-3.9832,-3.9868,-3.9832,-3.9832,-3.985,-3.9905,-3.9887,-3.9795,-3.9832,-3.9832,-3.9868,-3.985,-3.9832,-3.9832,-3.9832,-3.9648,-2.384,-2.384,-2.384,-2.384,-2.384,-2.384,-2.384,-2.384,-2.384,-2.384,-2.384,-2.384,-2.384,-2.384,-2.384,-2.384,-2.384,-2.384,-2.384,-2.384,-2.384,-2.384,-2.3852,-2.3925,-2.3949,-2.3961,-2.4033,-2.4202,-2.4444,-2.4637,-2.4878,-2.512,-2.5156,-2.5252,-2.5421,-2.5433,-2.5433,-2.5433,-2.5433,-2.547,-2.553,-2.5542,-2.5518,-2.5446,-2.5433,-2.5433,-2.5433,-2.5433,-2.5433,-2.5433,-2.6116,-2.7109,-2.8628,-2.9802,-3.1301,-3.2803,-3.3888,-3.4371,-3.4371,-3.4936,-3.5275,-3.5275,-3.5433,-3.5748,-3.6358,-3.6653,-3.6965,-3.7604,-3.7759,-3.7704,-3.7448,-3.7521,-3.7576,-3.7594,-3.7668,-3.7888,-3.8144,-3.8181,-3.8291,-3.8585,-3.8603,-3.864,-3.864,-3.864,-3.864,-3.864,-3.864,-3.8713,-3.8805,-3.9043,-3.9263,-3.9428,-3.9758,-4.005,-3.9866,-3.9995,-4.0015,-4.0162,-4.0235,-4.0253,-4.018,-4.018,-4.018,-4.04,-4.0235,-4.0198,-4.0327,-4.0253,-4.0162,-4.0162,-4.0162,-4.0162,-4.029,-4.0198,-4.0198,-2.384,-2.384,-2.384,-2.384,-2.384,-2.384,-2.384,-2.384,-2.384,-2.384,-2.384,-2.384,-2.384,-2.384,-2.384,-2.384,-2.384,-2.384,-2.384,-2.384,-2.3852,-2.3852,-2.3864,-2.4094,-2.4214,-2.4238,-2.442,-2.4685,-2.4963,-2.5011,-2.5168,-2.5397,-2.5397,-2.5421,-2.5433,-2.5433,-2.5433,-2.5458,-2.547,-2.5566,-2.5784,-2.5808,-2.5699,-2.5506,-2.5458,-2.5482,-2.5458,-2.5446,-2.5446,-2.5446,-2.6651,-2.7825,-2.881,-3.0499,-3.2189,-3.3328,-3.4294,-3.4767,-3.4913,-3.5511,-3.5977,-3.6011,-3.6264,-3.6815,-3.7188,-3.7506,-3.7982,-3.8566,-3.8475,-3.8218,-3.7668,-3.7833,-3.7979,-3.8016,-3.8328,-3.853,-3.8585,-3.8548,-3.8603,-3.864,-3.864,-3.864,-3.864,-3.864,-3.864,-3.864,-3.864,-3.8768,-3.9098,-3.9226,-3.9465,-3.9795,-4.0143,-4.0621,-4.0842,-4.0621,-4.0602,-4.0712,-4.073,-4.0895,-4.0987,-4.1005,-4.0969,-4.0932,-4.084,-4.084,-4.095,-4.0969,-4.0895,-4.0859,-4.0822,-4.0822,-4.0694,-4.0914,-4.0877,-2.384,-2.384,-2.384,-2.384,-2.384,-2.384,-2.384,-2.384,-2.384,-2.384,-2.384,-2.384,-2.384,-2.384,-2.384,-2.384,-2.384,-2.384,-2.384,-2.3864,-2.4021,-2.4094,-2.4118,-2.4359,-2.4492,-2.4504,-2.4576,-2.477,-2.5047,-2.5216,-2.5337,-2.5421,-2.5433,-2.5433,-2.5433,-2.5433,-2.5506,-2.5675,-2.5687,-2.5808,-2.6061,-2.6085,-2.6025,-2.5953,-2.594,-2.594,-2.594,-2.5771,-2.5932,-2.6462,-2.7324,-2.8497,-3.0198,-3.2263,-3.3531,-3.3858,-3.4322,-3.4719,-3.4833,-3.5271,-3.5757,-3.6097,-3.642,-3.6885,-3.7365,-3.7845,-3.8163,-3.8481,-3.864,-3.8456,-3.8328,-3.8346,-3.842,-3.8438,-3.8548,-3.864,-3.864,-3.864,-3.864,-3.864,-3.864,-3.864,-3.864,-3.864,-3.864,-3.8658,-3.886,-3.908,-3.9281,-3.9648,-4.0052,-4.0253,-4.0565,-4.0859,-4.1045,-4.1045,-4.0914,-4.0969,-4.1042,-4.1005,-4.106,-4.106,-4.1005,-4.0987,-4.106,-4.106,-4.1042,-4.1042,-4.106,-4.106,-4.106,-4.106,-4.106,-4.106,-4.106,-2.384,-2.384,-2.384,-2.384,-2.384,-2.384,-2.384,-2.384,-2.384,-2.384,-2.3852,-2.3925,-2.3973,-2.3985,-2.4057,-2.4094,-2.4082,-2.4009,-2.4021,-2.4106,-2.4287,-2.4359,-2.4407,-2.4637,-2.477,-2.4782,-2.4854,-2.4999,-2.5168,-2.5349,-2.5433,-2.5433,-2.5433,-2.5433,-2.5446,-2.5518,-2.5663,-2.5808,-2.5904,-2.6085,-2.6327,-2.6363,-2.6399,-2.6472,-2.6484,-2.6387,-2.623,-2.6049,-2.6212,-2.7059,-2.7779,-2.9308,-3.1568,-3.3476,-3.4414,-3.4207,-3.4677,-3.4913,-3.5163,-3.5358,-3.5781,-3.6251,-3.6633,-3.7045,-3.7365,-3.7827,-3.8322,-3.8481,-3.864,-3.864,-3.864,-3.864,-3.864,-3.864,-3.864,-3.864,-3.864,-3.864,-3.864,-3.864,-3.864,-3.864,-3.8658,-3.8768,-3.8841,-3.8841,-3.9171,-3.9447,-3.9703,-4.0052,-4.0547,-4.0657,-4.0859,-4.1005,-4.1192,-4.0987,-4.0987,-4.1042,-4.106,-4.106,-4.106,-4.106,-4.106,-4.106,-4.106,-4.106,-4.106,-4.106,-4.106,-4.106,-4.106,-4.106,-4.106,-4.106,-4.106,-2.384,-2.384,-2.384,-2.384,-2.384,-2.384,-2.3852,-2.3876,-2.3864,-2.39,-2.3973,-2.413,-2.4238,-2.4275,-2.4444,-2.4589,-2.4564,-2.4383,-2.4383,-2.4552,-2.4613,-2.4637,-2.4649,-2.4914,-2.5047,-2.5059,-2.5289,-2.5409,-2.5409,-2.5421,-2.5433,-2.5433,-2.5433,-2.5458,-2.5458,-2.5675,-2.582,-2.594,-2.6122,-2.6363,-2.6604,-2.6641,-2.6737,-2.6942,-2.6966,-2.6749,-2.6278,-2.6242,-2.6431,-2.7159,-2.8334,-3.0218,-3.2714,-3.4095,-3.4541,-3.4525,-3.4847,-3.5352,-3.579,-3.5842,-3.6152,-3.6594,-3.713,-3.749,-3.7454,-3.8076,-3.8536,-3.8481,-3.8481,-3.8481,-3.8481,-3.864,-3.864,-3.864,-3.864,-3.864,-3.864,-3.864,-3.864,-3.864,-3.864,-3.864,-3.8731,-3.8951,-3.9153,-3.9281,-3.9593,-3.9942,-4.0217,-4.0437,-4.0657,-4.0914,-4.1042,-4.106,-4.106,-4.106,-4.106,-4.106,-4.106,-4.106,-4.106,-4.106,-4.106,-4.106,-4.106,-4.106,-4.106,-4.106,-4.106,-4.106,-4.106,-4.106,-4.106,-4.106,-4.106,-2.384,-2.384,-2.384,-2.384,-2.384,-2.384,-2.3937,-2.4106,-2.4118,-2.4214,-2.4371,-2.4468,-2.4504,-2.4516,-2.4601,-2.4733,-2.4902,-2.4818,-2.4745,-2.4685,-2.483,-2.4914,-2.4963,-2.5192,-2.5313,-2.5325,-2.5385,-2.5433,-2.5433,-2.5433,-2.5433,-2.5433,-2.5446,-2.553,-2.5687,-2.5796,-2.5977,-2.6363,-2.646,-2.6641,-2.6882,-2.6906,-2.6954,-2.7015,-2.7027,-2.693,-2.6785,-2.6604,-2.6783,-2.7454,-2.8713,-3.0811,-3.3444,-3.4721,-3.5129,-3.4906,-3.5045,-3.5257,-3.5889,-3.5941,-3.6208,-3.7005,-3.7707,-3.7859,-3.7485,-3.8079,-3.8293,-3.7916,-3.8004,-3.8163,-3.8163,-3.8481,-3.8676,-3.864,-3.864,-3.864,-3.864,-3.864,-3.864,-3.864,-3.864,-3.875,-3.8988,-3.9226,-3.9392,-3.9648,-4.0015,-4.0363,-4.0473,-4.0712,-4.0877,-4.106,-4.106,-4.106,-4.106,-4.106,-4.106,-4.106,-4.106,-4.106,-4.106,-4.106,-4.106,-4.106,-4.106,-4.106,-4.106,-4.106,-4.106,-4.106,-4.106,-4.106,-4.106,-4.106,-4.106,-2.384,-2.384,-2.384,-2.39,-2.3985,-2.3985,-2.4142,-2.4359,-2.4383,-2.448,-2.4613,-2.4733,-2.4782,-2.4806,-2.4878,-2.5023,-2.518,-2.5192,-2.5096,-2.4963,-2.5083,-2.5192,-2.5204,-2.5349,-2.5433,-2.5433,-2.5433,-2.5433,-2.5433,-2.5433,-2.5433,-2.5446,-2.553,-2.5663,-2.5844,-2.6037,-2.6327,-2.6616,-2.6725,-2.6858,-2.6991,-2.7027,-2.7027,-2.7027,-2.7027,-2.7027,-2.7015,-2.6858,-2.7038,-2.7858,-2.9343,-3.1487,-3.3807,-3.4859,-3.5478,-3.5303,-3.5224,-3.5473,-3.6116,-3.617,-3.6408,-3.7398,-3.7944,-3.81,-3.7725,-3.8163,-3.8347,-3.8006,-3.8132,-3.8276,-3.8455,-3.8616,-3.8938,-3.9098,-3.8805,-3.8676,-3.864,-3.864,-3.8731,-3.8805,-3.8878,-3.9061,-3.9336,-3.9648,-3.9758,-4.0088,-4.0418,-4.0694,-4.073,-4.0895,-4.1005,-4.106,-4.106,-4.106,-4.106,-4.106,-4.106,-4.106,-4.106,-4.106,-4.106,-4.106,-4.106,-4.106,-4.106,-4.106,-4.106,-4.106,-4.106,-4.106,-4.106,-4.106,-4.106,-4.106,-4.106,-2.3852,-2.3864,-2.3864,-2.4033,-2.4238,-2.4251,-2.4407,-2.4625,-2.4649,-2.4673,-2.4758,-2.4975,-2.5071,-2.512,-2.5264,-2.5373,-2.5433,-2.5409,-2.5385,-2.5373,-2.5409,-2.5397,-2.5409,-2.5421,-2.5433,-2.5433,-2.5433,-2.5433,-2.5433,-2.5433,-2.5446,-2.5506,-2.5699,-2.5856,-2.6001,-2.6387,-2.6604,-2.6713,-2.6906,-2.7015,-2.7027,-2.7027,-2.7027,-2.7027,-2.7027,-2.7027,-2.7027,-2.7003,-2.7184,-2.8088,-3.0396,-3.2174,-3.347,-3.4875,-3.5573,-3.5526,-3.5573,-3.6047,-3.6674,-3.6599,-3.6775,-3.7606,-3.7871,-3.7909,-3.7927,-3.8223,-3.8335,-3.823,-3.8247,-3.8612,-3.894,-3.9086,-3.9268,-3.9722,-3.9226,-3.8878,-3.875,-3.8768,-3.897,-3.919,-3.9281,-3.9428,-3.9813,-4.018,-4.0363,-4.0547,-4.0785,-4.0932,-4.0987,-4.1024,-4.106,-4.106,-4.106,-4.106,-4.106,-4.106,-4.106,-4.106,-4.106,-4.106,-4.106,-4.106,-4.106,-4.106,-4.106,-4.106,-4.106,-4.106,-4.106,-4.106,-4.106,-4.106,-4.106,-4.106,-4.106,-2.3961,-2.413,-2.413,-2.4287,-2.4504,-2.4528,-2.4685,-2.4914,-2.4939,-2.5035,-2.5192,-2.5301,-2.5325,-2.5337,-2.5397,-2.5433,-2.5433,-2.5433,-2.5433,-2.5433,-2.5433,-2.5433,-2.5433,-2.5433,-2.5433,-2.5433,-2.5433,-2.5433,-2.5433,-2.5458,-2.5542,-2.5723,-2.582,-2.6049,-2.6399,-2.6568,-2.6737,-2.6906,-2.6979,-2.7027,-2.7027,-2.7027,-2.7027,-2.7027,-2.7027,-2.7027,-2.7027,-2.7027,-2.7571,-2.8809,-3.041,-3.2189,-3.347,-3.4875,-3.5573,-3.5573,-3.5573,-3.5922,-3.6427,-3.6674,-3.7141,-3.7656,-3.8202,-3.8437,-3.7806,-3.8293,-3.8153,-3.7795,-3.7874,-3.8241,-3.8719,-3.9066,-3.9395,-3.9832,-3.9648,-3.9502,-3.9465,-3.952,-3.9575,-3.9667,-3.9685,-3.9887,-4.0198,-4.0418,-4.0602,-4.0822,-4.0969,-4.106,-4.106,-4.106,-4.106,-4.106,-4.106,-4.106,-4.106,-4.106,-4.106,-4.106,-4.106,-4.106,-4.106,-4.106,-4.106,-4.106,-4.106,-4.106,-4.106,-4.106,-4.106,-4.106,-4.106,-4.106,-4.106,-4.106,-4.106,-2.4166,-2.4395,-2.4395,-2.4552,-2.4782,-2.4806,-2.4963,-2.518,-2.5216,-2.5289,-2.5421,-2.5433,-2.5433,-2.5433,-2.5433,-2.5433,-2.5433,-2.5433,-2.5433,-2.5433,-2.5433,-2.5433,-2.5433,-2.5433,-2.5433,-2.5433,-2.5446,-2.5433,-2.547,-2.5542,-2.5687,-2.5856,-2.6061,-2.6339,-2.6592,-2.6761,-2.687,-2.7003,-2.7027,-2.7027,-2.7027,-2.7027,-2.7027,-2.7027,-2.7027,-2.7027,-2.7027,-2.7027,-2.7571,-2.9002,-3.041,-3.1834,-3.3087,-3.47,-3.5573,-3.5573,-3.5573,-3.5764,-3.6269,-3.6616,-3.6946,-3.7291,-3.798,-3.7878,-3.7708,-3.7828,-3.7861,-3.7572,-3.7858,-3.8345,-3.9015,-3.9515,-4.0032,-4.0382,-4.0345,-4.0198,-3.9905,-3.9795,-3.9923,-4.0033,-4.0125,-4.0272,-4.0657,-4.0712,-4.0822,-4.0987,-4.1042,-4.106,-4.106,-4.106,-4.106,-4.106,-4.106,-4.106,-4.106,-4.106,-4.106,-4.106,-4.106,-4.106,-4.106,-4.106,-4.106,-4.106,-4.106,-4.106,-4.106,-4.106,-4.106,-4.106,-4.106,-4.106,-4.106,-4.106,-4.106,-2.4432,-2.4673,-2.4673,-2.483,-2.5071,-2.5096,-2.5204,-2.5397,-2.5409,-2.5421,-2.5433,-2.5433,-2.5433,-2.5433,-2.5433,-2.5433,-2.5433,-2.5433,-2.5433,-2.5433,-2.5433,-2.5433,-2.5433,-2.5433,-2.5433,-2.5446,-2.5458,-2.5506,-2.5578,-2.5747,-2.5892,-2.6061,-2.6423,-2.6616,-2.6749,-2.6906,-2.7015,-2.7027,-2.7027,-2.7027,-2.7027,-2.7027,-2.7027,-2.7027,-2.7027,-2.7027,-2.7027,-2.7027,-2.739,-2.8294,-3.0231,-3.1642,-3.2896,-3.4509,-3.5399,-3.5573,-3.5573,-3.5748,-3.6096,-3.6269,-3.6443,-3.6946,-3.6946,-3.6946,-3.7069,-3.7397,-3.7707,-3.7501,-3.798,-3.8732,-3.9582,-4.05,-4.0969,-4.0914,-4.0987,-4.0675,-4.018,-3.996,-4.0107,-4.0455,-4.0529,-4.073,-4.0932,-4.106,-4.106,-4.1024,-4.106,-4.106,-4.106,-4.106,-4.106,-4.106,-4.106,-4.106,-4.106,-4.106,-4.106,-4.106,-4.106,-4.106,-4.106,-4.106,-4.106,-4.106,-4.106,-4.106,-4.106,-4.106,-4.106,-4.106,-4.106,-4.106,-4.106,-4.106,-4.106,-2.4709,-2.4951,-2.4951,-2.5108,-2.5337,-2.5361,-2.5385,-2.5433,-2.5433,-2.5433,-2.5433,-2.5433,-2.5433,-2.5433,-2.5433,-2.5433,-2.5433,-2.5433,-2.5433,-2.5433,-2.5433,-2.5433,-2.5446,-2.547,-2.5458,-2.5494,-2.5663,-2.5735,-2.5808,-2.6001,-2.6242,-2.646,-2.6556,-2.6737,-2.693,-2.6979,-2.7027,-2.7027,-2.7027,-2.7027,-2.7027,-2.7027,-2.7027,-2.7027,-2.7027,-2.7027,-2.7027,-2.7027,-2.7208,-2.8269,-3.0052,-3.1657,-3.2719,-3.4509,-3.5573,-3.5573,-3.5573,-3.5573,-3.5748,-3.6112,-3.6286,-3.6443,-3.6773,-3.6946,-3.6946,-3.7291,-3.7619,-3.7619,-3.798,-3.8666,-3.9689,-4.0554,-4.106,-4.106,-4.106,-4.0987,-4.0822,-4.0767,-4.0804,-4.0859,-4.0895,-4.0969,-4.1042,-4.106,-4.106,-4.106,-4.106,-4.106,-4.106,-4.106,-4.106,-4.106,-4.106,-4.106,-4.106,-4.106,-4.106,-4.106,-4.106,-4.106,-4.106,-4.106,-4.106,-4.106,-4.106,-4.106,-4.106,-4.106,-4.106,-4.106,-4.106,-4.106,-4.106,-4.106,-4.106,-2.4975,-2.5228,-2.5228,-2.5313,-2.5421,-2.5433,-2.5433,-2.5433,-2.5433,-2.5433,-2.5433,-2.5433,-2.5433,-2.5433,-2.5433,-2.5433,-2.5433,-2.5433,-2.5433,-2.547,-2.5554,-2.5627,-2.5663,-2.5723,-2.5759,-2.5699,-2.5892,-2.6001,-2.6085,-2.6278,-2.6484,-2.6653,-2.6749,-2.6894,-2.7003,-2.7027,-2.7027,-2.7027,-2.7027,-2.7027,-2.7027,-2.7027,-2.7027,-2.7027,-2.7027,-2.7027,-2.7027,-2.7027,-2.7196,-2.8088,-2.9515,-3.1123,-3.2543,-3.4158,-3.5225,-3.5573,-3.5573,-3.5573,-3.5748,-3.5748,-3.5922,-3.5922,-3.6269,-3.6253,-3.66,-3.6946,-3.7291,-3.7464,-3.8152,-3.9025,-3.9876,-4.0554,-4.106,-4.106,-4.106,-4.106,-4.106,-4.106,-4.106,-4.106,-4.1042,-4.1042,-4.106,-4.106,-4.106,-4.106,-4.106,-4.106,-4.106,-4.106,-4.106,-4.106,-4.106,-4.106,-4.106,-4.106,-4.106,-4.106,-4.106,-4.106,-4.106,-4.106,-4.106,-4.106,-4.106,-4.106,-4.106,-4.106,-4.106,-4.106,-4.106,-4.106,-4.106,-4.106,-4.106,-2.524,-2.5433,-2.5433,-2.5433,-2.5433,-2.5433,-2.5433,-2.5433,-2.5433,-2.5433,-2.5433,-2.5433,-2.5433,-2.5433,-2.5433,-2.5433,-2.5458,-2.5518,-2.5542,-2.5566,-2.5784,-2.5868,-2.594,-2.6097,-2.617,-2.6001,-2.6182,-2.6278,-2.6363,-2.6544,-2.6701,-2.6749,-2.6906,-2.7003,-2.7027,-2.7027,-2.7027,-2.7027,-2.7027,-2.7027,-2.7027,-2.7027,-2.7027,-2.7027,-2.7027,-2.7027,-2.7027,-2.7027,-2.7208,-2.7558,-2.8989,-3.041,-3.1834,-3.3616,-3.505,-3.5573,-3.5573,-3.5573,-3.5573,-3.5573,-3.5573,-3.5573,-3.5573,-3.5573,-3.5922,-3.6427,-3.6946,-3.7464,-3.8152,-3.9366,-4.0046,-4.0554,-4.0892,-4.0892,-4.0892,-4.106,-4.106,-4.106,-4.106,-4.106,-4.106,-4.106,-4.106,-4.106,-4.106,-4.106,-4.106,-4.106,-4.106,-4.106,-4.106,-4.106,-4.106,-4.106,-4.106,-4.106,-4.106,-4.106,-4.106,-4.106,-4.106,-4.106,-4.106,-4.106,-4.106,-4.106,-4.106,-4.106,-4.106,-4.106,-4.106,-4.106,-4.106,-4.106,-4.1097,-2.5397,-2.5433,-2.5433,-2.5433,-2.5433,-2.5433,-2.5433,-2.5433,-2.5433,-2.5433,-2.5433,-2.5433,-2.5433,-2.5433,-2.5433,-2.5446,-2.5506,-2.5651,-2.5759,-2.5808,-2.6025,-2.6146,-2.6206,-2.6435,-2.652,-2.6532,-2.6556,-2.6568,-2.6629,-2.6822,-2.6906,-2.6954,-2.7003,-2.7027,-2.7027,-2.7027,-2.7027,-2.7027,-2.7027,-2.7027,-2.7027,-2.7027,-2.7027,-2.7027,-2.7027,-2.7027,-2.7027,-2.7027,-2.7027,-2.7208,-2.8462,-2.9707,-3.1123,-3.3087,-3.4525,-3.5399,-3.5573,-3.5573,-3.5573,-3.5573,-3.5573,-3.5573,-3.5573,-3.5573,-3.5748,-3.6427,-3.6946,-3.7636,-3.8494,-3.9536,-3.9195,-4.0046,-4.0216,-4.0216,-4.0385,-4.0572,-4.0554,-4.0892,-4.106,-4.106,-4.106,-4.106,-4.106,-4.106,-4.106,-4.106,-4.106,-4.106,-4.106,-4.106,-4.106,-4.106,-4.106,-4.106,-4.106,-4.106,-4.106,-4.106,-4.106,-4.106,-4.106,-4.106,-4.1079,-4.117,-4.1134,-4.106,-4.106,-4.1079,-4.1134,-4.1189,-4.1134,-4.1097,-4.1262,-4.139,-4.128,-2.5433,-2.5433,-2.5433,-2.5433,-2.5433,-2.5433,-2.5433,-2.5433,-2.5433,-2.5433,-2.5433,-2.5433,-2.5433,-2.5433,-2.5433,-2.5506,-2.5687,-2.5904,-2.6025,-2.6085,-2.6291,-2.6435,-2.6472,-2.6713,-2.681,-2.6834,-2.6834,-2.6834,-2.6858,-2.6954,-2.7027,-2.7027,-2.7027,-2.7027,-2.7027,-2.7027,-2.7027,-2.7027,-2.7027,-2.7027,-2.7027,-2.7027,-2.7027,-2.7027,-2.7027,-2.7027,-2.7027,-2.7027,-2.7027,-2.7208,-2.792,-2.9169,-3.0602,-3.2012,-3.3807,-3.4875,-3.5399,-3.5573,-3.5573,-3.5573,-3.5573,-3.5573,-3.5573,-3.5573,-3.5748,-3.6427,-3.7291,-3.798,-3.8494,-3.9366,-3.9366,-3.9706,-3.9876,-3.9876,-4.0046,-4.0403,-4.0572,-4.0892,-4.106,-4.106,-4.106,-4.106,-4.106,-4.106,-4.106,-4.106,-4.106,-4.106,-4.106,-4.106,-4.106,-4.106,-4.106,-4.106,-4.106,-4.106,-4.106,-4.106,-4.1079,-4.1079,-4.1152,-4.1189,-4.1299,-4.1427,-4.1317,-4.1372,-4.1097,-4.1115,-4.1207,-4.1354,-4.1427,-4.1537,-4.1647,-4.1702,-4.1684,-2.5433,-2.5433,-2.5433,-2.5433,-2.5433,-2.5433,-2.5433,-2.5433,-2.5433,-2.5433,-2.5433,-2.5446,-2.547,-2.553,-2.5615,-2.5723,-2.5928,-2.6182,-2.6291,-2.6363,-2.658,-2.6713,-2.6785,-2.6894,-2.7003,-2.6979,-2.6991,-2.7027,-2.7003,-2.7027,-2.7027,-2.7027,-2.7027,-2.7027,-2.7027,-2.7027,-2.7027,-2.7027,-2.7027,-2.7027,-2.7027,-2.7027,-2.7027,-2.7051,-2.7075,-2.7123,-2.7135,-2.7232,-2.7244,-2.7403,-2.7706,-2.8538,-3.0133,-3.1343,-3.2749,-3.4349,-3.5225,-3.5573,-3.5573,-3.5573,-3.5573,-3.5573,-3.5573,-3.5573,-3.5748,-3.6427,-3.7464,-3.8512,-3.9025,-3.9025,-3.9195,-3.9536,-3.9519,-3.9519,-3.9876,-4.0233,-4.0385,-4.0554,-4.106,-4.106,-4.106,-4.106,-4.106,-4.106,-4.106,-4.106,-4.106,-4.106,-4.106,-4.106,-4.106,-4.106,-4.106,-4.106,-4.106,-4.106,-4.106,-4.106,-4.1097,-4.1115,-4.1244,-4.1372,-4.1592,-4.1922,-4.2069,-4.2051,-4.161,-4.1354,-4.1666,-4.1867,-4.1904,-4.2069,-4.2381,-4.2509,-4.2527,-2.5433,-2.5433,-2.5433,-2.5433,-2.5433,-2.5433,-2.5433,-2.5433,-2.5433,-2.5433,-2.5433,-2.547,-2.5578,-2.5784,-2.6025,-2.6134,-2.6242,-2.6447,-2.658,-2.6629,-2.6822,-2.6942,-2.6966,-2.7003,-2.7027,-2.7027,-2.7027,-2.7027,-2.7027,-2.7027,-2.7027,-2.7027,-2.7027,-2.7027,-2.7027,-2.7027,-2.7027,-2.7027,-2.7027,-2.7027,-2.7039,-2.7039,-2.7051,-2.7111,-2.7256,-2.7377,-2.7401,-2.7522,-2.763,-2.763,-2.783,-2.8648,-2.969,-3.0739,-3.2069,-3.3455,-3.47,-3.5573,-3.5573,-3.5573,-3.5573,-3.5573,-3.5573,-3.5573,-3.5922,-3.6427,-3.7119,-3.7636,-3.8323,-3.8683,-3.8683,-3.8854,-3.8854,-3.9007,-3.9348,-3.9706,-4.0046,-4.0723,-4.106,-4.106,-4.106,-4.106,-4.106,-4.106,-4.106,-4.106,-4.106,-4.106,-4.106,-4.106,-4.106,-4.106,-4.106,-4.106,-4.106,-4.106,-4.117,-4.1134,-4.128,-4.1354,-4.1666,-4.1959,-4.2326,-4.2619,-4.2766,-4.2839,-4.2582,-4.2436,-4.2436,-4.2527,-4.2692,-4.2968,-4.3261,-4.3334,-4.3353,-2.5433,-2.5433,-2.5433,-2.5433,-2.5433,-2.5433,-2.5433,-2.5433,-2.5433,-2.5433,-2.547,-2.5602,-2.5796,-2.6073,-2.6339,-2.646,-2.652,-2.6725,-2.6858,-2.6846,-2.6966,-2.7027,-2.7027,-2.7027,-2.7027,-2.7027,-2.7027,-2.7027,-2.7027,-2.7027,-2.7027,-2.7027,-2.7027,-2.7027,-2.7027,-2.7027,-2.7027,-2.7027,-2.7027,-2.7027,-2.7063,-2.716,-2.7256,-2.7256,-2.751,-2.7618,-2.7679,-2.7727,-2.7811,-2.7799,-2.7852,-2.8371,-2.9415,-3.0314,-3.1402,-3.2819,-3.4074,-3.5065,-3.5399,-3.5573,-3.5573,-3.5573,-3.5573,-3.5764,-3.5922,-3.6269,-3.6773,-3.7291,-3.7636,-3.7808,-3.798,-3.8152,-3.8323,-3.8666,-3.9348,-3.9706,-4.0046,-4.0723,-4.106,-4.106,-4.106,-4.106,-4.106,-4.106,-4.106,-4.106,-4.106,-4.106,-4.106,-4.106,-4.106,-4.106,-4.106,-4.106,-4.106,-4.1079,-4.1335,-4.1445,-4.1849,-4.1996,-4.2362,-4.2692,-4.3078,-4.3371,-4.3573,-4.3573,-4.3499,-4.3334,-4.3169,-4.3334,-4.3554,-4.3811,-4.405,-4.4141,-4.416,-2.5433,-2.5433,-2.5433,-2.5433,-2.5433,-2.5433,-2.5433,-2.5446,-2.5518,-2.5542,-2.5627,-2.588,-2.6158,-2.6351,-2.6592,-2.6737,-2.6749,-2.6942,-2.7015,-2.7027,-2.7027,-2.7027,-2.7027,-2.7027,-2.7027,-2.7027,-2.7027,-2.7027,-2.7027,-2.7027,-2.7027,-2.7027,-2.7027,-2.7027,-2.7027,-2.7027,-2.7027,-2.7027,-2.7027,-2.7075,-2.716,-2.7317,-2.7437,-2.757,-2.7739,-2.7908,-2.792,-2.8017,-2.8041,-2.8041,-2.7956,-2.8445,-2.9065,-2.9546,-3.0596,-3.1761,-3.2999,-3.3998,-3.4875,-3.5399,-3.5573,-3.5573,-3.5573,-3.5748,-3.5938,-3.6286,-3.6459,-3.6789,-3.7119,-3.7291,-3.7464,-3.7619,-3.8152,-3.8666,-3.9366,-3.9876,-4.0385,-4.0723,-4.106,-4.106,-4.106,-4.106,-4.106,-4.106,-4.106,-4.106,-4.106,-4.106,-4.106,-4.106,-4.106,-4.106,-4.1097,-4.1097,-4.1134,-4.1207,-4.1445,-4.1867,-4.2289,-4.2711,-4.3114,-4.3518,-4.3903,-4.416,-4.4361,-4.4581,-4.4655,-4.4251,-4.3903,-4.4178,-4.4435,-4.4618,-4.4801,-4.4875,-4.4911,-2.5433,-2.5433,-2.5433,-2.5433,-2.5446,-2.5433,-2.5446,-2.5494,-2.5711,-2.582,-2.5904,-2.6291,-2.6532,-2.6665,-2.6822,-2.6966,-2.6991,-2.7027,-2.7027,-2.7027,-2.7027,-2.7027,-2.7027,-2.7027,-2.7027,-2.7027,-2.7027,-2.7027,-2.7027,-2.7027,-2.7027,-2.7027,-2.7027,-2.7027,-2.7027,-2.7027,-2.7027,-2.7039,-2.7063,-2.7184,-2.7317,-2.7461,-2.7582,-2.7799,-2.8017,-2.8174,-2.8186,-2.8367,-2.8463,-2.8451,-2.8282,-2.8253,-2.8632,-2.8926,-2.9795,-3.0641,-3.1756,-3.2925,-3.3807,-3.505,-3.5573,-3.5573,-3.5573,-3.5573,-3.5748,-3.6112,-3.6286,-3.6269,-3.66,-3.7119,-3.7291,-3.7619,-3.798,-3.8837,-3.9536,-4.0046,-4.0385,-4.0892,-4.106,-4.106,-4.106,-4.106,-4.106,-4.106,-4.106,-4.106,-4.106,-4.106,-4.106,-4.106,-4.106,-4.1079,-4.1115,-4.1152,-4.1244,-4.1519,-4.2087,-4.2601,-4.3041,-4.3499,-4.394,-4.4343,-4.4728,-4.493,-4.515,-4.5498,-4.5663,-4.5077,-4.4783,-4.5058,-4.526,-4.526,-4.5297,-4.5333,-4.5425,-2.5433,-2.5433,-2.5433,-2.5433,-2.5446,-2.5615,-2.5675,-2.5723,-2.5953,-2.6182,-2.6327,-2.6544,-2.6737,-2.687,-2.6942,-2.7027,-2.7027,-2.7027,-2.7027,-2.7027,-2.7027,-2.7027,-2.7027,-2.7027,-2.7027,-2.7027,-2.7027,-2.7027,-2.7027,-2.7027,-2.7027,-2.7027,-2.7027,-2.7027,-2.7027,-2.7027,-2.7039,-2.7087,-2.7184,-2.7341,-2.7437,-2.7775,-2.7956,-2.8053,-2.8318,-2.8439,-2.8475,-2.856,-2.8608,-2.8596,-2.85,-2.846,-2.8393,-2.8508,-2.897,-2.9598,-3.0519,-3.1685,-3.2925,-3.4158,-3.5225,-3.5573,-3.5573,-3.5573,-3.5573,-3.5748,-3.5938,-3.5922,-3.6096,-3.66,-3.7119,-3.7291,-3.7636,-3.8854,-3.9706,-4.0046,-4.0554,-4.0892,-4.106,-4.106,-4.106,-4.106,-4.106,-4.106,-4.106,-4.106,-4.106,-4.106,-4.106,-4.1079,-4.1097,-4.1244,-4.1317,-4.1836,-4.2155,-4.2462,-4.2821,-4.3298,-4.3793,-4.4251,-4.471,-4.515,-4.5498,-4.57,-4.5718,-4.5773,-4.5737,-4.559,-4.5517,-4.5553,-4.5608,-4.5682,-4.5718,-4.5682,-4.559,-2.5482,-2.5554,-2.5554,-2.5554,-2.5578,-2.5747,-2.5868,-2.5989,-2.623,-2.6496,-2.6749,-2.6773,-2.6846,-2.6991,-2.7027,-2.7027,-2.7027,-2.7027,-2.7027,-2.7027,-2.7027,-2.7027,-2.7027,-2.7027,-2.7027,-2.7027,-2.7027,-2.7027,-2.7027,-2.7027,-2.7027,-2.7027,-2.7027,-2.7027,-2.7027,-2.7027,-2.7063,-2.7184,-2.7292,-2.7546,-2.7679,-2.798,-2.8258,-2.8306,-2.8512,-2.8584,-2.8584,-2.862,-2.862,-2.8584,-2.85,-2.8331,-2.8278,-2.8209,-2.8322,-2.8805,-2.9506,-3.0451,-3.1863,-3.3631,-3.505,-3.5573,-3.5573,-3.5573,-3.5573,-3.5573,-3.5748,-3.5573,-3.5748,-3.6096,-3.6946,-3.7291,-3.798,-3.9178,-3.9536,-4.0046,-4.0554,-4.106,-4.106,-4.106,-4.106,-4.106,-4.106,-4.106,-4.106,-4.106,-4.106,-4.106,-4.106,-4.1097,-4.1152,-4.1372,-4.1629,-4.2414,-4.3069,-4.3523,-4.3719,-4.4013,-4.4508,-4.4985,-4.5425,-4.5773,-4.5883,-4.5828,-4.5828,-4.5883,-4.5828,-4.5718,-4.5755,-4.5847,-4.5773,-4.559,-4.5498,-4.537,-4.5187,-2.559,-2.5808,-2.582,-2.5832,-2.5856,-2.5832,-2.5989,-2.623,-2.6508,-2.6761,-2.6966,-2.6979,-2.6991,-2.7027,-2.7027,-2.7027,-2.7027,-2.7027,-2.7027,-2.7027,-2.7027,-2.7027,-2.7027,-2.7027,-2.7027,-2.7027,-2.7027,-2.7027,-2.7027,-2.7027,-2.7027,-2.7051,-2.7075,-2.7063,-2.7039,-2.7039,-2.716,-2.7377,-2.7425,-2.7739,-2.8017,-2.8198,-2.8379,-2.8512,-2.8596,-2.862,-2.862,-2.862,-2.8608,-2.8524,-2.8367,-2.8149,-2.7836,-2.7618,-2.7744,-2.7863,-2.8357,-2.9401,-3.0629,-3.3293,-3.4731,-3.5399,-3.5573,-3.5573,-3.5573,-3.5573,-3.5573,-3.5573,-3.5922,-3.6443,-3.6946,-3.7464,-3.8323,-3.9178,-3.9519,-4.0046,-4.0723,-4.106,-4.106,-4.106,-4.106,-4.106,-4.106,-4.106,-4.106,-4.106,-4.106,-4.1079,-4.1097,-4.1317,-4.1445,-4.1568,-4.1933,-4.3209,-4.3978,-4.4285,-4.4618,-4.4875,-4.5113,-4.548,-4.5682,-4.5828,-4.5883,-4.5883,-4.5883,-4.5883,-4.5883,-4.5847,-4.5718,-4.5553,-4.5407,-4.526,-4.5168,-4.504,-4.482,-2.5747,-2.5844,-2.6013,-2.6194,-2.6351,-2.6363,-2.6423,-2.6532,-2.6773,-2.6954,-2.7015,-2.7027,-2.7027,-2.7027,-2.7027,-2.7027,-2.7027,-2.7027,-2.7027,-2.7027,-2.7027,-2.7027,-2.7027,-2.7027,-2.7027,-2.7027,-2.7027,-2.7027,-2.7027,-2.7027,-2.7027,-2.7051,-2.7184,-2.7184,-2.7135,-2.716,-2.7365,-2.7486,-2.7727,-2.8041,-2.821,-2.8379,-2.8524,-2.862,-2.862,-2.862,-2.862,-2.862,-2.8548,-2.8403,-2.8222,-2.8017,-2.7703,-2.7461,-2.7401,-2.7659,-2.8012,-2.9093,-3.0542,-3.2505,-3.3826,-3.4633,-3.5399,-3.5589,-3.5573,-3.5573,-3.5573,-3.5748,-3.6096,-3.6616,-3.6946,-3.7291,-3.8152,-3.9348,-3.9876,-4.0198,-4.0723,-4.106,-4.106,-4.106,-4.106,-4.106,-4.106,-4.1207,-4.1225,-4.1299,-4.1335,-4.1244,-4.1225,-4.1702,-4.1823,-4.196,-4.2378,-4.393,-4.4851,-4.4967,-4.515,-4.537,-4.5517,-4.5718,-4.5865,-4.5883,-4.5883,-4.5883,-4.5883,-4.5883,-4.5773,-4.5608,-4.5333,-4.5132,-4.493,-4.4856,-4.4838,-4.4618,-4.4343,-2.594,-2.6122,-2.6291,-2.652,-2.6737,-2.6677,-2.6677,-2.6785,-2.6954,-2.7027,-2.7027,-2.7027,-2.7027,-2.7027,-2.7027,-2.7027,-2.7027,-2.7027,-2.7027,-2.7027,-2.7027,-2.7027,-2.7027,-2.7027,-2.7027,-2.7027,-2.7027,-2.7027,-2.7027,-2.7027,-2.7087,-2.7208,-2.7341,-2.7377,-2.7377,-2.7498,-2.763,-2.7775,-2.8029,-2.8222,-2.8367,-2.8512,-2.8608,-2.862,-2.862,-2.862,-2.862,-2.8584,-2.85,-2.8294,-2.8137,-2.7993,-2.7691,-2.7558,-2.7558,-2.7731,-2.8112,-2.9021,-3.0122,-3.1568,-3.2736,-3.3888,-3.487,-3.5415,-3.5573,-3.5573,-3.5573,-3.5748,-3.6096,-3.6616,-3.6946,-3.7464,-3.8323,-3.9366,-3.9876,-4.0198,-4.0723,-4.106,-4.106,-4.106,-4.1097,-4.1097,-4.1134,-4.1299,-4.1427,-4.1537,-4.1647,-4.1574,-4.1574,-4.2106,-4.2481,-4.2633,-4.3051,-4.4377,-4.5187,-4.5427,-4.5759,-4.5847,-4.5883,-4.5883,-4.5883,-4.5883,-4.5883,-4.5883,-4.5883,-4.5792,-4.5553,-4.5315,-4.4893,-4.4563,-4.4325,-4.4325,-4.4435,-4.4251,-4.3958,-2.6158,-2.6604,-2.6653,-2.6785,-2.6966,-2.6773,-2.681,-2.7015,-2.7027,-2.7027,-2.7027,-2.7027,-2.7027,-2.7027,-2.7027,-2.7027,-2.7027,-2.7027,-2.7027,-2.7027,-2.7027,-2.7027,-2.7027,-2.7027,-2.7027,-2.7027,-2.7027,-2.7027,-2.7027,-2.7111,-2.722,-2.7401,-2.7534,-2.763,-2.7751,-2.7872,-2.7968,-2.8077,-2.821,-2.8379,-2.8524,-2.8596,-2.862,-2.862,-2.862,-2.862,-2.862,-2.8608,-2.8463,-2.8306,-2.8186,-2.8029,-2.7896,-2.7811,-2.7811,-2.801,-2.8209,-2.8806,-2.9499,-3.0782,-3.1634,-3.2756,-3.3843,-3.4855,-3.5462,-3.5685,-3.5669,-3.5954,-3.6269,-3.66,-3.7119,-3.7808,-3.8666,-3.9195,-3.9706,-4.0216,-4.0892,-4.106,-4.106,-4.1097,-4.1152,-4.1207,-4.1299,-4.1445,-4.1977,-4.2161,-4.2399,-4.2711,-4.2747,-4.2876,-4.3389,-4.3433,-4.407,-4.482,-4.5501,-4.5795,-4.5906,-4.5883,-4.5883,-4.5883,-4.5883,-4.5883,-4.5883,-4.5883,-4.5847,-4.5645,-4.515,-4.471,-4.4288,-4.4013,-4.3884,-4.3903,-4.4031,-4.3866,-4.3646,-2.6315,-2.6653,-2.6834,-2.6966,-2.7015,-2.6942,-2.6966,-2.7027,-2.7027,-2.7027,-2.7027,-2.7027,-2.7027,-2.7027,-2.7027,-2.7027,-2.7027,-2.7027,-2.7027,-2.7027,-2.7027,-2.7027,-2.7027,-2.7027,-2.7027,-2.7039,-2.7039,-2.7063,-2.7087,-2.7184,-2.7449,-2.7679,-2.7824,-2.798,-2.8113,-2.8282,-2.827,-2.8282,-2.8391,-2.85,-2.8584,-2.862,-2.862,-2.862,-2.862,-2.862,-2.862,-2.862,-2.8475,-2.8258,-2.821,-2.8077,-2.7848,-2.7824,-2.7848,-2.8101,-2.8411,-2.8711,-2.9093,-2.9781,-3.065,-3.143,-3.2435,-3.3873,-3.4972,-3.5586,-3.5684,-3.5971,-3.6589,-3.697,-3.7318,-3.8011,-3.8873,-3.9406,-3.9748,-4.0261,-4.0771,-4.1111,-4.1111,-4.1335,-4.139,-4.161,-4.1684,-4.2197,-4.2692,-4.2876,-4.3169,-4.3591,-4.3829,-4.3921,-4.4086,-4.4325,-4.4672,-4.5352,-4.5535,-4.581,-4.5847,-4.5883,-4.5883,-4.5883,-4.5883,-4.5883,-4.5883,-4.5773,-4.5553,-4.5077,-4.449,-4.4141,-4.394,-4.3738,-4.3609,-4.3609,-4.3591,-4.3536,-4.3481,-2.6544,-2.6798,-2.6966,-2.7027,-2.7027,-2.7027,-2.7027,-2.7027,-2.7027,-2.7027,-2.7027,-2.7027,-2.7027,-2.7027,-2.7027,-2.7027,-2.7027,-2.7027,-2.7027,-2.7027,-2.7027,-2.7027,-2.7027,-2.7027,-2.7027,-2.7051,-2.7135,-2.722,-2.7256,-2.7449,-2.7703,-2.7956,-2.8162,-2.8258,-2.8367,-2.8475,-2.85,-2.8487,-2.8512,-2.8608,-2.862,-2.862,-2.862,-2.862,-2.862,-2.862,-2.862,-2.862,-2.8475,-2.8294,-2.827,-2.8246,-2.8065,-2.8065,-2.8162,-2.8391,-2.8463,-2.8691,-2.8784,-2.9317,-2.9784,-3.0421,-3.1275,-3.2619,-3.4034,-3.4772,-3.5351,-3.5952,-3.6755,-3.7408,-3.7741,-3.8264,-3.8976,-3.9858,-4.0013,-4.0185,-4.07,-4.1061,-4.144,-4.1647,-4.1831,-4.2106,-4.2472,-4.3004,-4.3481,-4.3793,-4.416,-4.4581,-4.4746,-4.4783,-4.4911,-4.5001,-4.5462,-4.5792,-4.5883,-4.5883,-4.5883,-4.5883,-4.5883,-4.5883,-4.5883,-4.5828,-4.5755,-4.548,-4.5132,-4.4636,-4.416,-4.394,-4.3738,-4.3573,-4.3481,-4.3518,-4.3536,-4.3518,-4.3481,-2.6785,-2.7015,-2.7027,-2.7027,-2.7027,-2.7027,-2.7027,-2.7027,-2.7027,-2.7027,-2.7027,-2.7027,-2.7027,-2.7027,-2.7027,-2.7027,-2.7027,-2.7027,-2.7027,-2.7027,-2.7027,-2.7027,-2.7027,-2.7027,-2.7075,-2.7148,-2.7268,-2.7413,-2.7546,-2.7739,-2.7968,-2.8222,-2.8258,-2.8367,-2.8548,-2.8584,-2.8584,-2.8584,-2.8584,-2.862,-2.862,-2.862,-2.862,-2.862,-2.862,-2.862,-2.862,-2.8584,-2.8512,-2.8415,-2.8391,-2.8439,-2.8403,-2.8403,-2.8536,-2.8584,-2.8608,-2.8596,-2.8764,-2.9122,-2.9326,-3.0064,-3.0864,-3.1598,-3.2459,-3.4409,-3.515,-3.57,-3.6676,-3.7385,-3.7915,-3.8443,-3.9145,-3.9687,-4.0036,-4.0366,-4.0713,-4.1341,-4.1887,-4.2188,-4.2692,-4.2931,-4.3133,-4.3646,-4.4196,-4.4618,-4.4966,-4.5407,-4.5462,-4.5443,-4.5517,-4.5663,-4.5773,-4.5883,-4.5883,-4.5883,-4.5883,-4.5883,-4.5883,-4.5773,-4.57,-4.5645,-4.5608,-4.5168,-4.4673,-4.4361,-4.3976,-4.3774,-4.3628,-4.3554,-4.3481,-4.3481,-4.3499,-4.3554,-4.3481,-2.6785,-2.7027,-2.7027,-2.7027,-2.7027,-2.7027,-2.7027,-2.7027,-2.7027,-2.7027,-2.7027,-2.7027,-2.7027,-2.7027,-2.7027,-2.7027,-2.7027,-2.7027,-2.7027,-2.7027,-2.7027,-2.7063,-2.7051,-2.7087,-2.716,-2.7292,-2.7437,-2.7655,-2.7932,-2.8101,-2.8234,-2.8475,-2.85,-2.856,-2.8608,-2.862,-2.862,-2.862,-2.862,-2.862,-2.862,-2.862,-2.862,-2.862,-2.862,-2.862,-2.862,-2.862,-2.8584,-2.856,-2.8572,-2.8572,-2.8536,-2.8596,-2.862,-2.862,-2.8644,-2.8669,-2.8681,-2.8885,-2.9102,-2.9245,-2.9592,-3.0102,-3.1274,-3.3657,-3.5106,-3.5666,-3.6458,-3.7371,-3.8102,-3.8652,-3.9202,-3.9733,-4.0103,-4.0438,-4.079,-4.1584,-4.2383,-4.3029,-4.3554,-4.3774,-4.394,-4.4325,-4.4856,-4.5242,-4.5517,-4.5773,-4.5737,-4.5718,-4.57,-4.5792,-4.5828,-4.5883,-4.5883,-4.5883,-4.5883,-4.5865,-4.5828,-4.5682,-4.5498,-4.5242,-4.5003,-4.46,-4.4196,-4.3976,-4.3793,-4.3664,-4.3536,-4.3573,-4.3701,-4.3793,-4.3756,-4.3793,-4.3628,-2.6894,-2.7027,-2.7027,-2.7027,-2.7027,-2.7027,-2.7027,-2.7027,-2.7027,-2.7027,-2.7027,-2.7027,-2.7027,-2.7027,-2.7027,-2.7027,-2.7027,-2.7027,-2.7027,-2.7027,-2.7063,-2.7123,-2.7148,-2.7208,-2.7389,-2.7546,-2.7739,-2.7993,-2.8306,-2.8403,-2.85,-2.8608,-2.862,-2.862,-2.862,-2.862,-2.862,-2.862,-2.862,-2.862,-2.862,-2.862,-2.862,-2.862,-2.862,-2.862,-2.862,-2.862,-2.862,-2.862,-2.862,-2.862,-2.8596,-2.862,-2.862,-2.8669,-2.8717,-2.8801,-2.8813,-2.8862,-2.8922,-2.9116,-2.914,-2.976,-3.056,-3.2627,-3.4075,-3.4833,-3.6678,-3.7756,-3.8119,-3.8663,-3.9191,-3.962,-4.0248,-4.0645,-4.1524,-4.2476,-4.3163,-4.3814,-4.4325,-4.46,-4.4783,-4.5021,-4.548,-4.5535,-4.5847,-4.5865,-4.5883,-4.5883,-4.5883,-4.5883,-4.5883,-4.5883,-4.5883,-4.5883,-4.5883,-4.5847,-4.5755,-4.5407,-4.5095,-4.4691,-4.4343,-4.4196,-4.3995,-4.3756,-4.3591,-4.3719,-4.3756,-4.3829,-4.3995,-4.416,-4.4141,-4.4215,-4.4361,-2.7027,-2.7027,-2.7027,-2.7027,-2.7027,-2.7027,-2.7027,-2.7027,-2.7027,-2.7027,-2.7027,-2.7027,-2.7027,-2.7027,-2.7027,-2.7027,-2.7027,-2.7027,-2.7027,-2.7051,-2.7087,-2.7208,-2.7341,-2.7461,-2.7642,-2.7872,-2.8089,-2.8306,-2.856,-2.8572,-2.8572,-2.862,-2.862,-2.862,-2.862,-2.862,-2.862,-2.862,-2.862,-2.862,-2.862,-2.862,-2.862,-2.862,-2.862,-2.862,-2.862,-2.862,-2.862,-2.8656,-2.8681,-2.8729,-2.8765,-2.8801,-2.8825,-2.8874,-2.8982,-2.9043,-2.9091,-2.9212,-2.9284,-2.9357,-2.9405,-2.9799,-3.0378,-3.1425,-3.29,-3.4478,-3.6169,-3.7782,-3.8152,-3.8738,-3.9287,-3.9789,-4.0428,-4.1118,-4.2249,-4.32,-4.379,-4.4563,-4.5003,-4.5315,-4.548,-4.5718,-4.5792,-4.5865,-4.5883,-4.5883,-4.5883,-4.5883,-4.5883,-4.5883,-4.5883,-4.5883,-4.5883,-4.5865,-4.5847,-4.5663,-4.5517,-4.5095,-4.4691,-4.4288,-4.4068,-4.4105,-4.3903,-4.3811,-4.3995,-4.4396,-4.4396,-4.4306,-4.46,-4.4893,-4.4985,-4.5113,-4.5425,-2.7027,-2.7027,-2.7027,-2.7027,-2.7027,-2.7027,-2.7027,-2.7027,-2.7027,-2.7027,-2.7027,-2.7027,-2.7027,-2.7027,-2.7027,-2.7027,-2.7027,-2.7027,-2.7027,-2.7039,-2.7208,-2.7341,-2.7522,-2.7751,-2.7908,-2.8125,-2.8367,-2.8548,-2.862,-2.862,-2.862,-2.862,-2.862,-2.862,-2.862,-2.862,-2.862,-2.862,-2.862,-2.862,-2.862,-2.862,-2.862,-2.862,-2.862,-2.862,-2.862,-2.862,-2.862,-2.8681,-2.8813,-2.891,-2.8982,-2.9067,-2.9127,-2.9151,-2.926,-2.9308,-2.9381,-2.9465,-2.9538,-2.9526,-2.9538,-2.9513,-3.0095,-3.0675,-3.2089,-3.3256,-3.5044,-3.7095,-3.8025,-3.8762,-3.9234,-4.0066,-4.0711,-4.1646,-4.2602,-4.3474,-4.4088,-4.4792,-4.5385,-4.5494,-4.5718,-4.5847,-4.5847,-4.5883,-4.5883,-4.5883,-4.5883,-4.5883,-4.5883,-4.5865,-4.5847,-4.5883,-4.5883,-4.581,-4.5737,-4.5535,-4.526,-4.4838,-4.438,-4.3884,-4.3756,-4.4086,-4.3997,-4.396,-4.438,-4.4967,-4.5206,-4.5335,-4.5443,-4.5682,-4.581,-4.5975,-4.625]}]]